[[{"header":{"parameterUnit":"m.s-1","parameterCategory":1,"la1":30.6,"la2":29.2853,"lo1":-89.7004,"lo2":-87.6739,"dy":0.0162,"dx":0.0183,"nx":112,"ny":82,"refTime":"2023-03-03T18:00:00:Z","depth":0,"parameterNumber":2,"parameterNumberName":"U-component_of_WINDS"},"data":[0.0,0.0,0.0,0.0,0.0,0.0,0.0,0.0,0.0,0.0,0.0,0.0,0.0,0.0,0.0,0.0,0.0,0.0,0.0,0.0,0.0,0.0,0.0,0.0,0.0,0.0,0.0,0.0,0.0,0.0,0.0,0.0,0.0,0.0,0.0,0.0,0.0,0.0,0.0,0.0,0.0,0.0,0.0,0.0,0.0,0.0,0.0,0.0,0.0,0.0,0.0,0.0,0.0,0.0,0.0,0.0,0.0,0.0,0.0,0.0,0.0,0.0,0.0,0.0,0.0,0.0,0.0,0.0,0.0,0.0,0.0,0.0,0.0,0.0,0.0,0.0,0.0,0.0,0.0,0.0,0.0,0.0,0.0,0.0,0.0,0.0,0.0,0.0,0.0,0.0,-3.0791,-3.1302,-3.2224,-3.2754,-3.2525,-3.2525,-3.187,-3.0272,0.0,0.0,0.0,0.0,0.0,0.0,0.0,0.0,0.0,0.0,0.0,0.0,0.0,0.0,0.0,0.0,0.0,0.0,0.0,0.0,0.0,0.0,0.0,0.0,0.0,0.0,0.0,0.0,0.0,0.0,0.0,0.0,0.0,0.0,0.0,0.0,0.0,0.0,0.0,0.0,0.0,0.0,0.0,0.0,0.0,0.0,0.0,0.0,0.0,0.0,0.0,0.0,0.0,0.0,0.0,0.0,0.0,0.0,0.0,0.0,0.0,0.0,0.0,0.0,0.0,0.0,0.0,0.0,0.0,0.0,0.0,0.0,0.0,0.0,0.0,0.0,0.0,0.0,0.0,0.0,0.0,0.0,0.0,0.0,0.0,0.0,0.0,0.0,0.0,0.0,0.0,0.0,0.0,0.0,0.0,0.0,0.0,0.0,0.0,0.0,0.0,0.0,0.0,0.0,-3.0741,-3.1192,-3.1404,-3.1089,-3.0045,-2.9954,-2.9498,-2.8359,0.0,0.0,0.0,0.0,0.0,0.0,0.0,0.0,0.0,0.0,0.0,0.0,0.0,0.0,0.0,0.0,0.0,0.0,0.0,0.0,0.0,0.0,0.0,0.0,0.0,0.0,0.0,0.0,0.0,0.0,0.0,0.0,0.0,0.0,0.0,0.0,0.0,0.0,0.0,0.0,0.0,0.0,0.0,0.0,0.0,0.0,0.0,0.0,0.0,0.0,0.0,0.0,0.0,0.0,0.0,0.0,0.0,0.0,0.0,0.0,0.0,0.0,0.0,0.0,0.0,0.0,0.0,0.0,0.0,0.0,0.0,0.0,0.0,0.0,0.0,0.0,0.0,0.0,0.0,0.0,0.0,0.0,0.0,0.0,0.0,0.0,0.0,0.0,0.0,0.0,0.0,0.0,0.0,0.0,0.0,0.0,0.0,0.0,0.0,0.0,0.0,0.0,0.0,-3.116,-3.1668,-3.2172,-3.2239,-3.1733,-3.0496,-3.0361,-2.9655,-2.7984,-2.8669,0.0,0.0,0.0,0.0,0.0,0.0,0.0,0.0,0.0,0.0,0.0,0.0,0.0,0.0,0.0,0.0,0.0,0.0,0.0,0.0,0.0,0.0,0.0,0.0,0.0,0.0,0.0,0.0,0.0,0.0,0.0,0.0,0.0,0.0,0.0,0.0,0.0,0.0,0.0,0.0,0.0,0.0,0.0,0.0,0.0,0.0,0.0,0.0,0.0,0.0,0.0,0.0,0.0,0.0,0.0,0.0,0.0,0.0,0.0,0.0,0.0,0.0,0.0,0.0,0.0,0.0,0.0,0.0,0.0,0.0,0.0,0.0,0.0,0.0,0.0,0.0,0.0,0.0,0.0,0.0,0.0,0.0,0.0,0.0,0.0,0.0,0.0,0.0,0.0,0.0,0.0,0.0,0.0,0.0,0.0,0.0,0.0,0.0,0.0,0.0,0.0,0.0,-3.1806,-3.1902,-3.1784,-3.1789,-3.1279,-2.9988,-2.9897,-2.9105,-2.7194,-2.7051,0.0,0.0,0.0,0.0,0.0,0.0,0.0,0.0,0.0,0.0,0.0,0.0,0.0,0.0,0.0,0.0,0.0,0.0,0.0,0.0,0.0,0.0,0.0,0.0,0.0,0.0,0.0,0.0,0.0,0.0,0.0,0.0,0.0,0.0,0.0,0.0,0.0,0.0,0.0,0.0,0.0,0.0,0.0,0.0,0.0,0.0,0.0,0.0,0.0,0.0,0.0,0.0,0.0,0.0,0.0,0.0,0.0,0.0,0.0,0.0,0.0,0.0,0.0,0.0,0.0,0.0,0.0,0.0,0.0,0.0,0.0,0.0,0.0,0.0,0.0,0.0,0.0,0.0,0.0,0.0,0.0,0.0,0.0,0.0,0.0,0.0,0.0,0.0,0.0,0.0,0.0,0.0,0.0,0.0,0.0,0.0,0.0,0.0,0.0,0.0,0.0,0.0,-3.0656,-3.0416,-2.8226,-2.8002,-2.7447,-2.6197,-2.611,-2.5676,-2.4694,-2.4634,0.0,0.0,0.0,0.0,0.0,0.0,0.0,0.0,0.0,0.0,0.0,0.0,0.0,0.0,0.0,0.0,0.0,0.0,0.0,0.0,0.0,0.0,0.0,0.0,0.0,0.0,0.0,0.0,0.0,0.0,0.0,0.0,0.0,0.0,0.0,0.0,0.0,0.0,0.0,0.0,0.0,0.0,0.0,0.0,0.0,0.0,0.0,0.0,0.0,0.0,0.0,0.0,0.0,0.0,0.0,0.0,0.0,0.0,0.0,0.0,0.0,0.0,0.0,0.0,0.0,0.0,0.0,0.0,0.0,0.0,0.0,0.0,0.0,0.0,0.0,0.0,0.0,0.0,0.0,0.0,0.0,0.0,0.0,0.0,0.0,0.0,0.0,0.0,0.0,0.0,0.0,0.0,0.0,0.0,0.0,0.0,0.0,0.0,0.0,0.0,0.0,0.0,-2.9141,-2.9376,0.0,-2.8727,-2.8226,-2.6993,-2.6897,-2.6178,-2.4519,0.0,0.0,0.0,0.0,0.0,0.0,0.0,0.0,0.0,0.0,0.0,0.0,0.0,0.0,0.0,0.0,0.0,0.0,0.0,0.0,0.0,0.0,0.0,0.0,0.0,0.0,0.0,0.0,0.0,0.0,0.0,0.0,0.0,0.0,0.0,0.0,0.0,0.0,0.0,0.0,0.0,0.0,0.0,0.0,0.0,0.0,0.0,0.0,0.0,0.0,0.0,0.0,0.0,0.0,0.0,0.0,0.0,0.0,0.0,0.0,0.0,0.0,0.0,0.0,0.0,0.0,0.0,0.0,0.0,0.0,0.0,0.0,0.0,0.0,0.0,0.0,0.0,0.0,0.0,0.0,0.0,0.0,0.0,0.0,0.0,0.0,0.0,0.0,0.0,0.0,0.0,0.0,0.0,0.0,0.0,0.0,0.0,0.0,0.0,0.0,0.0,0.0,-2.7327,-2.7886,-2.8274,0.0,-2.8215,-2.7898,-2.7078,-2.6982,-2.6273,-2.4519,0.0,0.0,0.0,0.0,0.0,0.0,0.0,0.0,0.0,0.0,0.0,0.0,0.0,0.0,0.0,0.0,0.0,0.0,0.0,0.0,0.0,0.0,0.0,0.0,0.0,0.0,0.0,0.0,0.0,0.0,0.0,0.0,0.0,0.0,0.0,0.0,0.0,0.0,0.0,0.0,0.0,0.0,0.0,0.0,0.0,0.0,0.0,0.0,0.0,0.0,0.0,0.0,0.0,0.0,0.0,0.0,0.0,0.0,0.0,0.0,0.0,0.0,0.0,0.0,0.0,0.0,0.0,0.0,0.0,0.0,0.0,0.0,0.0,0.0,0.0,0.0,0.0,0.0,0.0,0.0,0.0,0.0,0.0,0.0,0.0,0.0,0.0,0.0,0.0,0.0,0.0,0.0,0.0,0.0,0.0,0.0,0.0,0.0,0.0,0.0,0.0,0.0,-2.6238,-2.6966,-2.7078,-2.583,-2.5693,-2.5693,-2.5693,-2.5693,-2.5313,0.0,0.0,0.0,0.0,0.0,0.0,0.0,0.0,0.0,0.0,0.0,0.0,0.0,0.0,0.0,0.0,0.0,0.0,0.0,0.0,0.0,0.0,0.0,0.0,0.0,0.0,0.0,0.0,0.0,0.0,0.0,0.0,0.0,0.0,0.0,0.0,0.0,0.0,0.0,0.0,0.0,0.0,0.0,0.0,0.0,0.0,0.0,0.0,0.0,0.0,0.0,0.0,0.0,0.0,0.0,0.0,0.0,0.0,0.0,0.0,0.0,0.0,0.0,0.0,0.0,0.0,0.0,0.0,0.0,0.0,0.0,0.0,0.0,0.0,0.0,0.0,0.0,0.0,0.0,0.0,0.0,0.0,0.0,0.0,0.0,0.0,0.0,0.0,0.0,0.0,0.0,0.0,0.0,0.0,0.0,0.0,0.0,0.0,0.0,0.0,0.0,0.0,0.0,-2.4955,-2.5697,-2.611,-2.5732,-2.5693,-2.5693,-2.5693,-2.5693,-2.5313,-2.4473,0.0,0.0,0.0,0.0,0.0,0.0,0.0,0.0,0.0,0.0,0.0,0.0,0.0,0.0,0.0,0.0,0.0,0.0,0.0,0.0,0.0,0.0,0.0,0.0,0.0,0.0,0.0,0.0,0.0,0.0,0.0,0.0,0.0,0.0,0.0,0.0,0.0,0.0,0.0,0.0,0.0,0.0,0.0,0.0,0.0,0.0,0.0,0.0,0.0,0.0,0.0,0.0,0.0,0.0,0.0,0.0,0.0,0.0,0.0,0.0,0.0,0.0,0.0,0.0,0.0,0.0,0.0,0.0,0.0,0.0,0.0,0.0,0.0,0.0,0.0,0.0,0.0,0.0,0.0,0.0,0.0,0.0,0.0,0.0,0.0,0.0,0.0,0.0,0.0,0.0,0.0,0.0,0.0,0.0,0.0,0.0,0.0,0.0,0.0,0.0,0.0,0.0,-2.4414,-2.5148,-2.5693,-2.5693,-2.5693,-2.5693,-2.5693,-2.5693,-2.5391,-2.4717,0.0,0.0,0.0,0.0,0.0,0.0,0.0,0.0,0.0,0.0,0.0,0.0,0.0,0.0,0.0,0.0,0.0,0.0,0.0,0.0,0.0,0.0,0.0,0.0,0.0,0.0,0.0,0.0,0.0,0.0,0.0,0.0,0.0,0.0,0.0,0.0,0.0,0.0,0.0,0.0,0.0,0.0,0.0,0.0,0.0,0.0,0.0,0.0,0.0,0.0,0.0,0.0,0.0,0.0,0.0,0.0,0.0,0.0,0.0,0.0,0.0,0.0,0.0,0.0,0.0,0.0,0.0,0.0,0.0,0.0,0.0,0.0,0.0,0.0,0.0,0.0,0.0,0.0,0.0,0.0,0.0,0.0,0.0,0.0,0.0,0.0,0.0,0.0,0.0,0.0,0.0,0.0,0.0,0.0,0.0,0.0,0.0,0.0,0.0,0.0,0.0,0.0,-2.4414,-2.5148,-2.5693,-2.5693,-2.5693,-2.5693,-2.5693,-2.5693,-2.5547,-2.5145,0.0,0.0,0.0,0.0,0.0,0.0,0.0,0.0,0.0,0.0,0.0,0.0,0.0,0.0,0.0,0.0,0.0,0.0,0.0,0.0,0.0,0.0,0.0,0.0,0.0,0.0,0.0,0.0,0.0,0.0,0.0,0.0,0.0,0.0,0.0,0.0,0.0,0.0,0.0,0.0,0.0,0.0,0.0,0.0,0.0,0.0,0.0,0.0,0.0,0.0,0.0,0.0,0.0,0.0,0.0,0.0,0.0,0.0,0.0,0.0,-4.6765,-4.6199,0.0,0.0,0.0,0.0,0.0,0.0,0.0,0.0,0.0,0.0,0.0,0.0,0.0,0.0,0.0,0.0,0.0,0.0,0.0,0.0,0.0,0.0,0.0,0.0,0.0,0.0,0.0,0.0,0.0,0.0,0.0,0.0,0.0,0.0,0.0,0.0,0.0,0.0,0.0,0.0,-2.4414,-2.5148,-2.5693,-2.5693,-2.5693,-2.5693,-2.5693,-2.5693,-2.5547,-2.5145,-2.5028,0.0,0.0,0.0,0.0,0.0,0.0,0.0,0.0,0.0,0.0,0.0,0.0,0.0,0.0,0.0,0.0,0.0,0.0,0.0,0.0,0.0,0.0,0.0,0.0,0.0,0.0,0.0,0.0,0.0,0.0,0.0,0.0,0.0,0.0,0.0,0.0,0.0,0.0,0.0,0.0,0.0,0.0,0.0,0.0,0.0,0.0,0.0,0.0,0.0,0.0,0.0,0.0,0.0,0.0,0.0,0.0,0.0,0.0,0.0,-4.7056,-4.6709,0.0,0.0,0.0,0.0,0.0,0.0,0.0,0.0,0.0,0.0,0.0,0.0,0.0,0.0,0.0,0.0,0.0,0.0,0.0,0.0,0.0,0.0,0.0,0.0,0.0,0.0,0.0,0.0,0.0,0.0,0.0,0.0,0.0,0.0,0.0,0.0,0.0,0.0,0.0,0.0,-2.4414,-2.5148,-2.5693,-2.5693,-2.5693,-2.5771,-2.6035,-2.6055,-2.6035,-2.6006,-2.581,0.0,0.0,0.0,0.0,0.0,0.0,0.0,0.0,0.0,0.0,0.0,0.0,0.0,0.0,0.0,0.0,0.0,0.0,0.0,0.0,0.0,0.0,0.0,0.0,0.0,0.0,0.0,0.0,0.0,0.0,0.0,0.0,0.0,0.0,0.0,0.0,0.0,0.0,0.0,0.0,0.0,0.0,0.0,0.0,0.0,0.0,0.0,0.0,0.0,0.0,0.0,0.0,0.0,-4.6955,-4.7378,-4.7378,-4.7513,-4.7902,-4.843,-4.7834,-4.7767,-4.802,-4.6921,0.0,0.0,0.0,0.0,0.0,0.0,0.0,0.0,0.0,0.0,0.0,0.0,0.0,0.0,0.0,0.0,0.0,0.0,0.0,0.0,0.0,0.0,-3.4994,-3.298,-3.2867,-3.2943,-3.1901,0.0,0.0,0.0,0.0,0.0,0.0,0.0,0.0,0.0,0.0,0.0,-2.4629,-2.5352,-2.583,-2.5908,-2.5908,-2.6054,-2.6465,-2.6494,-2.665,-2.6992,-2.6689,-2.6299,0.0,0.0,0.0,0.0,0.0,0.0,0.0,0.0,0.0,0.0,0.0,0.0,0.0,0.0,0.0,0.0,0.0,0.0,0.0,0.0,0.0,0.0,0.0,0.0,0.0,0.0,0.0,0.0,0.0,0.0,0.0,0.0,-4.3538,-4.3197,0.0,0.0,0.0,0.0,0.0,0.0,0.0,0.0,0.0,0.0,0.0,0.0,0.0,-4.3961,-4.5382,-4.6143,-4.687,-4.7618,-4.9001,-4.9644,-4.9678,-5.0338,-5.0693,-5.0745,-5.0676,0.0,-4.89,-4.934,0.0,0.0,0.0,0.0,0.0,0.0,0.0,0.0,0.0,0.0,0.0,0.0,0.0,0.0,0.0,0.0,0.0,0.0,0.0,0.0,0.0,0.0,-3.5176,-3.3979,-3.3734,-3.3621,-3.2993,-3.2077,-3.1373,-3.1298,-3.1286,-3.0813,0.0,0.0,0.0,0.0,0.0,0.0,-2.5555,-2.5996,-2.6445,-2.6807,-2.6846,-2.6865,-2.6934,-2.6934,-2.6953,-2.7012,-2.6963,-2.6738,-2.6318,-2.5937,0.0,0.0,0.0,0.0,0.0,0.0,0.0,0.0,0.0,0.0,0.0,0.0,0.0,0.0,0.0,0.0,0.0,0.0,0.0,0.0,0.0,0.0,0.0,0.0,0.0,0.0,0.0,0.0,0.0,-4.3837,-4.3735,-4.3955,-4.3577,-4.3216,0.0,0.0,0.0,0.0,0.0,0.0,0.0,0.0,0.0,-4.4062,-4.4874,-4.5635,-4.6312,-4.7868,-4.8815,-4.9154,-5.0219,-5.0727,-5.0727,-5.1065,-5.1185,-5.1202,-5.1657,-5.1454,-5.0811,-5.0304,-4.9712,-4.9103,0.0,0.0,0.0,0.0,-4.6764,-4.6338,-4.545,-4.4895,-4.4467,-4.3698,0.0,0.0,0.0,0.0,0.0,0.0,0.0,-3.9942,-3.9282,-3.8327,-3.714,-3.5663,-3.5303,-3.514,-3.4575,-3.3834,-3.298,-3.2039,-3.1851,-3.1497,-3.0474,-3.0042,0.0,0.0,0.0,-2.7327,-2.7214,-2.6953,-2.6807,-2.6992,-2.7012,-2.7119,-2.7363,-2.7383,-2.748,-2.7715,-2.7734,-2.7549,-2.7129,-2.6924,-2.6387,0.0,0.0,0.0,0.0,0.0,0.0,0.0,0.0,0.0,0.0,0.0,0.0,0.0,0.0,0.0,0.0,0.0,0.0,0.0,0.0,0.0,0.0,0.0,0.0,0.0,0.0,0.0,0.0,-4.399,-4.3927,-4.453,-4.4062,-4.3724,0.0,0.0,0.0,0.0,0.0,0.0,-4.4874,-4.5072,-4.5173,-4.5173,-4.6397,-4.7175,-4.7361,-4.9171,-5.0287,-5.0659,-5.1234,-5.1606,-5.1809,-5.1809,-5.1809,-5.1826,-5.2384,-5.2604,-5.252,-5.142,-5.0845,-5.0608,-5.0067,-4.9729,-4.9451,-4.8647,-4.8176,-4.7826,-4.6776,-4.6225,-4.5923,-4.5075,-4.4706,-4.4466,-4.3947,0.0,0.0,0.0,0.0,-4.1256,-4.0151,-3.9333,-3.8415,-3.696,-3.6483,-3.6207,-3.5621,-3.5069,-3.4304,-3.3093,-3.2855,-3.2679,-3.2127,-3.1718,0.0,-3.1041,0.0,-2.878,-2.8743,-2.7804,-2.7217,-2.7324,-2.7344,-2.7471,-2.7793,-2.7822,-2.7959,-2.8271,-2.8291,-2.8154,-2.7894,-2.7617,-2.7041,-2.6035,0.0,0.0,0.0,0.0,0.0,0.0,0.0,0.0,0.0,0.0,0.0,0.0,0.0,0.0,0.0,0.0,0.0,0.0,0.0,0.0,0.0,0.0,0.0,0.0,0.0,0.0,0.0,0.0,0.0,-4.4615,-4.4564,0.0,0.0,0.0,0.0,-4.4547,-4.5229,-4.5652,-4.5652,-4.6312,-4.6684,-4.6684,-4.7445,-4.8189,-4.8883,-4.9678,-5.0794,-5.2181,-5.2232,-5.2638,-5.3382,-5.3382,-5.3382,-5.3399,-5.3433,-5.345,-5.3433,-5.3365,-5.2892,-5.2181,-5.2147,-5.1725,-5.1037,-5.0735,-5.0029,-4.9164,-4.8785,-4.803,-4.7083,-4.6426,-4.5783,-4.5229,-4.5214,-4.4766,0.0,0.0,-4.2131,-4.0628,-3.9954,-3.8926,-3.7912,-3.7322,-3.6795,-3.6207,-3.5621,-3.5069,-3.47,-3.4568,-3.4555,-3.4424,-3.3872,0.0,-3.3355,-3.2187,-3.0812,-2.9851,-2.9658,-2.8459,-2.7783,-2.8184,-2.8223,-2.8232,-2.8262,-2.8262,-2.8271,-2.8291,-2.8291,-2.8281,-2.8262,-2.748,-2.7012,-2.6953,-2.6053,0.0,0.0,0.0,0.0,0.0,0.0,0.0,0.0,0.0,0.0,0.0,0.0,0.0,0.0,0.0,0.0,0.0,0.0,0.0,0.0,0.0,0.0,0.0,0.0,0.0,0.0,0.0,0.0,-4.4615,-4.4615,0.0,-4.4615,-4.501,-4.55,-4.5974,-4.6244,-4.6819,-4.7767,-4.7631,-4.7733,-4.8206,-4.9407,-5.0168,-5.0422,-5.1674,-5.2553,-5.3078,-5.3078,-5.323,-5.3501,-5.3501,-5.3501,-5.3501,-5.3501,-5.3501,-5.3501,-5.3501,-5.3331,-5.3078,-5.3078,-5.2909,-5.2505,-5.1067,-5.0333,-4.9792,-4.8341,-4.7609,-4.7264,-4.704,-4.6785,-4.6591,-4.6591,-4.6426,-4.6007,-4.498,-4.4226,-4.3231,-4.1031,-4.0105,-3.944,-3.8035,-3.7299,-3.6835,-3.6646,-3.6169,-3.5768,-3.5768,-3.5203,-3.4663,-3.4462,-3.468,-3.4769,-3.4333,-3.3469,-3.2829,-3.2746,-3.1543,-3.0386,-2.964,-2.9608,-2.926,-2.8398,-2.8291,-2.8291,-2.8291,-2.8291,-2.8291,-2.8291,-2.7744,-2.7305,-2.7021,-2.6455,-2.576,0.0,0.0,0.0,0.0,0.0,0.0,0.0,0.0,0.0,0.0,0.0,0.0,0.0,0.0,0.0,0.0,0.0,0.0,0.0,0.0,0.0,0.0,0.0,0.0,0.0,0.0,-4.4615,-4.4615,-4.4835,-4.4959,-4.4959,-4.5635,-4.638,-4.7124,-4.7394,-4.8071,-4.9306,-4.9154,-4.9255,-4.9746,-5.0947,-5.1589,-5.1589,-5.2858,-5.3501,-5.3501,-5.3501,-5.3501,-5.3501,-5.3501,-5.3501,-5.3501,-5.3501,-5.3501,-5.3501,-5.3501,-5.3501,-5.3501,-5.3501,-5.3501,-5.328,-5.1557,-5.0703,-5.0087,-4.8003,-4.7309,-4.7309,-4.7309,-4.7309,-4.7309,-4.7309,-4.7309,-4.7019,-4.5779,-4.507,-4.4172,-4.1686,-4.0756,-4.0083,-3.8616,-3.7877,-3.7412,-3.7224,-3.6795,-3.6405,-3.6405,-3.5768,-3.5278,-3.5278,-3.5579,-3.5818,-3.5818,-3.5003,-3.4385,-3.4385,-3.3155,-3.1785,-3.0421,-3.0317,-2.9765,-2.8388,-2.8164,-2.8144,-2.8281,-2.8164,-2.8086,-2.8086,-2.7676,-2.7246,-2.6816,-2.6387,-2.5769,-2.502,0.0,0.0,0.0,0.0,0.0,0.0,0.0,0.0,0.0,0.0,0.0,0.0,0.0,0.0,0.0,0.0,0.0,0.0,0.0,0.0,0.0,0.0,0.0,-4.4649,-4.4632,-4.4649,-4.4682,-4.5297,-4.5737,-4.5737,-4.6397,-4.7141,-4.7889,-4.8646,-4.9373,-5.0152,-5.0862,-5.1236,-5.1252,-5.1961,-5.2334,-5.2334,-5.3112,-5.3501,-5.3501,-5.3501,-5.3501,-5.3501,-5.3501,-5.3501,-5.3501,-5.3501,-5.3501,-5.3501,-5.3501,-5.3501,-5.3501,-5.3501,-5.3501,-5.3382,-5.2277,-5.1192,-5.0025,-4.8003,-4.7309,-4.7309,-4.7309,-4.7309,-4.7309,-4.7309,-4.7309,-4.7019,-4.5779,-4.4503,-4.3252,-4.191,-4.0667,-3.9573,-3.9007,-3.8391,-3.7839,-3.7274,-3.6782,-3.6405,-3.6405,-3.6405,-3.6405,-3.6405,-3.6405,-3.6405,-3.6405,-3.5271,0.0,-3.4483,-3.3254,-3.1876,-3.0514,-3.0359,-2.9797,-2.8398,-2.791,-2.7894,-2.8262,-2.79,-2.7728,-2.7738,-2.7256,-2.6816,-2.6396,-2.5967,-2.502,-2.3692,0.0,0.0,0.0,0.0,0.0,0.0,0.0,0.0,0.0,0.0,0.0,0.0,0.0,0.0,0.0,0.0,0.0,0.0,0.0,0.0,0.0,0.0,-4.6007,-4.5466,-4.5399,-4.5602,-4.6126,-4.6363,-4.6498,-4.6498,-4.7158,-4.8139,-4.9407,-4.9678,-5.0608,-5.2469,-5.2198,-5.2266,-5.2858,-5.3061,-5.3179,-5.3179,-5.3399,-5.3501,-5.3501,-5.3501,-5.3501,-5.3501,-5.3501,-5.3501,-5.3501,-5.3501,-5.3501,-5.3501,-5.3501,-5.3501,-5.3501,-5.3501,-5.3501,-5.328,-5.1484,-4.9671,-4.8088,-4.7495,-4.7309,-4.7309,-4.7309,-4.7309,-4.7309,-4.7309,-4.7309,-4.7019,-4.5779,-4.5161,-4.4297,-4.1694,-4.0739,-4.0026,-3.811,-3.7525,-3.7262,-3.6757,-3.6518,-3.6405,-3.6405,-3.6405,-3.6405,-3.6405,-3.6405,-3.6405,-3.6405,-3.6073,-3.5858,-3.5858,-3.5511,-3.4399,-3.1977,-3.1477,-3.0512,-2.8475,-2.791,-2.7894,-2.8262,-2.79,-2.7855,-2.8105,-2.7412,-2.6816,-2.6396,-2.5967,-2.502,0.0,0.0,0.0,0.0,0.0,0.0,0.0,0.0,0.0,0.0,0.0,0.0,0.0,0.0,0.0,0.0,0.0,0.0,0.0,0.0,0.0,0.0,-4.6786,-4.6752,-4.665,-4.6363,-4.6312,-4.6735,-4.7073,-4.7259,-4.7259,-4.8206,-4.9323,-5.0473,-5.0845,-5.1742,-5.3416,-5.3061,-5.3027,-5.3501,-5.3501,-5.3501,-5.3501,-5.3501,-5.3501,-5.3501,-5.3501,-5.3501,-5.3501,-5.3501,-5.3501,-5.3501,-5.3501,-5.3501,-5.3501,-5.3501,-5.3501,-5.3501,0.0,0.0,0.0,0.0,-4.8692,-4.7309,-4.7309,-4.7309,-4.7309,-4.7309,-4.7309,-4.7309,-4.7309,-4.7309,-4.7164,-4.6403,-4.5448,-4.4172,-4.2413,-4.1152,-3.987,-3.7972,-3.7525,-3.7312,-3.6581,-3.6405,-3.6405,-3.6405,-3.6405,0.0,-3.6405,-3.6405,-3.6405,-3.6405,-3.6405,-3.6405,-3.6405,-3.6405,-3.5547,-3.3403,-3.2433,-3.1186,-2.9282,-2.8259,0.0,0.0,0.0,-2.7748,-2.7754,-2.7109,0.0,0.0,0.0,-2.5323,-2.4559,-2.4559,0.0,0.0,-2.0648,-1.9677,0.0,0.0,0.0,0.0,0.0,0.0,0.0,0.0,0.0,0.0,0.0,0.0,0.0,0.0,0.0,0.0,-4.7039,-4.7276,-4.7922,-4.7462,-4.7039,-4.7039,-4.7631,-4.8007,-4.8007,-4.9272,-5.0405,-5.115,-5.1894,-5.2655,-5.3467,0.0,0.0,0.0,0.0,-5.3501,-5.3501,-5.3501,-5.3501,-5.3501,-5.3501,-5.3501,-5.3501,-5.3501,-5.3501,-5.3501,-5.3501,-5.3501,-5.3501,-5.3501,-5.3433,-5.3314,-5.3314,-5.2679,-5.1488,-4.952,-4.8183,-4.7309,-4.7309,0.0,0.0,-4.7309,-4.7309,-4.7309,-4.7309,-4.7309,-4.7309,-4.7309,-4.5689,-4.3882,-4.374,-4.1936,-3.9791,-3.8501,-3.8101,-3.7701,-3.6644,-3.6405,-3.6405,-3.6405,-3.6405,-3.6405,-3.6405,-3.6405,-3.6405,-3.6405,-3.6405,-3.6405,-3.6405,-3.6405,-3.587,-3.4532,0.0,0.0,-3.0411,-2.8709,-2.7894,-2.8262,-2.7949,-2.7539,-2.7109,-2.6738,-2.6348,-2.5908,-2.581,-2.5762,-2.5762,-2.5713,-2.5079,-2.389,-2.2416,-2.0939,0.0,0.0,0.0,0.0,0.0,0.0,0.0,0.0,0.0,0.0,0.0,0.0,0.0,0.0,0.0,-4.8609,-4.8578,-4.8629,-4.8781,-4.8663,-4.8578,-4.8578,-4.8714,-4.8798,-4.8798,-4.9576,-5.0405,-5.115,-5.1894,-5.2655,-5.3467,-5.3501,-5.3501,-5.3501,-5.3501,-5.3501,-5.3501,-5.3501,-5.3501,-5.3501,-5.3501,0.0,-5.3501,-5.3501,-5.3501,-5.3501,-5.3501,-5.3501,-5.3501,-5.3501,-5.299,-5.2189,-5.2189,-5.1594,-5.055,-4.9256,-4.8183,-4.7309,-4.7309,-4.7309,-4.7309,-4.7309,-4.7309,-4.7309,-4.7309,-4.7309,0.0,-4.7309,-4.6975,-4.6344,-4.5298,-4.3882,-4.2199,-4.0065,-3.8736,-3.7701,-3.6644,-3.6405,-3.6405,-3.6405,-3.6405,-3.6405,-3.6405,-3.6405,-3.6405,-3.6405,-3.6405,-3.6405,-3.6405,-3.6405,-3.587,-3.4532,-3.2848,-3.1417,-3.039,-2.8709,-2.7894,-2.8262,-2.8223,-2.7988,-2.7559,-2.7513,-2.7434,-2.7295,-2.6611,-2.626,-2.626,-2.5859,-2.5586,-2.5274,-2.2818,-2.0939,0.0,0.0,0.0,0.0,0.0,0.0,0.0,0.0,0.0,0.0,0.0,-4.8944,0.0,0.0,-4.9389,-4.9046,-4.9001,-4.9001,-4.9001,-4.9323,-4.9407,-4.9035,-4.9323,-4.9543,-4.9543,-5.0541,-5.1352,-5.1725,-5.2469,-5.3078,-5.3484,-5.3501,-5.3501,-5.3501,-5.3501,-5.3501,-5.3501,-5.3501,-5.3501,-5.3501,-5.3501,-5.3501,-5.3501,-5.3501,-5.3501,-5.3501,-5.3501,-5.3501,-5.3501,-5.3501,-5.3179,-5.2592,-5.1541,-5.0496,-4.9456,-4.8418,-4.7722,-4.7309,-4.7309,-4.7309,-4.7309,-4.7309,-4.7309,-4.7309,-4.7309,-4.7309,-4.7309,-4.7309,-4.6168,-4.491,-4.4557,-4.2856,-4.0811,-3.9317,-3.8469,-3.7701,-3.6644,-3.6405,-3.6405,-3.6405,-3.6405,-3.6405,-3.6405,-3.6405,-3.6405,-3.6405,-3.6405,-3.6405,-3.6405,-3.6405,-3.6156,-3.5475,-3.399,-3.2841,-3.2381,-3.0262,-2.8775,-2.8335,-2.8291,-2.8105,-2.7738,-2.7718,-2.7568,-2.7344,-2.6709,-2.6387,-2.6387,-2.5947,-2.5693,-2.5635,-2.3642,-2.2316,0.0,0.0,0.0,0.0,0.0,0.0,0.0,0.0,-4.9898,-4.9826,-4.9792,-4.9652,-4.9107,-4.9432,-4.9622,-4.9077,-4.9001,-4.9052,-4.9187,-4.9729,-4.9915,-4.9492,-4.9949,-5.0304,-5.0304,-5.1522,-5.23,-5.23,-5.3044,-5.3501,-5.3501,-5.3501,-5.3501,-5.3501,-5.3501,-5.3501,-5.3501,-5.3501,-5.3501,-5.3501,-5.3501,-5.3501,-5.3501,-5.3501,-5.3501,-5.3501,-5.3264,-5.3195,-5.3179,-5.2956,-5.2765,-5.24,-5.0596,-4.9346,-4.8388,-4.7458,-4.7189,-4.7294,-4.716,-4.7189,-4.7309,-4.7309,-4.7219,-4.7115,-4.7115,-4.7115,-4.7115,-4.7115,-4.5418,-4.3684,-4.413,-4.2112,-3.9749,-3.8925,-3.8477,-3.7842,-3.6666,-3.6405,-3.6405,-3.6405,-3.6405,-3.6405,-3.6405,-3.6405,-3.6405,-3.6405,-3.6405,-3.6405,-3.6405,-3.6405,-3.6405,-3.6405,-3.5223,-3.4276,-3.403,-3.1735,-2.9859,-2.8751,-2.8363,-2.8018,-2.7728,-2.764,-2.7373,-2.7021,-2.6602,-2.6387,-2.6387,-2.5947,-2.5693,-2.5684,-2.4609,-2.3949,-4.8306,-4.8857,-4.9482,-4.9574,-5.0174,-5.0618,0.0,0.0,-4.9832,-4.9239,-4.9107,-4.9077,-4.9001,-4.9063,-4.9077,-4.9001,-4.9001,-4.9221,-4.9864,-5.0033,-5.0304,-5.0896,-5.1048,-5.1099,-5.1099,-5.1826,-5.23,-5.23,-5.3044,-5.3501,-5.3501,-5.3501,-5.3501,-5.3501,-5.3501,-5.3501,-5.3501,-5.3501,-5.3501,-5.3501,-5.3501,-5.3501,-5.3501,-5.3501,-5.3501,-5.3467,-5.247,-5.2082,-5.201,-5.1134,-5.0204,-4.9233,-4.8424,-4.7855,-4.7392,-4.6678,-4.68,-4.7219,-4.6636,-4.6815,-4.7309,-4.7309,-4.692,-4.6384,-4.6384,-4.6384,-4.6384,-4.6384,-4.6614,-4.6784,-4.6858,-4.5359,-4.337,-4.1759,-4.0079,-3.8366,-3.6754,-3.6405,-3.6405,-3.6405,-3.6405,-3.6405,-3.6405,-3.6405,-3.6405,-3.6405,-3.6405,-3.6405,-3.6405,-3.6405,-3.6405,-3.6405,-3.5223,-3.3871,-3.2644,-3.1173,-3.0214,-3.0068,-2.8645,-2.7767,-2.7718,-2.7295,-2.706,-2.7012,-2.6602,-2.6387,-2.6387,-2.5947,-2.5693,-2.5693,-2.5538,-2.4815,-4.8875,-4.8985,-4.9171,0.0,-5.0343,-5.0385,-5.0571,-5.0621,-5.0435,-4.9722,-4.9593,-4.9462,-4.9077,-4.9001,-4.9001,0.0,-4.9357,-4.9746,-5.005,-5.0828,-5.1488,-5.1809,-5.2266,-5.2367,-5.1894,-5.2553,-5.301,-5.301,-5.3315,-5.3501,-5.3501,-5.3501,-5.3501,-5.3501,-5.3501,-5.3501,-5.3501,-5.3044,-5.2807,-5.2807,-5.2384,-5.2164,-5.2164,-5.2164,-5.2164,-5.2148,-5.1682,-5.1479,-5.1411,-5.0441,-4.9795,-4.9229,-4.7817,-4.7176,-4.6997,-4.6473,-4.6501,-4.6696,-4.6384,-4.6247,-4.6142,-4.6142,-4.5948,-4.5723,-4.5723,-4.6007,-4.6204,-4.5843,-4.5422,-4.5229,-4.5508,-4.396,-4.2141,-4.1834,-4.0302,-3.8635,-3.7624,-3.6896,-3.6405,-3.6405,-3.6405,-3.6405,-3.6405,-3.6405,-3.6405,-3.6405,-3.6405,-3.6405,-3.6405,-3.6405,-3.6405,-3.6405,-3.5918,-3.5017,-3.3662,-3.2241,-3.1122,-3.0369,-2.8878,-2.8027,-2.8027,-2.7617,-2.7393,-2.7393,-2.6728,-2.6387,-2.6387,-2.5947,-2.5693,-2.5693,-2.5693,-2.5382,-4.9297,0.0,0.0,-5.0863,-5.085,-5.0667,-5.1243,-5.1241,-5.0876,-5.0157,-5.0004,-4.9792,-4.9138,-4.9001,-4.9069,-4.9272,-4.9746,-5.0236,-5.0642,-5.1623,-5.2384,-5.2604,-5.3145,-5.3281,-5.2689,-5.3162,-5.3501,-5.3501,-5.3501,-5.3501,-5.3501,-5.3501,-5.3501,-5.3501,-5.3281,-5.3179,-5.3179,-5.2401,-5.1995,-5.1995,-5.1471,-5.1185,-5.1185,-5.1185,-5.1071,-5.0808,-5.0527,-5.0258,-4.9935,-4.8959,-4.8562,-4.8384,-4.6811,-4.6318,-4.6398,-4.5909,-4.5888,-4.6022,-4.5828,-4.5559,-4.5289,-4.5289,-4.517,-4.502,-4.502,-4.5364,-4.5663,-4.517,-4.4583,-4.4166,-4.4531,-4.2952,-4.1307,-4.1633,-4.027,-3.8721,-3.799,-3.7207,-3.6593,-3.6443,-3.6405,-3.6405,-3.6405,-3.6405,-3.6405,-3.6405,-3.6405,-3.6405,-3.6405,-3.6405,-3.6405,-3.6405,-3.6405,-3.6013,-3.5017,-3.3662,-3.2292,-3.0916,-2.9495,-2.8529,-2.8178,-2.7598,-2.7366,-2.7366,-2.6582,-2.6211,-2.6211,-2.5889,-2.5693,-2.5693,-2.5693,-2.5693,0.0,0.0,-5.0929,-5.1754,-5.1981,-5.2029,-5.2071,-5.1569,-5.0876,-5.0157,-5.0004,-4.9792,-4.9138,-4.9001,-4.9238,-4.9949,-5.0084,-5.0591,-5.2029,-5.2266,-5.2587,-5.3365,-5.3501,-5.3501,0.0,-5.3501,-5.3501,-5.3501,-5.3501,-5.3501,-5.3501,-5.3501,-5.3501,-5.3501,-5.2739,-5.2334,-5.2334,-5.1606,-5.1219,-5.1219,-5.1202,-5.1185,-5.1185,-5.1185,-5.0693,-4.9781,-4.8796,-4.7876,-4.6967,-4.586,-4.5455,-4.538,-4.4668,-4.4777,-4.5256,-4.4601,-4.4781,-4.5229,-4.4601,-4.4781,-4.5289,-4.5289,-4.487,-4.4347,-4.4347,-4.4362,-4.4377,-4.4347,-4.4755,-4.5248,-4.5278,-4.3921,-4.2381,-4.1813,-4.027,-3.8606,-3.7473,-3.7209,-3.6998,-3.6518,-3.6405,-3.6405,-3.6405,-3.6405,-3.6405,-3.6405,-3.6405,-3.6405,-3.6405,-3.6405,-3.6405,-3.6405,-3.6405,-3.6358,-3.6358,-3.5126,-3.3723,-3.2331,-3.06,-2.9075,-2.779,-2.6875,-2.6426,-2.6426,-2.5986,-2.5703,-2.5703,-2.5693,-2.5693,-2.5693,-2.5693,-2.5693,0.0,0.0,-5.1052,-5.1869,-5.1748,-5.1544,-5.2,-5.1928,-5.1569,-5.0876,-5.1068,-5.1044,-4.9933,-5.011,-5.0532,-5.0805,-5.1251,-5.1725,-5.2232,-5.2756,-5.3196,-5.3467,-5.3501,0.0,0.0,0.0,0.0,-5.3501,-5.3501,-5.3501,-5.3501,-5.3501,-5.3264,-5.2723,-5.2959,-5.2841,-5.2317,-5.2063,-5.1944,-5.1928,-5.1454,-5.0947,-5.0473,-5.0473,-5.0027,-4.9251,-4.8893,-4.8246,-4.7284,-4.6313,-4.5523,-4.4878,-4.3972,-4.3753,-4.3932,-4.3708,-4.3768,-4.4018,-4.4242,-4.4182,-4.3947,-4.3947,-4.3798,-4.3618,-4.3618,-4.3932,-4.4227,-4.3738,-4.4137,-4.4646,-4.4646,-4.3838,-4.313,-4.3389,-4.1464,-3.9437,-3.9092,-3.7759,-3.6631,-3.6443,-3.6405,-3.6405,-3.6405,-3.6405,-3.6405,-3.6405,-3.6405,-3.6405,-3.6405,-3.6405,-3.6405,-3.6405,-3.6405,-3.6405,-3.6405,-3.5174,-3.3822,-3.2381,-3.0931,-2.9486,-2.8129,-2.7539,-2.71,-2.6807,-2.6387,-2.6025,-2.5693,-2.5693,-2.5693,-2.5693,-2.5693,-2.5693,0.0,-5.1247,-5.1474,-5.2291,-5.2172,-5.1964,-5.2381,-5.249,-5.2312,-5.1593,-5.2023,-5.2097,-5.0742,-5.1128,-5.1619,-5.16,-5.1775,-5.2097,-5.2655,-5.2942,-5.3179,-5.3467,-5.3501,-5.3501,0.0,0.0,0.0,-5.3501,-5.3501,-5.3501,-5.3501,-5.3501,-5.3264,-5.2756,-5.2959,-5.2824,-5.2317,-5.2046,-5.1911,-5.1911,-5.1437,-5.0963,-5.049,-5.049,-5.006,-4.9236,-4.866,-4.7868,-4.6894,-4.5676,-4.4803,-4.4182,-4.3551,-4.329,-4.329,-4.329,-4.329,-4.3349,-4.3768,-4.3648,-4.329,-4.329,-4.329,-4.329,-4.329,-4.3589,-4.3828,-4.3409,-4.3604,-4.3958,-4.3958,-4.3307,-4.2847,-4.3481,-4.1839,-4.0071,-3.9629,-3.8346,-3.7126,-3.6537,-3.6405,-3.6405,-3.6405,-3.6405,-3.6405,-3.6405,-3.6405,-3.6405,-3.6405,-3.6405,-3.6405,-3.6405,-3.6405,-3.6405,-3.6405,-3.5174,-3.3822,-3.2381,-3.1019,-2.9713,-2.8344,-2.7891,-2.7461,-2.7021,-2.6602,-2.6172,-2.5693,-2.5693,-2.5693,-2.5693,-2.5693,-2.5693,-5.1775,-5.2013,-5.2234,-5.3023,-5.3185,-5.3185,-5.3185,-5.3185,-5.2999,-5.2247,-5.2773,-5.2924,0.0,0.0,-5.2481,-5.236,-5.1791,-5.1843,-5.3298,-5.2841,-5.2638,0.0,0.0,0.0,0.0,0.0,0.0,-5.3551,0.0,-5.3518,-5.3551,-5.3518,-5.3501,-5.3501,-5.2756,-5.2334,-5.23,-5.1657,-5.1303,-5.1303,-5.1303,-5.1319,-5.1268,-5.1268,-5.0743,-4.9783,-4.812,-4.6892,-4.5903,-4.4128,-4.3374,-4.3349,-4.3305,-4.329,-4.329,-4.329,-4.329,-4.329,-4.329,-4.329,-4.329,-4.329,-4.329,-4.329,-4.329,-4.329,-4.329,-4.329,-4.329,-4.329,-4.329,-4.2508,-4.1787,-4.2251,-4.1549,-4.0388,-3.9157,-3.8833,-3.8363,-3.6729,-3.6405,-3.6405,-3.6405,-3.6405,-3.6405,-3.6405,-3.6405,-3.6405,-3.6405,-3.6405,-3.6405,-3.6405,-3.6405,-3.6405,-3.6405,-3.5223,-3.3871,-3.2381,-3.1133,-2.9765,-2.8344,-2.7891,-2.7461,-2.7021,-2.6602,-2.6172,-2.5693,-2.5693,-2.5693,-2.5693,-2.5693,-2.5693,-5.194,-5.2435,-5.2949,-5.3148,-5.3185,-5.3185,-5.3185,-5.3185,-5.2999,-5.2247,-5.3172,-5.3666,0.0,0.0,0.0,-5.3201,-5.2997,0.0,-5.345,-5.3331,0.0,-5.3484,0.0,-5.3501,-5.3501,-5.3501,0.0,0.0,-5.3805,-5.3737,-5.4279,-5.3805,-5.3501,-5.3501,-5.3298,-5.2909,-5.2317,-5.2723,-5.2926,-5.2926,-5.2926,-5.2604,-5.2029,-5.2029,-5.1577,-5.0759,-4.96,-4.8537,-4.7559,-4.5788,-4.468,-4.4018,-4.3484,-4.329,-4.329,-4.329,-4.329,-4.329,-4.329,-4.329,-4.329,-4.329,-4.329,-4.329,-4.329,-4.329,-4.329,-4.329,-4.329,-4.329,-4.329,-4.3076,-4.2673,-4.197,-4.1566,-4.0829,-3.8772,-3.8286,-3.7939,-3.6653,-3.6405,-3.6405,-3.6405,-3.6405,-3.6405,-3.6405,-3.6405,-3.6405,-3.6405,-3.6405,-3.6405,-3.6405,-3.6405,-3.6405,-3.6405,-3.6073,-3.4848,-3.2431,-3.1977,-3.0721,-2.8398,-2.7891,-2.7461,-2.7021,-2.6602,-2.6172,-2.5693,-2.5693,-2.5693,-2.5693,-2.5693,-2.5693,-5.2527,-5.2858,-5.3185,-5.3185,-5.3185,-5.3185,-5.3185,-5.3185,-5.3082,-5.2662,-5.3833,0.0,-5.2921,0.0,0.0,0.0,0.0,0.0,-5.345,-5.3196,-5.3112,0.0,-5.3501,0.0,-5.3501,-5.3788,-5.4143,0.0,-5.4211,-5.416,-5.4566,-5.4211,-5.3822,-5.3518,-5.3501,-5.3281,-5.2841,-5.3281,-5.3501,-5.3501,-5.3501,-5.3264,-5.2841,-5.2841,-5.2337,-5.1428,-5.0145,-4.8992,-4.7946,-4.6243,-4.5218,-4.4676,-4.4018,-4.3723,-4.3678,-4.3409,-4.329,-4.329,-4.329,-4.329,-4.329,-4.329,-4.329,-4.329,-4.329,-4.329,-4.329,-4.329,-4.329,-4.329,-4.329,-4.2941,-4.2371,-4.1767,-4.1211,-4.0347,-3.8501,-3.8107,-3.7756,-3.6628,-3.6405,-3.6405,-3.6405,-3.6405,-3.6405,-3.6405,-3.6405,-3.6405,-3.6405,-3.6405,-3.6405,-3.6405,-3.6405,-3.6405,-3.6405,-3.5858,-3.486,-3.3304,-3.209,-3.0773,-2.926,-2.8417,-2.7744,-2.7314,-2.707,-2.6641,-2.6025,-2.6025,-2.5879,-2.5693,-2.5693,-2.5693,-5.3185,-5.3185,-5.3185,-5.3185,-5.3185,-5.3185,-5.3185,-5.3185,-5.3185,-5.3185,0.0,-5.4979,-5.3476,-5.4462,-5.5051,-5.3622,0.0,-5.2702,-5.3399,-5.2909,-5.2723,-5.3416,-5.3501,-5.3551,-5.3636,-5.4211,-5.4668,-5.4871,-5.4786,-5.4735,-5.4735,-5.4634,-5.4262,-5.3518,-5.3501,-5.3501,-5.3501,-5.3501,-5.3501,-5.3501,-5.3501,-5.3501,-5.3501,-5.3501,-5.2904,-5.18,-5.0214,-4.8918,-4.7815,-4.612,-4.5424,-4.5364,-4.4706,-4.4392,-4.4242,-4.3633,-4.3364,-4.329,-4.329,-4.329,-4.329,-4.329,-4.329,-4.329,-4.329,-4.329,-4.329,-4.329,-4.329,-4.329,-4.329,-4.2548,-4.1809,-4.1629,-4.0831,-3.9754,-3.8379,-3.7984,-3.7586,-3.6581,-3.6405,-3.6405,-3.6405,-3.6405,-3.6405,-3.6405,-3.6405,-3.6405,-3.6405,-3.6405,-3.6405,-3.6405,-3.6405,-3.6405,-3.6405,-3.5319,-3.4581,-3.4434,-3.1988,-3.0473,-3.0317,-2.8946,-2.8037,-2.7728,-2.766,-2.7268,-2.6475,-2.6416,-2.6191,-2.5771,-2.5713,-2.5693,-5.3185,-5.3185,-5.3185,-5.3185,-5.3185,-5.3185,-5.3185,-5.3185,0.0,0.0,-5.3959,-5.4323,-5.3368,-5.4025,-5.4399,-5.347,0.0,0.0,0.0,0.0,-5.3348,0.0,0.0,0.0,0.0,0.0,0.0,0.0,-5.5869,-5.553,-5.553,-5.4921,-5.4262,-5.3518,-5.3501,-5.3501,-5.3501,-5.3501,-5.3501,-5.3501,-5.3501,-5.3501,-5.3501,-5.3501,-5.2904,-5.1832,-5.0725,-4.9623,-4.8486,-4.683,-4.6142,-4.6082,-4.5394,-4.4796,-4.4302,-4.4182,-4.3768,-4.329,-4.329,-4.329,-4.329,-4.329,-4.329,-4.329,-4.329,-4.329,-4.329,-4.329,-4.329,-4.329,-4.329,-4.3155,-4.2765,-4.1809,-4.1462,-4.0732,-3.8545,-3.7368,-3.6628,-3.6452,-3.6405,-3.6405,-3.6405,-3.6405,-3.6405,-3.6405,-3.6405,-3.6405,-3.6405,-3.6405,-3.6405,-3.6405,-3.6405,-3.6405,-3.6405,-3.6216,-3.5571,-3.4483,-3.2844,-3.148,-3.0369,-2.8717,-2.7796,-2.7718,-2.7314,-2.7051,-2.6904,-2.6562,-2.6348,-2.6269,-2.5908,-2.5693,-5.3185,-5.3185,-5.3185,-5.3185,-5.3185,-5.3185,-5.3185,0.0,0.0,0.0,-5.3849,-5.4161,-5.3353,0.0,0.0,0.0,0.0,0.0,0.0,0.0,0.0,0.0,0.0,0.0,0.0,0.0,-5.504,-5.6156,-5.5919,-5.5681,-5.5681,-5.4651,-5.3873,-5.3518,-5.3501,-5.3501,-5.3501,-5.3501,-5.3501,-5.3501,-5.3501,-5.3501,-5.3501,-5.3501,-5.2644,-5.108,-5.0589,-4.9512,-4.7973,-4.7149,-4.683,-4.677,-4.6097,-4.5633,-4.5274,-4.4571,-4.4122,-4.3753,-4.3409,-4.329,-4.329,-4.329,-4.329,-4.329,-4.329,-4.329,-4.329,-4.329,-4.329,-4.329,-4.329,-4.286,-4.229,-4.1726,-4.0675,-3.9464,-3.8334,-3.7196,-3.6405,-3.6405,-3.6405,-3.6405,-3.6405,-3.6405,-3.6405,-3.6405,-3.6405,-3.6405,-3.6405,-3.6405,-3.6405,-3.6405,-3.6405,-3.6405,-3.6405,-3.6405,-3.6121,-3.5475,-3.4154,-3.2794,-3.1378,-2.986,-2.8748,-2.8041,-2.7793,-2.7568,-2.7353,-2.7148,-2.6826,-2.6387,-2.6396,-2.6113,-5.3185,-5.3185,-5.3185,-5.3185,-5.3185,-5.3185,-5.3185,-5.3185,0.0,0.0,-5.3702,-5.3959,-5.3314,0.0,-5.522,0.0,0.0,0.0,0.0,0.0,0.0,0.0,0.0,0.0,0.0,0.0,0.0,-5.5886,-5.5649,-5.548,-5.548,-5.4228,-5.3501,-5.3501,-5.3501,-5.3501,-5.3501,-5.3501,-5.3501,-5.3501,-5.3501,-5.3501,-5.3501,-5.3264,-5.215,-5.0413,-5.0165,-4.9004,-4.7309,-4.7309,-4.7309,-4.7249,-4.6741,-4.6456,-4.6145,-4.514,-4.4571,-4.4242,-4.3678,-4.3409,-4.329,-4.329,-4.329,-4.329,-4.329,-4.329,-4.329,-4.329,-4.329,-4.325,-4.2981,-4.229,-4.1462,-4.0986,-3.9464,-3.8017,-3.7802,-3.7023,-3.6405,-3.6405,-3.6405,-3.6405,-3.6405,-3.6405,-3.6405,-3.6405,-3.6405,-3.6405,-3.6405,-3.6405,-3.6405,-3.6405,-3.6405,-3.6405,-3.6405,-3.6405,-3.6405,-3.6405,-3.5126,-3.3773,-3.2381,-3.1019,-2.966,-2.8344,-2.8291,-2.8125,-2.7855,-2.7767,-2.7327,-2.6533,-2.6768,-2.6514,-5.3185,-5.3185,-5.3185,-5.3185,-5.3185,-5.3185,-5.3185,0.0,0.0,-5.3185,-5.3259,-5.3277,-5.3203,-5.3934,-5.4519,0.0,0.0,-5.4523,0.0,0.0,0.0,0.0,0.0,0.0,0.0,0.0,0.0,-5.6596,-5.5463,-5.4685,-5.4685,-5.394,-5.3501,-5.3501,-5.3501,-5.3501,-5.3501,-5.3501,-5.3501,-5.3501,-5.3501,-5.3501,-5.3467,-5.247,-5.1431,-5.0358,-4.9376,-4.8335,-4.7309,-4.7309,-4.7309,-4.7294,-4.7234,-4.686,-4.6264,-4.6145,-4.5364,-4.4302,-4.4242,-4.3798,-4.329,-4.329,-4.329,-4.329,-4.329,-4.329,-4.329,-4.329,-4.329,-4.3076,-4.2029,-4.167,-4.107,-3.8934,-3.8243,-3.7802,-3.6803,-3.6452,-3.6405,-3.6405,-3.6405,-3.6405,-3.6405,-3.6405,-3.6405,-3.6405,-3.6405,-3.6405,-3.6405,-3.6405,-3.6405,-3.6405,-3.6405,-3.6405,-3.6405,-3.6405,-3.6405,-3.6405,-3.5126,-3.3773,-3.2381,-3.1019,-2.966,-2.8344,-2.8291,-2.8271,-2.8232,-2.7851,-2.7422,-2.6943,-2.6602,-2.6406,-5.3185,-5.3185,-5.3185,-5.3185,-5.3185,-5.3185,-5.3185,0.0,-5.3185,-5.3185,-5.3185,-5.3185,-5.3185,-5.3867,-5.4569,0.0,0.0,0.0,0.0,0.0,0.0,0.0,0.0,0.0,0.0,0.0,-5.4177,-5.4769,-5.4262,-5.394,-5.394,-5.367,-5.3501,-5.3501,-5.3501,-5.3501,-5.3501,-5.3501,-5.3501,-5.3501,-5.3501,-5.3501,-5.3501,-5.3076,-5.1974,-5.0374,-4.9931,-4.8815,0.0,-4.7309,-4.7309,-4.7309,-4.7309,-4.7145,-4.686,-4.6429,-4.5723,-4.484,-4.4451,-4.3843,-4.329,-4.329,-4.329,-4.329,-4.329,-4.329,-4.329,-4.329,-4.329,-4.321,-4.2725,-4.2111,-4.1378,-4.0419,-3.9112,-3.7984,-3.7494,-3.6883,-3.6405,-3.6405,-3.6405,-3.6405,-3.6405,-3.6405,-3.6405,-3.6405,-3.6405,-3.6405,-3.6405,-3.6405,-3.6405,-3.6405,-3.6405,-3.6405,-3.6405,-3.6405,-3.6405,-3.6405,-3.5918,-3.4605,-3.2381,-3.1785,-3.0463,-2.8344,-2.8291,-2.8291,-2.8291,-2.8125,-2.7685,-2.7012,-2.7109,-2.6885,-5.3185,-5.3185,-5.3185,-5.3185,-5.3185,-5.3185,0.0,0.0,-5.3185,-5.3185,-5.3185,-5.3185,-5.3185,-5.3867,-5.4656,0.0,0.0,-5.4765,0.0,0.0,0.0,0.0,0.0,0.0,0.0,-5.4126,-5.3737,-5.3518,-5.3501,-5.3501,-5.3501,-5.3501,-5.3501,-5.3501,-5.3501,-5.3501,-5.3501,-5.3501,-5.3501,-5.3501,-5.3501,-5.3501,-5.3501,-5.3179,-5.2205,-5.0817,-5.0204,-4.9085,0.0,-4.7424,-4.7309,-4.7309,-4.7309,-4.7309,-4.7249,-4.6785,-4.6052,-4.5229,-4.4766,-4.4047,-4.329,-4.329,-4.329,-4.329,-4.329,-4.3076,-4.2805,-4.2805,-4.2548,-4.2304,-4.2304,-4.142,-4.0462,-4.0161,-3.8801,-3.7586,-3.7586,-3.6977,-3.6405,-3.6405,-3.6405,-3.6405,-3.6405,-3.6405,-3.6405,-3.6405,-3.6405,-3.6405,-3.6405,-3.6405,-3.6405,-3.6405,-3.6405,-3.6405,-3.6405,-3.6405,-3.6405,-3.6405,-3.6405,-3.5355,-3.3005,-3.2894,-3.1633,-2.8953,-2.89,-2.8698,-2.8291,-2.8291,-2.792,-2.7217,-2.7529,-2.7395,-5.3185,-5.3185,-5.3185,-5.3185,-5.3185,-5.3185,0.0,0.0,-5.3185,-5.3185,-5.3185,-5.3185,-5.3185,-5.3867,-5.4656,-5.5464,-5.4975,0.0,0.0,0.0,0.0,0.0,0.0,0.0,-5.4448,-5.4583,-5.4279,-5.3551,-5.3501,0.0,-5.3501,-5.3501,-5.3501,-5.3501,-5.3501,-5.3501,-5.3501,-5.3501,-5.3501,-5.3501,-5.3501,-5.3501,-5.3467,-5.24,-5.1905,-5.176,-4.9718,-4.8784,0.0,-4.7722,-4.7309,-4.7309,-4.7309,-4.7309,-4.7309,-4.7294,-4.6441,-4.5289,-4.5289,-4.4421,-4.329,-4.329,-4.329,-4.329,-4.329,-4.2508,-4.1629,-4.1629,-4.0788,-3.9942,-3.9942,-3.905,-3.7848,-3.6709,-3.6452,-3.6405,-3.6405,-3.6405,-3.6405,-3.6405,-3.6405,-3.6405,-3.6405,-3.6405,-3.6405,-3.6405,-3.6405,-3.6405,-3.6405,-3.6405,-3.6405,-3.6405,-3.6405,-3.6405,-3.6405,-3.6405,-3.6405,-3.6405,-3.6405,-3.5763,-3.4434,-3.4385,-3.3116,-3.0317,-3.0266,-2.9608,-2.8291,-2.8291,-2.8076,-2.7708,-2.7718,-2.7718,-5.3185,-5.3185,-5.3185,-5.3185,-5.3185,-5.3185,-5.3185,0.0,-5.3185,-5.3185,-5.3185,-5.3185,-5.3185,-5.3427,-5.4014,-5.5372,-5.4525,0.0,0.0,0.0,0.0,0.0,0.0,0.0,0.0,0.0,-5.3162,-5.3484,-5.3501,-5.3501,-5.3501,-5.3501,-5.3501,-5.3501,-5.3501,-5.3501,-5.3501,-5.3501,-5.3501,-5.3501,-5.3501,-5.3501,-5.3501,-5.3144,-5.2592,-5.1849,-5.0458,-4.9496,-4.8702,-4.7722,-4.7309,-4.7309,-4.7309,-4.7309,-4.7249,-4.68,-4.6067,-4.5229,-4.4781,-4.4062,-4.329,-4.329,-4.329,-4.329,-4.329,-4.2508,-4.142,-4.0661,-4.0202,-3.9899,-3.9899,-3.9006,-3.8198,-3.8662,-3.7566,-3.6628,-3.7368,-3.693,-3.6405,-3.6405,-3.6405,-3.6405,-3.6405,-3.6405,-3.6405,-3.6405,-3.6405,-3.6405,-3.6405,-3.6405,-3.6405,-3.6405,-3.6405,-3.6405,-3.6405,-3.6405,-3.6405,-3.6405,-3.6405,-3.581,-3.4434,-3.4385,-3.3514,-3.1673,-3.0773,-3.0068,-2.966,-2.8751,-2.8076,-2.7718,-2.7718,-2.7718,0.0,-5.3185,-5.3185,-5.3185,-5.3185,0.0,0.0,0.0,-5.3185,-5.3185,-5.3185,-5.3185,-5.3185,-5.3185,-5.3524,-5.4569,-5.3684,0.0,0.0,0.0,0.0,0.0,0.0,0.0,0.0,-5.2147,-5.2638,-5.345,-5.3501,-5.3501,-5.3501,-5.3501,-5.3501,-5.3501,-5.3501,-5.3501,-5.3501,-5.3501,-5.3501,-5.3501,-5.3501,-5.3501,-5.3501,-5.3501,-5.2904,-5.1832,-5.0817,-4.9773,0.0,-4.7722,-4.7309,-4.7309,-4.7309,-4.7309,-4.7234,-4.6576,-4.5888,-4.52,-4.4541,-4.3843,-4.329,-4.329,-4.329,-4.321,-4.2805,-4.1864,-4.0788,-4.0116,-3.9579,-3.9227,-3.9227,-3.8649,-3.8289,-3.905,-3.8075,-3.7243,-3.7939,-3.754,-3.6883,-3.6499,-3.6405,-3.6405,-3.6405,-3.6405,-3.6405,-3.6405,-3.6405,-3.6405,-3.6405,-3.6405,-3.6405,-3.6405,-3.6405,-3.6405,-3.6405,-3.6405,-3.6405,-3.6405,-3.6405,-3.6013,-3.5174,-3.5174,-3.452,-3.3105,-3.2241,-3.1338,-3.0317,-2.8953,-2.8154,-2.791,-2.791,-2.7875,0.0,0.0,0.0,0.0,0.0,0.0,0.0,0.0,0.0,-5.3185,-5.3185,-5.3185,-5.3185,-5.3185,-5.3215,-5.3278,-5.2697,0.0,0.0,0.0,0.0,0.0,0.0,0.0,-5.1133,-5.1792,-5.2553,-5.3365,-5.3467,-5.3501,-5.3501,-5.345,-5.3416,-5.3416,-5.3365,-5.3399,-5.3501,-5.3501,-5.3501,-5.3501,-5.3501,-5.3501,-5.3501,-5.3501,-5.2904,0.0,-5.0817,-4.9773,-4.8702,-4.7722,-4.7309,-4.7309,-4.7309,-4.7279,-4.716,-4.6501,-4.5813,-4.5125,-4.4466,-4.3798,-4.329,-4.329,-4.329,-4.3115,-4.2029,-4.0916,-3.9986,-3.9812,-3.8961,-3.8062,-3.7984,-3.7984,-3.7984,-3.8062,-3.8017,-3.7984,-3.8062,-3.8017,-3.7678,-3.6628,-3.6405,-3.6405,-3.6405,-3.6405,-3.6405,-3.6405,-3.6405,-3.6405,-3.6405,-3.6405,-3.6405,-3.6405,-3.6405,-3.6405,-3.6405,-3.6405,-3.6405,-3.6405,-3.6405,-3.6405,-3.6405,-3.6405,-3.581,-3.4581,-3.4337,-3.2955,-3.0317,-2.8953,-2.8291,-2.8291,-2.8291,-2.8086,-5.3185,0.0,-5.3185,-5.3185,-5.3185,0.0,0.0,0.0,0.0,0.0,0.0,0.0,0.0,-5.3185,-5.3215,-5.3278,-5.2697,-5.2056,-5.161,0.0,0.0,0.0,-4.9407,-4.9746,-5.0287,-5.1031,-5.1775,-5.2536,-5.3162,-5.3501,-5.3501,-5.2926,-5.2587,-5.2587,-5.2046,-5.2317,-5.3501,-5.3501,-5.3501,-5.3501,-5.3501,-5.3501,-5.3501,-5.3501,-5.2904,-5.1832,-5.0817,-4.9773,-4.8702,-4.7722,-4.7309,-4.7309,-4.7309,-4.6995,-4.6429,-4.5783,-4.511,-4.4451,-4.3753,-4.3424,-4.329,-4.329,-4.329,-4.325,-4.2981,-4.2111,-4.0817,-3.9036,-3.8334,-3.7893,-3.7023,-3.6803,-3.7023,-3.7893,-3.7415,-3.7023,-3.7893,-3.7415,-3.6709,-3.6452,-3.6405,-3.6405,-3.6405,-3.6405,-3.6405,-3.6405,-3.6405,-3.6405,-3.6405,-3.6405,-3.6405,-3.6405,-3.6405,-3.6405,-3.6405,-3.6405,-3.6405,-3.6405,-3.6405,-3.6405,-3.6405,-3.6405,-3.6263,-3.5918,-3.3848,-3.1988,-3.0317,-2.8953,-2.8291,-2.8291,-2.8291,-2.8242,-5.2809,-5.2937,-5.3185,-5.3185,-5.3185,-5.3185,0.0,0.0,0.0,0.0,0.0,0.0,0.0,0.0,0.0,-5.2339,-5.1679,0.0,0.0,0.0,0.0,0.0,-4.9001,-4.9289,0.0,-5.0456,-5.1014,-5.1742,-5.2215,-5.2452,-5.2452,-5.2046,-5.1809,-5.1809,-5.142,-5.1591,-5.2452,-5.2452,-5.2452,-5.2452,-5.2452,-5.2621,-5.2909,-5.247,-5.1891,-5.1155,-5.0126,-4.8898,-4.76,-4.7087,-4.6666,-4.6381,-4.6381,-4.6157,-4.5768,-4.5095,-4.4616,-4.4212,-4.3529,-4.329,-4.329,-4.329,-4.329,-4.329,-4.329,-4.286,-4.2029,-4.0204,-3.9332,-3.8649,-3.7507,-3.7196,-3.7322,-3.7939,-3.7632,-3.7368,-3.7984,-3.7632,-3.7023,-3.6499,-3.6405,-3.6405,-3.6405,-3.6405,-3.6405,-3.6405,-3.6405,-3.6405,-3.6405,-3.6405,-3.6405,-3.6405,-3.6405,-3.6405,-3.6405,-3.6405,-3.6405,-3.6405,-3.6405,-3.6405,-3.6405,-3.6405,-3.6405,-3.6405,-3.435,-3.2593,-3.1224,-2.9859,-2.89,-2.8291,-2.8291,-2.8193,-5.2445,-5.2707,-5.3185,-5.3185,-5.3185,-5.3185,0.0,0.0,0.0,0.0,0.0,0.0,0.0,0.0,0.0,0.0,0.0,0.0,0.0,0.0,0.0,-4.9001,-4.9001,0.0,-4.9864,-5.0016,-5.0355,-5.0997,-5.115,-5.1185,-5.1185,-5.1099,-5.1048,-5.1048,-5.093,-5.0879,-5.0879,-5.1099,-5.1185,-5.1185,-5.1185,-5.1539,-5.2098,-5.1242,-5.0589,-5.0039,-4.9102,0.0,-4.6172,-4.6172,-4.5813,-4.5289,-4.5289,-4.5229,-4.508,-4.4526,-4.4257,-4.4092,-4.3484,-4.329,-4.329,-4.329,-4.329,-4.329,-4.329,-4.329,-4.3115,-4.2111,-4.1042,-3.9885,-3.8693,-3.8243,-3.8107,-3.8107,-3.7984,-3.7848,-3.7848,-3.7848,-3.754,-3.6581,-3.6405,-3.6405,-3.6405,-3.6405,-3.6405,-3.6405,-3.6405,-3.6405,-3.6405,-3.6405,-3.6405,-3.6405,-3.6405,-3.6405,-3.6405,-3.6405,-3.6405,-3.6405,-3.6405,-3.6405,-3.6405,-3.6405,-3.6405,-3.6405,-3.5078,-3.3822,-3.2644,-3.1071,-2.9713,-2.8601,-2.8398,-2.8105,-5.306,-5.3103,-5.3185,-5.3185,-5.3185,-5.3185,0.0,0.0,0.0,0.0,0.0,0.0,0.0,0.0,0.0,0.0,0.0,-4.9107,0.0,0.0,-4.9001,-4.9001,0.0,-4.9035,-4.9171,-4.9729,-5.0135,-5.0253,-5.0862,-5.1185,-5.1185,-5.0608,-5.027,-5.027,-4.9661,-4.934,-4.934,-5.0591,-5.1185,-5.1185,-5.1185,-5.1268,-5.1354,-5.1207,-5.0236,-4.8605,0.0,-4.7279,-4.5454,-4.5454,-4.5394,-4.5289,-4.5289,-4.4945,-4.4451,-4.4347,-4.3958,-4.3424,-4.3334,-4.329,-4.329,-4.329,-4.329,-4.329,-4.329,-4.329,-4.325,-4.3076,-4.2208,-4.1085,-3.9929,-3.8872,-3.8107,-3.8107,-3.7368,-3.6675,-3.6675,-3.6675,-3.6628,-3.6452,-3.6405,-3.6405,-3.6405,-3.6405,-3.6405,-3.6405,-3.6405,-3.6405,-3.6405,-3.6405,-3.6405,-3.6405,-3.6405,-3.6405,-3.6405,-3.6405,-3.6405,-3.6405,-3.6405,-3.6405,-3.6405,-3.6405,-3.6405,-3.6405,-3.5078,-3.4276,-3.408,-3.1531,-3.0214,-2.9964,-2.8857,-2.8262,-5.2707,-5.2893,-5.3185,-5.3185,-5.3185,-5.3185,-5.3185,0.0,0.0,0.0,0.0,0.0,0.0,0.0,0.0,0.0,0.0,-4.9001,-4.9001,-4.9001,-4.9001,0.0,0.0,-4.9001,-4.9001,-4.9306,-4.9509,-4.9509,-4.983,-5.0016,-5.0016,-4.9695,-4.9509,-4.9509,-4.9187,-4.9001,-4.9001,-4.9678,-5.0016,-5.0016,-5.0016,-5.0219,-5.0576,-5.004,-4.923,-4.8248,0.0,-4.6437,-4.4766,-4.4766,-4.4556,-4.4242,-4.4242,-4.4047,-4.3738,-4.3738,-4.3544,-4.329,-4.329,-4.329,-4.329,-4.329,-4.329,-4.329,-4.329,-4.329,-4.329,-4.329,-4.29,-4.2249,-4.1127,-4.0433,-3.9669,-3.8411,-3.7723,-3.715,-3.6534,-3.6405,-3.6405,-3.6405,-3.6405,-3.6405,-3.6405,-3.6405,-3.6405,-3.6405,-3.6405,-3.6405,-3.6405,-3.6405,-3.6405,-3.6405,-3.6405,-3.6405,-3.6405,-3.6405,-3.6405,-3.6405,-3.6405,-3.6405,-3.6405,-3.6405,-3.6405,-3.6405,-3.581,-3.5126,-3.4385,-3.3116,-3.1735,-3.0266,-2.966,-2.9006,-5.2513,-5.2769,-5.3185,-5.3185,0.0,-5.3185,-5.3185,0.0,0.0,0.0,0.0,0.0,0.0,0.0,0.0,0.0,-4.9001,-4.9001,-4.9001,-4.9001,-4.9001,-4.9001,-4.9001,-4.9001,-4.9001,-4.9001,-4.9001,-4.9001,-4.9001,-4.9001,-4.9001,-4.9001,-4.9001,-4.9001,-4.9001,-4.9001,-4.9001,-4.9001,-4.9001,-4.9001,-4.9001,-4.9306,-4.9799,-4.9059,-4.8505,-4.8079,-4.7048,-4.5765,-4.4383,-4.4158,-4.3738,-4.329,-4.329,-4.329,-4.329,-4.329,-4.329,-4.329,-4.329,-4.329,-4.329,-4.329,-4.329,-4.329,-4.329,-4.329,-4.329,-4.329,-4.329,-4.3115,-4.2208,-4.1809,-4.1155,-3.9332,-3.8725,-3.8289,-3.7428,-3.6977,-3.6803,-3.6803,-3.6581,-3.6405,-3.6405,-3.6405,-3.6405,-3.6405,-3.6405,-3.6405,-3.6405,-3.6405,-3.6405,-3.6405,-3.6405,-3.6405,-3.6405,-3.6405,-3.6405,-3.6405,-3.6405,-3.6405,-3.6405,-3.6405,-3.6405,-3.6405,-3.6405,-3.5918,-3.4884,-3.4532,-3.3315,-3.1224,-3.0628,-2.9765,-5.3143,-5.3164,-5.3185,-5.3185,0.0,0.0,-5.3185,-5.3185,0.0,0.0,0.0,0.0,0.0,0.0,0.0,-4.9032,-4.9001,-4.9001,-4.9001,0.0,-4.9001,-4.9001,-4.9001,-4.9001,-4.9001,-4.9001,-4.9001,-4.9001,-4.9001,-4.9001,-4.9001,-4.9001,-4.9001,-4.9001,-4.9001,-4.9001,-4.9001,-4.9001,-4.9001,-4.9001,-4.9001,-4.9035,-4.9086,-4.9007,-4.847,-4.7604,-4.6649,-4.5687,-4.4701,-4.3769,-4.3334,-4.329,-4.329,-4.329,-4.329,-4.329,-4.329,-4.329,-4.329,-4.329,-4.329,-4.329,-4.329,-4.329,-4.329,-4.329,-4.329,-4.329,-4.329,-4.329,-4.321,-4.2371,-4.1545,-4.1378,-4.0532,-3.9768,-3.9681,-3.8783,-3.7984,-3.7984,-3.7103,-3.6405,-3.6405,-3.6405,-3.6405,-3.6405,-3.6405,-3.6405,-3.6405,-3.6405,-3.6405,-3.6405,-3.6405,-3.6405,-3.6405,-3.6405,-3.6405,-3.6405,-3.6405,-3.6405,-3.6405,-3.6405,-3.6405,-3.6405,-3.6405,-3.6358,-3.6263,-3.503,-3.4288,-3.403,-3.1491,-3.0266,-5.3082,-5.3185,-5.3185,-5.3185,0.0,0.0,0.0,0.0,0.0,0.0,0.0,0.0,0.0,0.0,0.0,-4.9001,-4.9001,-4.9001,-4.9001,-4.9001,-4.9001,-4.9001,-4.9001,-4.9001,-4.9001,-4.9001,-4.9001,-4.9001,-4.9001,-4.9001,-4.9001,-4.9001,-4.9001,-4.9001,-4.9001,-4.9001,-4.9001,-4.9001,-4.9001,-4.9001,-4.9001,-4.9001,-4.9001,-4.9001,-4.8482,-4.7556,-4.6609,-4.567,-4.4737,-4.3693,-4.329,-4.329,-4.329,-4.329,-4.329,-4.329,-4.329,-4.329,-4.329,-4.329,-4.329,-4.329,-4.329,-4.329,-4.329,-4.329,-4.329,-4.329,-4.329,-4.329,-4.329,-4.2981,-4.2467,-4.1767,-4.1253,-4.0746,-4.0073,-3.8961,-3.8107,-3.8107,-3.7196,-3.6405,-3.6405,-3.6405,-3.6405,-3.6405,-3.6405,-3.6405,-3.6405,-3.6405,-3.6405,-3.6405,-3.6405,-3.6405,-3.6405,-3.6405,-3.6405,-3.6405,-3.6405,-3.6405,-3.6405,-3.6405,-3.6405,-3.6405,-3.6405,-3.6405,-3.6405,-3.5918,-3.5223,-3.4337,-3.2443,-3.1122,-5.2999,-5.3185,-5.3185,0.0,0.0,0.0,0.0,0.0,0.0,0.0,0.0,0.0,0.0,0.0,0.0,0.0,-4.9001,-4.9001,-4.9001,-4.9001,-4.9001,-4.9001,-4.9001,-4.9001,-4.9001,-4.9001,-4.9001,-4.9001,-4.9001,-4.9001,-4.9001,-4.9001,-4.9001,-4.9001,-4.9001,-4.9001,-4.9001,-4.9001,-4.9001,-4.9001,-4.9001,-4.9001,-4.9001,-4.9001,-4.8656,-4.7982,-4.6747,-4.5834,-4.5153,-4.3834,-4.329,-4.329,-4.329,-4.329,-4.329,-4.329,-4.329,-4.329,-4.329,-4.329,-4.329,-4.329,-4.329,-4.329,-4.329,-4.329,-4.329,-4.329,-4.329,-4.329,-4.329,-4.329,-4.3115,-4.233,-4.2152,-4.1906,-4.1141,-4.0045,-3.9112,-3.8738,-3.7723,-3.6803,-3.6452,-3.6405,-3.6405,-3.6405,-3.6405,-3.6405,-3.6405,-3.6405,-3.6405,-3.6405,-3.6405,-3.6405,-3.6405,-3.6405,-3.6405,-3.6405,-3.6405,-3.6405,-3.6405,-3.6405,-3.6405,-3.6405,-3.6405,-3.6405,-3.6405,-3.6405,-3.5918,-3.4981,-3.3601,-3.2493,-5.2999,-5.3185,0.0,0.0,0.0,0.0,0.0,0.0,0.0,0.0,0.0,0.0,0.0,0.0,0.0,-4.9001,-4.9001,-4.9001,-4.9001,-4.9001,-4.9001,-4.9001,-4.9001,-4.9001,-4.9001,-4.9001,-4.9001,-4.9001,-4.9001,-4.9001,-4.9001,-4.9001,-4.9001,-4.9001,-4.9001,-4.9001,-4.9001,-4.9001,-4.9001,-4.9001,-4.9001,-4.9001,-4.9001,-4.9001,-4.9001,-4.8909,-4.7036,-4.6208,-4.6032,-4.4113,-4.329,-4.329,-4.329,-4.329,-4.329,-4.329,-4.329,-4.329,-4.329,-4.329,-4.329,-4.329,-4.329,-4.329,-4.329,-4.329,-4.329,-4.329,-4.329,-4.329,-4.329,-4.329,-4.329,-4.329,-4.329,-4.329,-4.329,-4.2412,-4.1253,-4.0116,-3.8917,-3.7769,-3.6628,-3.6452,-3.6452,-3.6405,-3.6405,-3.6405,-3.6405,-3.6405,-3.6405,-3.6405,-3.6405,-3.6405,-3.6405,-3.6405,-3.6405,-3.6405,-3.6405,-3.6405,-3.6405,-3.6405,-3.6405,-3.6405,-3.6405,-3.6405,-3.6405,-3.6405,-3.6405,-3.6358,-3.5017,-3.4385,-5.2999,0.0,0.0,0.0,0.0,0.0,0.0,0.0,0.0,0.0,0.0,0.0,-4.9138,0.0,0.0,-4.9001,-4.9001,-4.9001,-4.9001,-4.9001,-4.9001,-4.9001,-4.9001,-4.9001,-4.9001,-4.9001,-4.9001,-4.9001,-4.9001,-4.9001,-4.9001,-4.9001,-4.9001,-4.9001,-4.9001,-4.9001,-4.9001,-4.9001,-4.9001,-4.9001,-4.9001,-4.9001,-4.9001,-4.9001,-4.9001,-4.8909,-4.7036,-4.6208,-4.6032,-4.4113,-4.329,-4.329,-4.329,-4.329,-4.329,-4.329,-4.329,-4.329,-4.329,-4.329,-4.329,-4.329,-4.329,-4.329,-4.329,-4.329,-4.329,-4.329,-4.329,-4.329,-4.329,-4.329,-4.329,-4.329,-4.329,-4.329,-4.329,-4.2412,-4.1253,-4.0116,-3.9623,-3.9006,-3.7815,-3.8302,-3.8572,-3.7723,-3.7586,-3.7322,-3.6499,-3.6405,-3.6405,-3.6405,-3.6405,-3.6405,-3.6405,-3.6405,-3.6405,-3.6405,-3.6405,-3.6405,-3.6405,-3.6405,-3.6405,-3.6405,-3.6405,-3.6405,-3.6405,-3.6405,-3.6405,-3.6358,-3.5017,-3.4385,-5.2172,0.0,0.0,0.0,0.0,0.0,0.0,0.0,0.0,0.0,0.0,0.0,-4.9077,-4.9001,0.0,-4.9001,-4.9001,-4.9001,-4.9001,-4.9001,-4.9001,-4.9001,-4.9001,-4.9001,-4.9001,-4.9001,-4.9001,-4.9001,-4.9001,-4.9001,-4.9001,-4.9001,-4.9001,-4.9001,-4.9001,-4.9001,-4.9001,-4.9001,-4.9001,-4.9001,-4.9001,-4.9001,-4.9001,-4.9001,-4.8798,-4.8338,-4.647,-4.5416,-4.4974,-4.3795,-4.329,-4.329,-4.329,-4.329,-4.329,-4.329,-4.329,-4.329,-4.329,-4.329,-4.329,-4.329,-4.329,-4.329,-4.329,-4.329,-4.329,-4.329,-4.329,-4.329,-4.329,-4.329,-4.329,-4.329,-4.329,-4.329,-4.329,-4.2765,-4.1823,-4.0202,-4.0275,-4.0045,-3.8379,-3.9094,-3.9492,-3.8289,-3.7723,-3.7196,-3.6499,-3.6405,-3.6405,-3.6405,-3.6405,-3.6405,-3.6405,-3.6405,-3.6405,-3.6405,-3.6405,-3.6405,-3.6405,-3.6405,-3.6405,-3.6405,-3.6405,-3.6405,-3.6405,-3.6405,-3.6405,-3.6358,-3.5571,-3.5174,0.0,0.0,0.0,0.0,0.0,0.0,0.0,0.0,0.0,0.0,0.0,-4.9001,-4.9001,-4.9001,-4.9001,-4.9001,-4.9001,-4.9001,-4.9001,-4.9001,-4.9001,-4.9001,-4.9001,-4.9001,-4.9001,-4.9001,-4.9001,-4.9001,-4.9001,-4.9001,-4.9001,-4.9001,-4.9001,-4.9001,-4.9001,-4.9001,-4.9001,-4.9001,-4.9001,-4.9001,-4.9001,-4.9001,-4.9001,-4.9001,-4.8433,-4.7373,-4.567,-4.432,-4.329,-4.329,-4.329,-4.329,-4.329,-4.329,-4.329,-4.329,-4.329,-4.329,-4.329,-4.329,-4.329,-4.329,-4.329,-4.329,-4.329,-4.329,-4.329,-4.329,-4.329,-4.329,-4.329,-4.329,-4.329,-4.329,-4.329,-4.329,-4.329,-4.329,-4.2644,-4.0504,-4.0958,-4.1028,-3.8801,-3.939,-3.9754,-3.8469,-3.7196,-3.6405,-3.6405,-3.6405,-3.6405,-3.6405,-3.6405,-3.6405,-3.6405,-3.6405,-3.6405,-3.6405,-3.6405,-3.6405,-3.6405,-3.6405,-3.6405,-3.6405,-3.6405,-3.6405,-3.6405,-3.6405,-3.6405,-3.6405,-3.6405,-3.6405,0.0,0.0,0.0,0.0,0.0,0.0,0.0,0.0,0.0,0.0,0.0,-4.9001,-4.9001,-4.9001,-4.9001,-4.9001,-4.9001,-4.9001,-4.9001,-4.9001,-4.9001,-4.9001,-4.9001,-4.9001,-4.9001,-4.9001,-4.9001,-4.9001,-4.9001,-4.9001,-4.9001,-4.9001,-4.9001,-4.9001,-4.9001,-4.9001,-4.9001,-4.9001,-4.9001,-4.9001,-4.9001,-4.9001,-4.9001,-4.9001,-4.8096,-4.6488,-4.6067,-4.4899,-4.329,-4.329,-4.329,-4.329,-4.329,-4.329,-4.329,-4.329,-4.329,-4.329,-4.329,-4.329,-4.329,-4.329,-4.329,-4.329,-4.329,-4.329,-4.329,-4.329,-4.329,-4.329,-4.329,-4.329,-4.329,-4.329,-4.329,-4.329,-4.329,-4.329,-4.29,-4.1518,-4.2167,-4.2508,-4.1112,-4.1809,-4.1864,-3.9842,-3.7736,-3.6405,-3.6405,-3.6405,-3.6405,-3.6405,-3.6405,-3.6405,-3.6405,-3.6405,-3.6405,-3.6405,-3.6405,-3.6405,-3.6405,-3.6405,-3.6405,-3.6405,-3.6405,-3.6405,-3.6405,-3.6405,-3.6405,-3.6405,-3.6405,-3.6405,0.0,0.0,0.0,0.0,0.0,0.0,0.0,0.0,0.0,0.0,0.0,-4.9001,-4.9001,-4.9001,-4.9001,-4.9001,-4.9001,-4.9001,-4.9001,-4.9001,-4.9001,-4.9001,-4.9001,-4.9001,-4.9001,-4.9001,-4.9001,-4.9001,-4.9001,-4.9001,-4.9001,-4.9001,-4.9001,-4.9001,-4.9001,-4.9001,-4.9001,-4.9001,-4.9001,-4.9001,-4.9001,-4.9001,-4.897,-4.8545,-4.7803,-4.6815,-4.5905,-4.4952,-4.3989,-4.3488,-4.329,-4.329,-4.329,-4.329,-4.329,-4.329,-4.329,-4.329,-4.329,-4.329,-4.329,-4.329,-4.329,-4.329,-4.329,-4.329,-4.329,-4.329,-4.329,-4.329,-4.329,-4.329,-4.329,-4.329,-4.329,-4.329,-4.329,-4.329,-4.2941,-4.1809,-4.2508,-4.2941,-4.1809,-4.1643,-4.1267,-4.0073,-3.7906,-3.6405,-3.6405,-3.6405,-3.6405,-3.6405,-3.6405,-3.6405,-3.6405,-3.6405,-3.6405,-3.6405,-3.6405,-3.6405,-3.6405,-3.6405,-3.6405,-3.6405,-3.6405,-3.6405,-3.6405,-3.6405,-3.6405,-3.6405,-3.6405,-3.6405,0.0,0.0,0.0,0.0,0.0,0.0,0.0,0.0,0.0,0.0,-4.9001,-4.9001,-4.9001,-4.9001,-4.9001,-4.9001,-4.9001,-4.9001,-4.9001,-4.9001,-4.9001,-4.9001,-4.9001,-4.9001,-4.9001,-4.9001,-4.9001,-4.9001,-4.9001,-4.9001,-4.9001,-4.9001,-4.9001,-4.9001,-4.9001,-4.9001,-4.9001,-4.9001,-4.9001,-4.9001,-4.9001,-4.9001,-4.897,-4.8193,-4.7655,-4.7273,-4.5541,-4.4699,-4.4488,-4.363,-4.329,-4.329,-4.329,-4.329,-4.329,-4.329,-4.329,-4.329,-4.329,-4.329,-4.329,-4.329,-4.329,-4.329,-4.329,-4.329,-4.329,-4.329,-4.329,-4.329,-4.329,-4.329,-4.329,-4.329,-4.329,-4.329,-4.329,-4.329,-4.3036,-4.207,-4.2644,-4.2981,-4.207,-4.0788,-3.9986,-4.0145,-3.8211,-3.6675,-3.6675,-3.6896,-3.6849,-3.6452,-3.6581,-3.6628,-3.6405,-3.6405,-3.6405,-3.6405,-3.6405,-3.6405,-3.6405,-3.6405,-3.6405,-3.6405,-3.6405,-3.6405,-3.6405,-3.6405,-3.6405,-3.6405,-3.6405,-3.6405,0.0,0.0,0.0,0.0,0.0,0.0,0.0,0.0,0.0,0.0,-4.9001,-4.9001,-4.9001,-4.9001,-4.9001,-4.9001,-4.9001,-4.9001,-4.9001,-4.9001,-4.9001,-4.9001,-4.9001,-4.9001,-4.9001,-4.9001,-4.9001,-4.9001,-4.9001,-4.9001,-4.9001,-4.9001,-4.9001,-4.9001,-4.9001,-4.9001,-4.9001,-4.9001,-4.9001,-4.9001,-4.9001,-4.9001,-4.9001,-4.8861,-4.7933,-4.6314,-4.5248,-4.4297,-4.3472,-4.3369,-4.329,-4.329,-4.329,-4.329,-4.329,-4.329,-4.329,-4.329,-4.329,-4.329,-4.329,-4.329,-4.329,-4.329,-4.329,-4.329,-4.329,-4.329,-4.329,-4.329,-4.329,-4.329,-4.329,-4.329,-4.329,-4.329,-4.329,-4.329,-4.325,-4.3115,-4.321,-4.325,-4.3115,-4.1309,-4.0246,-4.1211,-3.9376,-3.7848,-3.7848,-3.8783,-3.8662,-3.6628,-3.7276,-3.7461,-3.6499,-3.6405,-3.6405,-3.6405,-3.6405,-3.6405,-3.6405,-3.6405,-3.6405,-3.6405,-3.6405,-3.6405,-3.6405,-3.6405,-3.6405,-3.6405,-3.6405,-3.6405,0.0,0.0,0.0,0.0,0.0,0.0,0.0,0.0,0.0,-4.9622,-4.9256,-4.9001,-4.9001,-4.9001,-4.9001,-4.9001,-4.9001,-4.9001,-4.9001,-4.9001,-4.9001,-4.9001,-4.9001,-4.9001,-4.9001,-4.9001,-4.9001,-4.9001,-4.9001,-4.9001,-4.9001,-4.9001,-4.9001,-4.9001,-4.9001,-4.9001,-4.9001,-4.9001,-4.9001,-4.9001,-4.9001,-4.9001,-4.897,-4.8482,-4.777,-4.6918,-4.5977,-4.5042,-4.4105,-4.3512,-4.329,-4.329,-4.329,-4.329,-4.329,-4.329,-4.329,-4.329,-4.329,-4.329,-4.329,-4.329,-4.329,-4.329,-4.329,-4.329,-4.329,-4.329,-4.329,-4.329,-4.329,-4.329,-4.329,-4.329,-4.329,-4.329,-4.329,-4.329,-4.329,-4.329,-4.329,-4.329,-4.329,-4.1407,-4.0275,-4.142,-3.9596,-3.8334,-3.9006,-3.9579,-3.9241,-3.754,-3.7802,-3.7632,-3.6499,-3.6405,-3.6405,-3.6405,-3.6405,-3.6405,-3.6405,-3.6405,-3.6405,-3.6405,-3.6405,-3.6405,-3.6405,-3.6405,-3.6405,-3.6405,-3.6405,-3.6405,0.0,0.0,0.0,0.0,0.0,0.0,0.0,0.0,0.0,0.0,-4.9879,-4.9479,-4.9286,-4.9107,-4.9001,-4.9001,-4.9001,-4.9001,-4.9001,-4.9001,-4.9001,-4.9001,-4.9001,-4.9001,-4.9001,-4.9001,-4.9001,-4.9001,-4.9001,-4.9001,-4.9001,-4.9001,-4.9001,-4.9001,-4.9001,-4.9001,-4.9001,-4.9001,-4.9001,-4.9001,-4.9001,-4.9001,-4.897,-4.8274,-4.7836,-4.7506,-4.6365,-4.5468,-4.4737,-4.3693,-4.329,-4.329,-4.329,-4.329,-4.329,-4.329,-4.329,-4.329,-4.329,-4.329,-4.329,-4.329,-4.329,-4.329,-4.329,-4.329,-4.329,-4.329,-4.329,-4.329,-4.329,-4.329,-4.329,-4.329,-4.329,-4.329,-4.329,-4.329,-4.329,-4.329,-4.329,-4.329,-4.329,-4.1657,-4.0703,-4.185,-4.029,-3.9288,-4.0232,-4.0575,-4.0102,-3.8289,-3.8379,-3.7984,-3.6546,-3.6405,-3.6405,-3.6405,-3.6405,-3.6405,-3.6405,-3.6405,-3.6405,-3.6405,-3.6405,-3.6405,-3.6405,-3.6405,-3.6405,-3.6405,-3.6405,-3.6405,0.0,0.0,0.0,0.0,0.0,0.0,0.0,0.0,0.0,0.0,-5.1008,-5.077,-5.009,-4.9449,-4.9001,-4.9001,-4.9001,-4.9001,-4.9001,-4.9001,-4.9001,-4.9001,-4.9001,-4.9001,-4.9001,-4.9001,-4.9001,-4.9001,-4.9001,-4.9001,-4.9001,-4.9001,-4.9001,-4.9001,-4.9001,-4.9001,-4.9001,-4.9001,-4.9001,-4.9001,-4.9001,-4.9001,-4.9001,-4.894,-4.8433,-4.7489,-4.5685,-4.4849,-4.4737,-4.3693,-4.329,-4.329,-4.329,-4.329,-4.329,-4.329,-4.329,-4.329,-4.329,-4.329,-4.329,-4.329,-4.329,-4.329,-4.329,-4.329,-4.329,-4.329,-4.329,-4.329,-4.329,-4.329,-4.329,-4.329,-4.329,-4.329,-4.329,-4.329,-4.329,-4.329,-4.329,-4.329,-4.329,-4.229,-4.1906,-4.3036,-4.2193,-4.1462,-4.1504,-4.2467,-4.185,-3.8456,-3.9139,-3.8885,-3.6581,-3.6405,-3.6405,-3.6405,-3.6405,-3.6405,-3.6405,-3.6405,-3.6405,-3.6405,-3.6405,-3.6405,-3.6405,-3.6405,-3.6405,-3.6405,-3.6405,-3.6405,0.0,0.0,0.0,0.0,0.0,0.0,0.0,0.0,0.0,-4.9464,-4.924,-4.8967,-4.9135,-4.943,-4.9492,-4.9077,-4.9001,-4.9001,-4.9001,-4.9001,-4.9001,-4.9001,-4.9001,-4.9001,-4.9001,-4.9001,-4.9001,-4.9001,-4.9001,-4.9001,-4.9001,-4.9001,-4.9001,-4.9001,-4.9001,-4.9001,-4.9001,-4.9001,-4.9001,-4.9001,-4.9001,-4.9001,-4.9001,-4.9001,-4.8829,-4.8433,-4.7138,-4.5921,-4.4774,-4.4412,-4.3888,-4.329,-4.329,-4.329,-4.329,-4.329,-4.329,-4.329,-4.329,-4.329,-4.329,-4.329,-4.329,-4.329,-4.329,-4.329,-4.329,-4.329,-4.329,-4.329,-4.329,-4.329,-4.329,-4.329,-4.329,-4.329,-4.329,-4.329,-4.329,-4.329,-4.329,-4.329,-4.329,-4.233,-4.1988,-4.3115,-4.233,-4.185,-4.2589,-4.3036,-4.2548,-4.0547,-4.0102,-3.9241,-3.7632,-3.6803,-3.6405,-3.6405,-3.6405,-3.6405,-3.6405,-3.6405,-3.6405,-3.6405,-3.6405,-3.6405,-3.6405,-3.6405,-3.6405,-3.6405,-3.6405,-3.6405,0.0,0.0,0.0,0.0,0.0,0.0,0.0,0.0,0.0,-4.866,-4.8592,-4.8465,-4.8692,-4.937,-4.9594,-4.8709,-4.855,-4.8477,-4.8287,-4.8477,-4.8646,-4.8646,-4.8849,-4.9001,-4.9001,-4.9001,-4.9001,-4.9001,-4.9001,-4.9001,-4.9001,-4.9001,-4.9001,-4.9001,-4.9001,-4.9001,-4.9001,-4.9001,-4.9001,-4.9001,-4.9001,-4.9001,-4.9001,-4.9001,-4.9001,-4.897,-4.8338,-4.7172,-4.5722,-4.5395,-4.4684,-4.381,-4.381,-4.3591,-4.329,-4.329,-4.329,-4.329,-4.329,-4.329,-4.329,-4.329,-4.329,-4.329,-4.329,-4.329,-4.329,-4.329,-4.329,-4.329,-4.329,-4.329,-4.329,-4.329,-4.329,-4.329,-4.329,-4.329,-4.329,-4.329,-4.329,-4.329,-4.329,-4.2684,-4.2412,-4.321,-4.2684,-4.2426,-4.321,-4.329,-4.286,-4.1726,-4.0916,-3.9828,-3.8243,-3.7415,-3.6803,-3.6405,-3.6405,-3.6405,-3.6405,-3.6405,-3.6405,-3.6405,-3.6405,-3.6405,-3.6405,-3.6405,-3.6405,-3.6405,-3.6405,-3.6405,0.0,0.0,0.0,0.0,0.0,0.0,0.0,0.0,-4.8763,-4.8813,-4.9292,-4.9541,-4.8886,-4.9268,-4.9227,-4.7891,-4.7719,-4.7496,-4.6915,-4.7428,-4.7855,-4.7855,-4.8511,-4.8934,-4.8934,-4.8934,-4.8934,-4.8934,-4.8934,-4.8934,-4.8934,-4.8934,-4.8934,-4.8934,-4.8934,-4.8951,-4.8968,-4.8968,-4.8984,-4.9001,-4.9001,-4.9001,-4.9001,-4.9001,-4.9001,-4.9001,-4.9001,-4.8465,-4.7589,-4.6643,-4.5706,-4.4849,-4.4812,-4.4182,-4.3329,-4.329,-4.329,-4.329,-4.329,-4.329,-4.329,-4.329,-4.329,-4.329,-4.329,-4.329,-4.329,-4.329,-4.329,-4.329,-4.329,-4.329,-4.329,-4.329,-4.329,-4.329,-4.329,-4.329,-4.329,-4.329,-4.329,-4.329,-4.329,-4.329,-4.329,-4.329,-4.329,-4.329,-4.329,-4.329,-4.29,-4.1767,-4.1587,-4.0632,-3.8334,-3.8107,-3.7586,-3.6452,-3.6405,-3.6405,-3.6405,-3.6405,-3.6405,-3.6405,-3.6405,-3.6405,-3.6405,-3.6405,-3.6405,-3.6405,-3.6405,-3.6405,-5.1132,0.0,0.0,0.0,0.0,0.0,0.0,0.0,0.0,-4.7085,-4.7617,-4.8013,-4.7819,-4.8267,-4.8431,-4.7599,-4.7618,-4.7644,-4.7468,-4.7243,-4.7107,-4.7107,-4.7276,-4.7411,-4.7411,-4.7411,-4.7411,0.0,-4.7411,-4.7411,-4.7411,-4.7411,-4.7411,-4.7411,-4.7411,-4.7665,-4.8206,-4.8193,-4.8477,-4.9001,-4.9001,-4.9001,-4.9001,-4.9001,-4.9001,-4.9001,-4.9001,-4.8861,-4.8545,-4.7589,-4.6678,-4.5742,-4.5095,-4.4624,-4.4297,-4.3551,-4.329,-4.329,-4.329,-4.329,-4.329,-4.329,-4.329,-4.329,-4.329,-4.329,-4.329,-4.329,-4.329,-4.329,-4.329,-4.329,-4.329,-4.329,-4.329,-4.329,-4.329,-4.329,-4.329,-4.329,-4.329,-4.329,-4.329,-4.329,-4.329,-4.329,-4.329,-4.329,-4.329,-4.329,-4.317,-4.286,-4.1351,-4.0102,-3.9461,-3.7861,-3.6756,-3.6405,-3.6405,-3.6405,-3.6405,-3.6405,-3.6405,-3.6405,-3.6405,-3.6405,-3.6405,-3.6405,-3.6405,-3.6405,-3.6405,-3.6405,0.0,0.0,0.0,0.0,0.0,0.0,-4.7485,-4.6855,-4.6318,0.0,-4.6932,-4.7406,-4.7406,-4.7695,-4.7797,-4.7449,-4.7263,-4.716,-4.716,-4.7158,-4.7113,-4.7113,-4.7146,-4.7182,-4.7182,-4.6944,-4.6786,-4.6786,-4.6786,-4.6786,-4.6786,-4.6786,-4.6786,-4.6786,-4.6786,-4.7005,-4.7445,-4.7445,-4.7665,-4.8088,-4.8392,-4.8545,-4.8562,-4.8866,-4.9001,-4.9001,-4.9001,-4.9001,-4.897,-4.8401,-4.7622,-4.6747,-4.6189,-4.5742,-4.5248,-4.4282,-4.3927,-4.3849,-4.3448,-4.329,-4.329,-4.329,-4.329,-4.329,-4.329,-4.329,-4.329,-4.329,-4.329,-4.329,-4.329,-4.329,-4.329,-4.329,-4.329,-4.329,-4.329,-4.329,-4.329,-4.329,-4.329,-4.329,-4.329,-4.329,-4.329,-4.329,-4.329,-4.329,-4.329,-4.329,-4.329,-4.329,-4.2126,-4.1141,-4.0661,-3.9346,-3.8379,-3.7906,-3.7381,-3.7103,-3.7103,-3.6675,-3.6405,-3.6405,-3.6405,-3.6405,-3.6405,-3.6405,-3.6405,-3.6405,-3.6405,-3.6405,0.0,0.0,0.0,0.0,0.0,0.0,-4.7451,-4.6873,-4.6344,-4.6481,-4.6918,-4.7235,-4.7262,-4.7322,-4.7383,-4.7383,-4.6945,-4.6571,-4.643,-4.7026,-4.7486,-4.7486,-4.7534,-4.7557,-4.7557,-4.7077,-4.6748,-4.6661,-4.659,-4.6549,-4.6549,-4.6549,-4.6549,-4.6549,-4.6549,-4.6583,-4.6667,-4.6667,-4.6718,-4.6802,-4.7462,-4.78,-4.7787,-4.8545,-4.8883,-4.8883,-4.8968,-4.9001,-4.9001,-4.9001,-4.8513,-4.777,-4.7655,-4.7088,-4.6244,-4.5285,-4.4887,-4.4662,-4.3771,-4.3409,-4.329,-4.329,-4.329,-4.329,-4.329,-4.329,-4.329,-4.329,-4.329,-4.329,-4.329,-4.329,-4.329,-4.329,-4.329,-4.329,-4.329,-4.329,-4.329,-4.329,-4.329,-4.329,-4.329,-4.329,-4.329,-4.329,-4.329,-4.329,-4.329,-4.329,-4.329,-4.329,-4.321,-4.2684,-4.1684,-4.1462,-4.1,-3.9942,-3.8872,-3.8243,-3.8107,-3.715,-3.6534,-3.6405,-3.6405,-3.6405,-3.6405,-3.6405,-3.6405,-3.6405,-3.6405,-3.6405,0.0,0.0,0.0,0.0,-4.8196,0.0,-4.8115,-4.751,-4.6989,0.0,-4.666,-4.6242,-4.6401,-4.6832,-4.7162,-4.7162,-4.7595,-4.7575,-4.653,-4.6548,-4.6637,-4.6637,-4.6658,-4.6656,-4.6656,-4.6551,-4.6269,-4.5778,-4.5295,-4.5038,-4.5038,-4.5038,-4.5038,-4.5038,-4.5038,-4.5297,-4.5906,-4.5923,-4.621,-4.6786,-4.6938,-4.7005,-4.7039,-4.7784,-4.8091,-4.8142,-4.8748,-4.9001,-4.9001,-4.9001,-4.8892,-4.8656,-4.7917,-4.7489,-4.7189,-4.6295,-4.5468,-4.4774,-4.4586,-4.3966,-4.329,-4.329,-4.329,-4.329,-4.329,-4.329,-4.329,-4.329,-4.329,-4.329,-4.329,-4.329,-4.329,-4.329,-4.329,-4.329,-4.329,-4.329,-4.329,-4.329,-4.329,-4.329,-4.329,-4.329,-4.329,-4.329,-4.329,-4.329,-4.329,-4.329,-4.329,-4.329,-4.2467,-4.185,-4.1629,-4.0746,-4.0159,-3.9899,-3.9681,-3.9094,-3.8153,-3.7893,-3.7322,-3.6405,-3.6405,-3.6405,-3.6405,-3.6405,-3.6405,-3.6405,-3.6405,-3.6405,0.0,0.0,0.0,-4.8306,-4.77,0.0,0.0,-4.737,-4.6763,-4.7662,-4.7435,-4.7129,-4.7223,-4.7256,-4.7256,-4.7256,-4.7583,-4.7635,-4.6999,-4.7154,-4.7345,-4.7345,-4.7088,-4.691,-4.691,-4.6312,-4.5707,-4.5089,-4.4759,-4.4615,-4.4615,-4.4615,-4.4615,-4.4615,-4.4615,-4.4784,-4.5145,-4.5145,-4.5331,-4.5715,-4.6075,-4.6244,-4.6278,-4.7022,-4.7564,-4.7906,-4.8308,-4.8663,-4.9001,-4.9001,-4.9001,-4.894,-4.8465,-4.8015,-4.7489,-4.6539,-4.5597,-4.4737,-4.422,-4.3732,-4.329,-4.329,-4.329,-4.329,-4.329,-4.329,-4.329,-4.329,-4.329,-4.329,-4.329,-4.329,-4.329,-4.329,-4.329,-4.329,-4.329,-4.329,-4.329,-4.329,-4.329,-4.329,-4.329,-4.329,-4.329,-4.329,-4.329,-4.329,-4.329,-4.329,-4.329,-4.329,-4.2805,-4.2467,-4.2467,-4.1906,-4.1616,-4.1616,-4.1057,-4.0218,-3.905,-3.8424,-3.754,-3.6405,-3.6405,-3.6405,-3.6405,-3.6405,-3.6405,-3.6405,-3.6405,-3.6405,0.0,0.0,0.0,0.0,0.0,-4.6434,0.0,0.0,0.0,0.0,0.0,0.0,0.0,0.0,0.0,0.0,0.0,0.0,0.0,-4.7886,0.0,-4.8306,-4.7877,-4.7572,-4.7572,-4.6542,-4.5597,-4.4998,-4.4841,-4.472,-4.4615,-4.4615,-4.4615,-4.4615,-4.4615,-4.4615,-4.4615,-4.4615,-4.4615,-4.4615,-4.5196,-4.55,-4.5517,-4.6244,-4.6921,-4.7483,-4.777,-4.8257,-4.8798,-4.8951,-4.9001,-4.9001,-4.9001,-4.8545,-4.777,-4.702,-4.6012,-4.493,-4.4128,-4.3615,-4.329,-4.329,-4.329,-4.329,-4.329,-4.329,-4.329,-4.329,-4.329,-4.329,-4.329,-4.329,-4.329,-4.329,-4.329,-4.329,-4.329,-4.329,-4.329,-4.329,-4.329,-4.329,-4.329,-4.329,-4.329,-4.329,-4.329,-4.329,-4.329,-4.329,-4.329,-4.329,-4.329,-4.329,-4.329,-4.329,-4.329,-4.329,-4.2426,-4.1295,-3.9942,-3.8527,-3.7322,-3.6405,-3.6405,-3.6405,-3.6405,-3.6405,-3.6405,-3.6405,-3.6405,-3.6405,0.0,0.0,0.0,0.0,-4.7094,-4.6819,-4.6287,0.0,-4.5094,-4.5993,0.0,0.0,0.0,0.0,0.0,0.0,0.0,0.0,-4.7239,-4.7808,-4.8306,-4.8306,-4.823,-4.8191,-4.8191,-4.7593,-4.691,-4.624,-4.5681,-4.5152,-4.4626,-4.4615,-4.4615,-4.4615,-4.4615,-4.4615,-4.4615,-4.4615,-4.4615,-4.4615,-4.4682,-4.4733,-4.4767,-4.5483,-4.5872,-4.6024,-4.7344,-4.7939,-4.8075,-4.8731,-4.9001,-4.9001,-4.9001,-4.8923,-4.8829,-4.8719,-4.7556,-4.6032,-4.5889,-4.475,-4.329,-4.329,-4.329,-4.329,-4.329,-4.329,-4.329,-4.329,-4.329,-4.329,-4.329,-4.329,-4.329,-4.329,-4.329,-4.329,-4.329,-4.329,-4.329,-4.329,-4.329,-4.329,-4.329,-4.329,-4.329,-4.329,-4.329,-4.329,-4.329,-4.329,-4.329,-4.329,-4.329,-4.329,-4.329,-4.329,-4.329,-4.329,-4.317,-4.2126,-3.9986,-3.7782,-3.6534,-3.6405,-3.6405,-3.6405,-3.6405,-3.6405,-3.6405,-3.6405,-3.6405,-3.6405,0.0,0.0,0.0,0.0,0.0,0.0,-4.5975,0.0,-4.4947,0.0,0.0,0.0,0.0,0.0,0.0,0.0,-4.6654,0.0,0.0,0.0,-4.8306,0.0,0.0,0.0,-4.7818,-4.7551,-4.711,-4.6454,-4.584,-4.5399,-4.5142,-4.4786,-4.4615,-4.4615,-4.4615,-4.4615,-4.4615,-4.4615,-4.4615,-4.4615,-4.4615,-4.4615,-4.4615,-4.4936,-4.5297,-4.5771,-4.6819,-4.7513,-4.7939,-4.8714,-4.9001,-4.9001,-4.9001,-4.8656,-4.8193,-4.8193,-4.7002,-4.5395,-4.5395,-4.4495,-4.329,-4.329,-4.329,-4.329,-4.329,-4.329,-4.329,-4.329,-4.329,-4.329,-4.329,-4.329,-4.329,-4.329,-4.329,-4.329,-4.329,-4.329,-4.329,-4.329,-4.329,-4.329,-4.329,-4.329,-4.329,-4.329,-4.329,-4.329,-4.329,-4.329,-4.329,-4.329,-4.329,-4.329,-4.329,-4.329,-4.329,-4.329,-4.2044,-4.0887,-3.9942,-3.7645,-3.6405,-3.6405,-3.6405,-3.6405,-3.6405,-3.6405,-3.6405,-3.6405,-3.6405,-3.6405,-4.8306,0.0,0.0,0.0,0.0,0.0,0.0,0.0,-4.48,0.0,0.0,0.0,0.0,0.0,0.0,0.0,0.0,-4.7021,0.0,-4.7664,0.0,0.0,0.0,0.0,0.0,-4.7635,-4.7385,-4.671,-4.6281,-4.5957,-4.5757,-4.5178,-4.4841,-4.4841,-4.4709,-4.4615,-4.4615,-4.4615,-4.4615,-4.4615,-4.4615,-4.4615,-4.4615,-4.4615,-4.4874,-4.5432,-4.6177,-4.6921,-4.7665,-4.8392,-4.8832,-4.9001,-4.9001,-4.8576,-4.7966,-4.7966,-4.6968,-4.5577,-4.5577,-4.4743,-4.3693,-4.3693,-4.3512,-4.329,-4.329,-4.329,-4.329,-4.329,-4.329,-4.329,-4.329,-4.329,-4.329,-4.329,-4.329,-4.329,-4.329,-4.329,-4.329,-4.329,-4.329,-4.329,-4.329,-4.329,-4.329,-4.329,-4.329,-4.329,-4.329,-4.329,-4.329,-4.329,-4.329,-4.329,-4.329,-4.329,-4.329,-4.329,-4.1435,-4.0375,-4.0375,-3.8437,-3.7209,-3.6896,-3.6896,-3.6709,-3.6405,-3.6405,-3.6405,-3.6405,-3.6405,-3.6405,0.0,0.0,0.0,-4.6324,0.0,0.0,0.0,0.0,-4.4488,-4.3718,-4.4195,0.0,0.0,0.0,0.0,0.0,0.0,0.0,0.0,0.0,0.0,0.0,0.0,0.0,0.0,-4.8267,-4.8035,-4.7406,-4.7342,-4.7062,-4.6407,-4.5808,-4.5485,-4.5485,-4.4906,-4.4615,-4.4615,-4.4615,-4.4615,-4.4615,-4.4615,-4.4615,-4.4615,-4.4615,-4.4615,-4.4682,-4.5415,-4.616,-4.6887,-4.7648,-4.8376,-4.9001,-4.9001,-4.897,-4.897,-4.897,-4.8338,-4.7523,-4.7523,-4.6295,-4.4737,-4.4737,-4.4105,-4.329,-4.329,-4.329,-4.329,-4.329,-4.329,-4.329,-4.329,-4.329,-4.329,-4.329,-4.329,-4.329,-4.329,-4.329,-4.329,-4.329,-4.329,-4.329,-4.329,-4.329,-4.329,-4.329,-4.329,-4.329,-4.329,-4.329,-4.329,-4.329,-4.329,-4.329,-4.329,-4.329,-4.329,-4.329,-4.2208,-4.1545,-4.1545,-4.0404,-3.9227,-3.8062,-3.8062,-3.7494,-3.6405,-3.6405,-3.6405,-3.6405,-3.6405,-3.6405,-4.8306,-4.8306,-4.8049,-4.6947,-4.6287,-4.5626,-4.4544,-4.4507,-4.447,-4.3663,-4.414,0.0,0.0,0.0,0.0,0.0,0.0,0.0,0.0,0.0,0.0,0.0,0.0,0.0,0.0,0.0,-4.8229,-4.8015,-4.7614,-4.7299,-4.7066,-4.6454,-4.5915,-4.5494,-4.5294,-4.4998,-4.4598,-4.4615,-4.4615,-4.4615,-4.4615,-4.4615,-4.4615,-4.4615,-4.4615,-4.4649,-4.5382,-4.5838,-4.6177,-4.7382,-4.8041,-4.8342,-4.8815,-4.9001,-4.9001,-4.9001,-4.8401,-4.7523,-4.6884,-4.626,-4.5742,-4.5742,-4.5064,-4.4297,-4.4297,-4.381,-4.329,-4.329,-4.329,-4.329,-4.329,-4.329,-4.329,-4.329,-4.329,-4.329,-4.329,-4.329,-4.329,-4.329,-4.329,-4.329,-4.329,-4.329,-4.329,-4.329,-4.329,-4.329,-4.329,-4.329,-4.329,-4.329,-4.329,-4.329,-4.329,-4.329,-4.329,-4.329,-4.2249,-4.1587,-4.1587,-4.049,-3.9724,-3.9316,-3.9271,-3.8693,-3.754,-3.754,-3.715,-3.6405,-3.6405,-3.6405,-4.8306,-4.8306,-4.8122,-4.7296,-4.6709,-4.6049,-4.4948,-4.4929,-4.4911,-4.4085,-4.4342,-4.4635,0.0,0.0,0.0,0.0,0.0,0.0,0.0,-4.704,0.0,0.0,0.0,0.0,0.0,-4.8306,-4.8306,-4.8306,-4.7937,-4.7715,0.0,-4.711,-4.6571,-4.6185,-4.594,-4.552,-4.4934,-4.4934,-4.4814,-4.4615,-4.4615,-4.4615,-4.4615,-4.4615,-4.4615,-4.4632,-4.5094,-4.5466,-4.5788,-4.7022,-4.7682,-4.7956,-4.8714,-4.9001,-4.9001,-4.9001,-4.8625,-4.8015,-4.7423,-4.6986,-4.6712,-4.6712,-4.6048,-4.5285,-4.5285,-4.4856,-4.4266,-4.3912,-4.3849,-4.3732,-4.3409,-4.329,-4.329,-4.329,-4.329,-4.329,-4.329,-4.329,-4.329,-4.329,-4.329,-4.329,-4.329,-4.329,-4.329,-4.329,-4.329,-4.329,-4.329,-4.329,-4.329,-4.329,-4.329,-4.329,-4.329,-4.329,-4.329,-4.329,-4.2589,-4.2193,-4.2193,-4.1476,-4.093,-4.049,-4.049,-3.9915,-3.8738,-3.8289,-3.7723,-3.6977,-3.6581,-3.6405]},{"header":{"parameterUnit":"m.s-1","parameterCategory":1,"la1":30.6,"la2":29.2853,"lo1":-89.7004,"lo2":-87.6739,"dy":0.0162,"dx":0.0183,"nx":112,"ny":82,"refTime":"2023-03-03T18:00:00:Z","depth":0,"parameterNumber":3,"parameterNumberName":"V-component_of_WINDS"},"data":[0.0,0.0,0.0,0.0,0.0,0.0,0.0,0.0,0.0,0.0,0.0,0.0,0.0,0.0,0.0,0.0,0.0,0.0,0.0,0.0,0.0,0.0,0.0,0.0,0.0,0.0,0.0,0.0,0.0,0.0,0.0,0.0,0.0,0.0,0.0,0.0,0.0,0.0,0.0,0.0,0.0,0.0,0.0,0.0,0.0,0.0,0.0,0.0,0.0,0.0,0.0,0.0,0.0,0.0,0.0,0.0,0.0,0.0,0.0,0.0,0.0,0.0,0.0,0.0,0.0,0.0,0.0,0.0,0.0,0.0,0.0,0.0,0.0,0.0,0.0,0.0,0.0,0.0,0.0,0.0,0.0,0.0,0.0,0.0,0.0,0.0,0.0,0.0,0.0,0.0,-3.6858,-3.7805,-3.8918,-3.9646,-3.9809,-3.9809,-3.9007,-3.7134,0.0,0.0,0.0,0.0,0.0,0.0,0.0,0.0,0.0,0.0,0.0,0.0,0.0,0.0,0.0,0.0,0.0,0.0,0.0,0.0,0.0,0.0,0.0,0.0,0.0,0.0,0.0,0.0,0.0,0.0,0.0,0.0,0.0,0.0,0.0,0.0,0.0,0.0,0.0,0.0,0.0,0.0,0.0,0.0,0.0,0.0,0.0,0.0,0.0,0.0,0.0,0.0,0.0,0.0,0.0,0.0,0.0,0.0,0.0,0.0,0.0,0.0,0.0,0.0,0.0,0.0,0.0,0.0,0.0,0.0,0.0,0.0,0.0,0.0,0.0,0.0,0.0,0.0,0.0,0.0,0.0,0.0,0.0,0.0,0.0,0.0,0.0,0.0,0.0,0.0,0.0,0.0,0.0,0.0,0.0,0.0,0.0,0.0,0.0,0.0,0.0,0.0,0.0,0.0,-3.7458,-3.9924,-4.0377,-4.0792,-4.1543,-4.1609,-4.0975,-3.9484,0.0,0.0,0.0,0.0,0.0,0.0,0.0,0.0,0.0,0.0,0.0,0.0,0.0,0.0,0.0,0.0,0.0,0.0,0.0,0.0,0.0,0.0,0.0,0.0,0.0,0.0,0.0,0.0,0.0,0.0,0.0,0.0,0.0,0.0,0.0,0.0,0.0,0.0,0.0,0.0,0.0,0.0,0.0,0.0,0.0,0.0,0.0,0.0,0.0,0.0,0.0,0.0,0.0,0.0,0.0,0.0,0.0,0.0,0.0,0.0,0.0,0.0,0.0,0.0,0.0,0.0,0.0,0.0,0.0,0.0,0.0,0.0,0.0,0.0,0.0,0.0,0.0,0.0,0.0,0.0,0.0,0.0,0.0,0.0,0.0,0.0,0.0,0.0,0.0,0.0,0.0,0.0,0.0,0.0,0.0,0.0,0.0,0.0,0.0,0.0,0.0,0.0,0.0,-3.7135,-3.8161,-3.9818,-3.999,-4.0343,-4.1213,-4.1313,-4.091,-3.9966,-3.8921,0.0,0.0,0.0,0.0,0.0,0.0,0.0,0.0,0.0,0.0,0.0,0.0,0.0,0.0,0.0,0.0,0.0,0.0,0.0,0.0,0.0,0.0,0.0,0.0,0.0,0.0,0.0,0.0,0.0,0.0,0.0,0.0,0.0,0.0,0.0,0.0,0.0,0.0,0.0,0.0,0.0,0.0,0.0,0.0,0.0,0.0,0.0,0.0,0.0,0.0,0.0,0.0,0.0,0.0,0.0,0.0,0.0,0.0,0.0,0.0,0.0,0.0,0.0,0.0,0.0,0.0,0.0,0.0,0.0,0.0,0.0,0.0,0.0,0.0,0.0,0.0,0.0,0.0,0.0,0.0,0.0,0.0,0.0,0.0,0.0,0.0,0.0,0.0,0.0,0.0,0.0,0.0,0.0,0.0,0.0,0.0,0.0,0.0,0.0,0.0,0.0,0.0,-3.8756,-3.9308,-4.0228,-4.0324,-4.0672,-4.156,-4.1626,-4.1278,-4.0507,-4.0485,0.0,0.0,0.0,0.0,0.0,0.0,0.0,0.0,0.0,0.0,0.0,0.0,0.0,0.0,0.0,0.0,0.0,0.0,0.0,0.0,0.0,0.0,0.0,0.0,0.0,0.0,0.0,0.0,0.0,0.0,0.0,0.0,0.0,0.0,0.0,0.0,0.0,0.0,0.0,0.0,0.0,0.0,0.0,0.0,0.0,0.0,0.0,0.0,0.0,0.0,0.0,0.0,0.0,0.0,0.0,0.0,0.0,0.0,0.0,0.0,0.0,0.0,0.0,0.0,0.0,0.0,0.0,0.0,0.0,0.0,0.0,0.0,0.0,0.0,0.0,0.0,0.0,0.0,0.0,0.0,0.0,0.0,0.0,0.0,0.0,0.0,0.0,0.0,0.0,0.0,0.0,0.0,0.0,0.0,0.0,0.0,0.0,0.0,0.0,0.0,0.0,0.0,-3.9771,-4.1199,-4.2847,-4.3017,-4.3396,-4.4253,-4.4327,-4.3698,-4.2237,-4.2136,0.0,0.0,0.0,0.0,0.0,0.0,0.0,0.0,0.0,0.0,0.0,0.0,0.0,0.0,0.0,0.0,0.0,0.0,0.0,0.0,0.0,0.0,0.0,0.0,0.0,0.0,0.0,0.0,0.0,0.0,0.0,0.0,0.0,0.0,0.0,0.0,0.0,0.0,0.0,0.0,0.0,0.0,0.0,0.0,0.0,0.0,0.0,0.0,0.0,0.0,0.0,0.0,0.0,0.0,0.0,0.0,0.0,0.0,0.0,0.0,0.0,0.0,0.0,0.0,0.0,0.0,0.0,0.0,0.0,0.0,0.0,0.0,0.0,0.0,0.0,0.0,0.0,0.0,0.0,0.0,0.0,0.0,0.0,0.0,0.0,0.0,0.0,0.0,0.0,0.0,0.0,0.0,0.0,0.0,0.0,0.0,0.0,0.0,0.0,0.0,0.0,0.0,-4.0293,-4.1278,0.0,-4.2489,-4.2847,-4.3726,-4.3785,-4.3354,-4.2361,0.0,0.0,0.0,0.0,0.0,0.0,0.0,0.0,0.0,0.0,0.0,0.0,0.0,0.0,0.0,0.0,0.0,0.0,0.0,0.0,0.0,0.0,0.0,0.0,0.0,0.0,0.0,0.0,0.0,0.0,0.0,0.0,0.0,0.0,0.0,0.0,0.0,0.0,0.0,0.0,0.0,0.0,0.0,0.0,0.0,0.0,0.0,0.0,0.0,0.0,0.0,0.0,0.0,0.0,0.0,0.0,0.0,0.0,0.0,0.0,0.0,0.0,0.0,0.0,0.0,0.0,0.0,0.0,0.0,0.0,0.0,0.0,0.0,0.0,0.0,0.0,0.0,0.0,0.0,0.0,0.0,0.0,0.0,0.0,0.0,0.0,0.0,0.0,0.0,0.0,0.0,0.0,0.0,0.0,0.0,0.0,0.0,0.0,0.0,0.0,0.0,0.0,-4.0229,-4.1148,-4.2017,0.0,-4.2831,-4.3061,-4.3651,-4.371,-4.3297,-4.2361,0.0,0.0,0.0,0.0,0.0,0.0,0.0,0.0,0.0,0.0,0.0,0.0,0.0,0.0,0.0,0.0,0.0,0.0,0.0,0.0,0.0,0.0,0.0,0.0,0.0,0.0,0.0,0.0,0.0,0.0,0.0,0.0,0.0,0.0,0.0,0.0,0.0,0.0,0.0,0.0,0.0,0.0,0.0,0.0,0.0,0.0,0.0,0.0,0.0,0.0,0.0,0.0,0.0,0.0,0.0,0.0,0.0,0.0,0.0,0.0,0.0,0.0,0.0,0.0,0.0,0.0,0.0,0.0,0.0,0.0,0.0,0.0,0.0,0.0,0.0,0.0,0.0,0.0,0.0,0.0,0.0,0.0,0.0,0.0,0.0,0.0,0.0,0.0,0.0,0.0,0.0,0.0,0.0,0.0,0.0,0.0,0.0,0.0,0.0,0.0,0.0,0.0,-4.1087,-4.243,-4.3651,-4.4514,-4.4615,-4.4615,-4.4615,-4.4615,-4.3955,0.0,0.0,0.0,0.0,0.0,0.0,0.0,0.0,0.0,0.0,0.0,0.0,0.0,0.0,0.0,0.0,0.0,0.0,0.0,0.0,0.0,0.0,0.0,0.0,0.0,0.0,0.0,0.0,0.0,0.0,0.0,0.0,0.0,0.0,0.0,0.0,0.0,0.0,0.0,0.0,0.0,0.0,0.0,0.0,0.0,0.0,0.0,0.0,0.0,0.0,0.0,0.0,0.0,0.0,0.0,0.0,0.0,0.0,0.0,0.0,0.0,0.0,0.0,0.0,0.0,0.0,0.0,0.0,0.0,0.0,0.0,0.0,0.0,0.0,0.0,0.0,0.0,0.0,0.0,0.0,0.0,0.0,0.0,0.0,0.0,0.0,0.0,0.0,0.0,0.0,0.0,0.0,0.0,0.0,0.0,0.0,0.0,0.0,0.0,0.0,0.0,0.0,0.0,-4.1946,-4.33,-4.4327,-4.457,-4.4615,-4.4615,-4.4615,-4.4615,-4.3955,-4.2388,0.0,0.0,0.0,0.0,0.0,0.0,0.0,0.0,0.0,0.0,0.0,0.0,0.0,0.0,0.0,0.0,0.0,0.0,0.0,0.0,0.0,0.0,0.0,0.0,0.0,0.0,0.0,0.0,0.0,0.0,0.0,0.0,0.0,0.0,0.0,0.0,0.0,0.0,0.0,0.0,0.0,0.0,0.0,0.0,0.0,0.0,0.0,0.0,0.0,0.0,0.0,0.0,0.0,0.0,0.0,0.0,0.0,0.0,0.0,0.0,0.0,0.0,0.0,0.0,0.0,0.0,0.0,0.0,0.0,0.0,0.0,0.0,0.0,0.0,0.0,0.0,0.0,0.0,0.0,0.0,0.0,0.0,0.0,0.0,0.0,0.0,0.0,0.0,0.0,0.0,0.0,0.0,0.0,0.0,0.0,0.0,0.0,0.0,0.0,0.0,0.0,0.0,-4.2286,-4.3667,-4.4615,-4.4615,-4.4615,-4.4615,-4.4615,-4.4615,-4.409,-4.2811,0.0,0.0,0.0,0.0,0.0,0.0,0.0,0.0,0.0,0.0,0.0,0.0,0.0,0.0,0.0,0.0,0.0,0.0,0.0,0.0,0.0,0.0,0.0,0.0,0.0,0.0,0.0,0.0,0.0,0.0,0.0,0.0,0.0,0.0,0.0,0.0,0.0,0.0,0.0,0.0,0.0,0.0,0.0,0.0,0.0,0.0,0.0,0.0,0.0,0.0,0.0,0.0,0.0,0.0,0.0,0.0,0.0,0.0,0.0,0.0,0.0,0.0,0.0,0.0,0.0,0.0,0.0,0.0,0.0,0.0,0.0,0.0,0.0,0.0,0.0,0.0,0.0,0.0,0.0,0.0,0.0,0.0,0.0,0.0,0.0,0.0,0.0,0.0,0.0,0.0,0.0,0.0,0.0,0.0,0.0,0.0,0.0,0.0,0.0,0.0,0.0,0.0,-4.2286,-4.3667,-4.4615,-4.4615,-4.4615,-4.4615,-4.4615,-4.4615,-4.4248,-4.3443,0.0,0.0,0.0,0.0,0.0,0.0,0.0,0.0,0.0,0.0,0.0,0.0,0.0,0.0,0.0,0.0,0.0,0.0,0.0,0.0,0.0,0.0,0.0,0.0,0.0,0.0,0.0,0.0,0.0,0.0,0.0,0.0,0.0,0.0,0.0,0.0,0.0,0.0,0.0,0.0,0.0,0.0,0.0,0.0,0.0,0.0,0.0,0.0,0.0,0.0,0.0,0.0,0.0,0.0,0.0,0.0,0.0,0.0,0.0,0.0,-2.4539,-2.4565,0.0,0.0,0.0,0.0,0.0,0.0,0.0,0.0,0.0,0.0,0.0,0.0,0.0,0.0,0.0,0.0,0.0,0.0,0.0,0.0,0.0,0.0,0.0,0.0,0.0,0.0,0.0,0.0,0.0,0.0,0.0,0.0,0.0,0.0,0.0,0.0,0.0,0.0,0.0,0.0,-4.2286,-4.3667,-4.4615,-4.4615,-4.4615,-4.4615,-4.4615,-4.4615,-4.4248,-4.3443,-4.324,0.0,0.0,0.0,0.0,0.0,0.0,0.0,0.0,0.0,0.0,0.0,0.0,0.0,0.0,0.0,0.0,0.0,0.0,0.0,0.0,0.0,0.0,0.0,0.0,0.0,0.0,0.0,0.0,0.0,0.0,0.0,0.0,0.0,0.0,0.0,0.0,0.0,0.0,0.0,0.0,0.0,0.0,0.0,0.0,0.0,0.0,0.0,0.0,0.0,0.0,0.0,0.0,0.0,0.0,0.0,0.0,0.0,0.0,0.0,-2.6218,-2.6158,0.0,0.0,0.0,0.0,0.0,0.0,0.0,0.0,0.0,0.0,0.0,0.0,0.0,0.0,0.0,0.0,0.0,0.0,0.0,0.0,0.0,0.0,0.0,0.0,0.0,0.0,0.0,0.0,0.0,0.0,0.0,0.0,0.0,0.0,0.0,0.0,0.0,0.0,0.0,0.0,-4.2286,-4.3667,-4.4615,-4.4615,-4.4615,-4.475,-4.5094,-4.5128,-4.5094,-4.5043,-4.4705,0.0,0.0,0.0,0.0,0.0,0.0,0.0,0.0,0.0,0.0,0.0,0.0,0.0,0.0,0.0,0.0,0.0,0.0,0.0,0.0,0.0,0.0,0.0,0.0,0.0,0.0,0.0,0.0,0.0,0.0,0.0,0.0,0.0,0.0,0.0,0.0,0.0,0.0,0.0,0.0,0.0,0.0,0.0,0.0,0.0,0.0,0.0,0.0,0.0,0.0,0.0,0.0,0.0,-2.7109,-2.7353,-2.7353,-2.7432,-2.7656,-2.8031,-2.7617,-2.7578,-2.7725,-2.709,0.0,0.0,0.0,0.0,0.0,0.0,0.0,0.0,0.0,0.0,0.0,0.0,0.0,0.0,0.0,0.0,0.0,0.0,0.0,0.0,0.0,0.0,-3.9294,-3.8871,-3.917,-3.926,-3.8018,0.0,0.0,0.0,0.0,0.0,0.0,0.0,0.0,0.0,0.0,0.0,-4.2658,-4.391,-4.4852,-4.4987,-4.4987,-4.5241,-4.5838,-4.5889,-4.616,-4.6752,-4.6227,-4.5551,0.0,0.0,0.0,0.0,0.0,0.0,0.0,0.0,0.0,0.0,0.0,0.0,0.0,0.0,0.0,0.0,0.0,0.0,0.0,0.0,0.0,0.0,0.0,0.0,0.0,0.0,0.0,0.0,0.0,0.0,0.0,0.0,-2.0825,-2.2129,0.0,0.0,0.0,0.0,0.0,0.0,0.0,0.0,0.0,0.0,0.0,0.0,0.0,-2.5381,-2.6201,-2.6641,-2.706,-2.7562,-2.8291,-2.8662,-2.8682,-2.9062,-2.9268,-2.9372,-2.9258,0.0,-2.8232,-2.8486,0.0,0.0,0.0,0.0,0.0,0.0,0.0,0.0,0.0,0.0,0.0,0.0,0.0,0.0,0.0,0.0,0.0,0.0,0.0,0.0,0.0,0.0,-4.1643,-4.0405,-4.0202,-4.0068,-3.932,-3.8227,-3.7389,-3.73,-3.7285,-3.7297,0.0,0.0,0.0,0.0,0.0,0.0,-4.4041,-4.5026,-4.5805,-4.643,-4.6498,-4.6532,-4.665,-4.665,-4.6684,-4.6786,-4.6701,-4.6312,-4.5585,-4.4925,0.0,0.0,0.0,0.0,0.0,0.0,0.0,0.0,0.0,0.0,0.0,0.0,0.0,0.0,0.0,0.0,0.0,0.0,0.0,0.0,0.0,0.0,0.0,0.0,0.0,0.0,0.0,0.0,0.0,-2.2336,-2.35,-2.4239,-2.4155,-2.4202,0.0,0.0,0.0,0.0,0.0,0.0,0.0,0.0,0.0,-2.5439,-2.5908,-2.6348,-2.6738,-2.7637,-2.8184,-2.8379,-2.8994,-2.9287,-2.9287,-2.9482,-2.9626,-2.9636,-2.9824,-2.9707,-2.9336,-2.9043,-2.8701,-2.835,0.0,0.0,0.0,0.0,-3.0587,-3.1403,-3.4094,-3.5392,-3.5928,-3.6343,0.0,0.0,0.0,0.0,0.0,0.0,0.0,-3.8236,-3.8941,-4.0743,-4.235,-4.2127,-4.2073,-4.1878,-4.1205,-4.0322,-3.9305,-3.8182,-3.7958,-3.7871,-3.7549,-3.8194,0.0,0.0,0.0,-4.331,-4.4301,-4.553,-4.643,-4.6752,-4.6786,-4.6972,-4.7394,-4.7428,-4.7597,-4.8003,-4.8037,-4.7716,-4.6989,-4.6633,-4.5703,0.0,0.0,0.0,0.0,0.0,0.0,0.0,0.0,0.0,0.0,0.0,0.0,0.0,0.0,0.0,0.0,0.0,0.0,0.0,0.0,0.0,0.0,0.0,0.0,0.0,0.0,0.0,0.0,-2.4699,-2.5361,-2.5645,-2.5439,-2.5244,0.0,0.0,0.0,0.0,0.0,0.0,-2.5908,-2.5957,-2.6015,-2.6015,-2.6787,-2.7236,-2.7344,-2.8389,-2.9033,-2.9248,-2.958,-2.9795,-2.9912,-2.9912,-2.9912,-2.9922,-3.0244,-3.0371,-3.0322,-2.9687,-2.9355,-2.9219,-2.8906,-2.8711,-2.8839,-3.0398,-3.1211,-3.1956,-3.4929,-3.6196,-3.6611,-3.7405,-3.7513,-3.7312,-3.6958,0.0,0.0,0.0,0.0,-3.9065,-4.0503,-4.1996,-4.323,-4.3562,-4.3479,-4.315,-4.2545,-4.1886,-4.0973,-3.9439,-3.9155,-3.8945,-3.8287,-3.9081,0.0,-4.009,0.0,-4.4212,-4.4794,-4.616,-4.7141,-4.7327,-4.7361,-4.7581,-4.8139,-4.8189,-4.8426,-4.8968,-4.9001,-4.8765,-4.8193,-4.7834,-4.6836,-4.5207,0.0,0.0,0.0,0.0,0.0,0.0,0.0,0.0,0.0,0.0,0.0,0.0,0.0,0.0,0.0,0.0,0.0,0.0,0.0,0.0,0.0,0.0,0.0,0.0,0.0,0.0,0.0,0.0,0.0,-2.5693,-2.5664,0.0,0.0,0.0,0.0,-2.5654,-2.6113,-2.6357,-2.6357,-2.6738,-2.6953,-2.6953,-2.7393,-2.7822,-2.8223,-2.8682,-2.9326,-3.0127,-3.0156,-3.0391,-3.082,-3.082,-3.082,-3.083,-3.085,-3.0859,-3.085,-3.081,-3.0537,-3.0127,-3.0107,-2.9863,-2.9764,-3.1626,-3.3192,-3.4665,-3.6679,-3.8291,-3.942,-3.8956,-3.8417,-3.7952,-3.7939,-3.7563,0.0,0.0,-4.0156,-4.1074,-4.2939,-4.429,-4.4982,-4.4381,-4.3753,-4.315,-4.2545,-4.1886,-4.1354,-4.1287,-4.1272,-4.1025,-4.0367,0.0,-4.0643,-4.1476,-4.2507,-4.3945,-4.6109,-4.7247,-4.8122,-4.8815,-4.8883,-4.89,-4.8951,-4.8951,-4.8968,-4.9001,-4.9001,-4.8984,-4.8951,-4.7597,-4.6786,-4.6684,-4.5354,0.0,0.0,0.0,0.0,0.0,0.0,0.0,0.0,0.0,0.0,0.0,0.0,0.0,0.0,0.0,0.0,0.0,0.0,0.0,0.0,0.0,0.0,0.0,0.0,0.0,0.0,0.0,0.0,-2.5693,-2.5693,0.0,-2.5693,-2.5986,-2.6269,-2.6543,-2.6699,-2.7031,-2.7578,-2.75,-2.7559,-2.7832,-2.8525,-2.8965,-2.9111,-2.9834,-3.0342,-3.0644,-3.0644,-3.0732,-3.0889,-3.0889,-3.0889,-3.0889,-3.0889,-3.0889,-3.0889,-3.0889,-3.0791,-3.0644,-3.0644,-3.0547,-3.0774,-3.3322,-3.4593,-3.5434,-3.8024,-3.9245,-3.9659,-3.9471,-3.9258,-3.9094,-3.9094,-3.8956,-3.912,-4.0589,-4.1151,-4.1747,-4.3617,-4.4443,-4.4775,-4.4929,-4.4451,-4.3898,-4.3673,-4.3105,-4.2626,-4.2626,-4.1953,-4.1309,-4.107,-4.1422,-4.1806,-4.2115,-4.3324,-4.4468,-4.5278,-4.6219,-4.7127,-4.8014,-4.808,-4.8338,-4.894,-4.9001,-4.9001,-4.9001,-4.9001,-4.9001,-4.9001,-4.8054,-4.7293,-4.6802,-4.5821,-4.5185,0.0,0.0,0.0,0.0,0.0,0.0,0.0,0.0,0.0,0.0,0.0,0.0,0.0,0.0,0.0,0.0,0.0,0.0,0.0,0.0,0.0,0.0,0.0,0.0,0.0,0.0,-2.5693,-2.5693,-2.582,-2.5957,-2.5957,-2.6348,-2.6777,-2.7207,-2.7363,-2.7754,-2.8467,-2.8379,-2.8437,-2.8721,-2.9414,-2.9785,-2.9785,-3.0518,-3.0889,-3.0889,-3.0889,-3.0889,-3.0889,-3.0889,-3.0889,-3.0889,-3.0889,-3.0889,-3.0889,-3.0889,-3.0889,-3.0889,-3.0889,-3.0889,-3.1228,-3.3642,-3.4847,-3.5727,-3.8699,-3.9697,-3.9697,-3.9697,-3.9697,-3.9697,-3.9697,-3.9697,-3.9981,-4.1219,-4.1936,-4.2656,-4.4314,-4.5066,-4.5405,-4.5615,-4.514,-4.4586,-4.4362,-4.3753,-4.329,-4.329,-4.2626,-4.2043,-4.2043,-4.2402,-4.2686,-4.2686,-4.3907,-4.4812,-4.4812,-4.5634,-4.6574,-4.7523,-4.7589,-4.7982,-4.8923,-4.8781,-4.8748,-4.8984,-4.8781,-4.8646,-4.8646,-4.7936,-4.7192,-4.6447,-4.5703,-4.5202,-4.4906,0.0,0.0,0.0,0.0,0.0,0.0,0.0,0.0,0.0,0.0,0.0,0.0,0.0,0.0,0.0,0.0,0.0,0.0,0.0,0.0,0.0,0.0,0.0,-2.5713,-2.5703,-2.5713,-2.5732,-2.6152,-2.6406,-2.6406,-2.6787,-2.7217,-2.7718,-2.8086,-2.8506,-2.8955,-2.9365,-2.9655,-2.9665,-3.0,-3.0215,-3.0215,-3.0664,-3.0889,-3.0889,-3.0889,-3.0889,-3.0889,-3.0889,-3.0889,-3.0889,-3.0889,-3.0889,-3.0889,-3.0889,-3.0889,-3.0889,-3.0889,-3.0889,-3.1054,-3.2587,-3.4125,-3.5847,-3.8699,-3.9697,-3.9697,-3.9697,-3.9697,-3.9697,-3.9697,-3.9697,-3.9981,-4.1219,-4.2509,-4.3726,-4.5041,-4.627,-4.7057,-4.6384,-4.5753,-4.5095,-4.4421,-4.3738,-4.329,-4.329,-4.329,-4.329,-4.329,-4.329,-4.329,-4.329,-4.4143,0.0,-4.4737,-4.5561,-4.6488,-4.744,-4.7539,-4.7917,-4.894,-4.8342,-4.8193,-4.8951,-4.8325,-4.7906,-4.7922,-4.7208,-4.6447,-4.572,-4.4976,-4.4906,-4.5511,0.0,0.0,0.0,0.0,0.0,0.0,0.0,0.0,0.0,0.0,0.0,0.0,0.0,0.0,0.0,0.0,0.0,0.0,0.0,0.0,0.0,0.0,-2.6562,-2.625,-2.6211,-2.6328,-2.6631,-2.6768,-2.6846,-2.6846,-2.7226,-2.7793,-2.8525,-2.8682,-2.9219,-3.0293,-3.0137,-3.0176,-3.0518,-3.0635,-3.0703,-3.0703,-3.083,-3.0889,-3.0889,-3.0889,-3.0889,-3.0889,-3.0889,-3.0889,-3.0889,-3.0889,-3.0889,-3.0889,-3.0889,-3.0889,-3.0889,-3.0889,-3.0889,-3.1228,-3.3754,-3.6337,-3.8594,-3.9413,-3.9697,-3.9697,-3.9697,-3.9697,-3.9697,-3.9697,-3.9697,-3.9981,-4.1219,-4.1838,-4.2498,-4.4226,-4.4949,-4.5142,-4.4918,-4.4721,-4.4407,-4.3708,-4.3424,-4.329,-4.329,-4.329,-4.329,-4.329,-4.329,-4.329,-4.329,-4.3566,-4.3693,-4.3693,-4.395,-4.4728,-4.6419,-4.6122,-4.665,-4.8827,-4.8342,-4.8193,-4.8951,-4.8325,-4.8125,-4.868,-4.7479,-4.6447,-4.572,-4.4976,-4.4906,0.0,0.0,0.0,0.0,0.0,0.0,0.0,0.0,0.0,0.0,0.0,0.0,0.0,0.0,0.0,0.0,0.0,0.0,0.0,0.0,0.0,0.0,-2.7012,-2.6992,-2.6934,-2.6768,-2.6738,-2.6982,-2.7178,-2.7285,-2.7285,-2.7832,-2.8476,-2.9141,-2.9355,-2.9873,-3.084,-3.0635,-3.0615,-3.0889,-3.0889,-3.0889,-3.0889,-3.0889,-3.0889,-3.0889,-3.0889,-3.0889,-3.0889,-3.0889,-3.0889,-3.0889,-3.0889,-3.0889,-3.0889,-3.0889,-3.0889,-3.0889,0.0,0.0,0.0,0.0,-3.7701,-3.9697,-3.9697,-3.9697,-3.9697,-3.9697,-3.9697,-3.9697,-3.9697,-3.9697,-3.9839,-4.0605,-4.1555,-4.2656,-4.3728,-4.4811,-4.5463,-4.4855,-4.4721,-4.4466,-4.3499,-4.329,-4.329,-4.329,-4.329,0.0,-4.329,-4.329,-4.329,-4.329,-4.329,-4.329,-4.329,-4.329,-4.3897,-4.5452,-4.5575,-4.6343,-4.8256,-4.8093,0.0,0.0,0.0,-4.7939,-4.8071,-4.6955,0.0,0.0,0.0,-4.4759,-4.5115,-4.5115,0.0,0.0,-4.665,-4.7068,0.0,0.0,0.0,0.0,0.0,0.0,0.0,0.0,0.0,0.0,0.0,0.0,0.0,0.0,0.0,0.0,-2.7158,-2.7295,-2.7738,-2.7402,-2.7158,-2.7158,-2.75,-2.7787,-2.7787,-2.8447,-2.9101,-2.9531,-2.9961,-3.04,-3.0869,0.0,0.0,0.0,0.0,-3.0889,-3.0889,-3.0889,-3.0889,-3.0889,-3.0889,-3.0889,-3.0889,-3.0889,-3.0889,-3.0889,-3.0889,-3.0889,-3.0889,-3.0889,-3.1005,-3.117,-3.117,-3.2045,-3.3677,-3.6476,-3.8413,-3.9697,-3.9697,0.0,0.0,-3.9697,-3.9697,-3.9697,-3.9697,-3.9697,-3.9697,-3.9697,-4.1319,-4.3122,-4.3266,-4.507,-4.659,-4.5379,-4.5206,-4.493,-4.3574,-4.329,-4.329,-4.329,-4.329,-4.329,-4.329,-4.329,-4.329,-4.329,-4.329,-4.329,-4.329,-4.329,-4.3708,-4.4699,0.0,0.0,-4.7506,-4.778,-4.8193,-4.8951,-4.8409,-4.7699,-4.6955,-4.6312,-4.5635,-4.4987,-4.4818,-4.4733,-4.4733,-4.4649,-4.4896,-4.5407,-4.6088,-4.6756,0.0,0.0,0.0,0.0,0.0,0.0,0.0,0.0,0.0,0.0,0.0,0.0,0.0,0.0,0.0,-2.7994,-2.8047,-2.8076,-2.8164,-2.8096,-2.8047,-2.8047,-2.8125,-2.8174,-2.8174,-2.8623,-2.9101,-2.9531,-2.9961,-3.04,-3.0869,-3.0889,-3.0889,-3.0889,-3.0889,-3.0889,-3.0889,-3.0889,-3.0889,-3.0889,-3.0889,0.0,-3.0889,-3.0889,-3.0889,-3.0889,-3.0889,-3.0889,-3.0889,-3.0889,-3.1604,-3.269,-3.269,-3.3586,-3.5068,-3.6865,-3.8413,-3.9697,-3.9697,-3.9697,-3.9697,-3.9697,-3.9697,-3.9697,-3.9697,-3.9697,0.0,-3.9697,-4.0032,-4.0642,-4.169,-4.3122,-4.4178,-4.3819,-4.456,-4.493,-4.3574,-4.329,-4.329,-4.329,-4.329,-4.329,-4.329,-4.329,-4.329,-4.329,-4.329,-4.329,-4.329,-4.329,-4.3708,-4.4699,-4.5108,-4.5927,-4.7473,-4.778,-4.8193,-4.8951,-4.8883,-4.8477,-4.7733,-4.7534,-4.7398,-4.7276,-4.6092,-4.5483,-4.5483,-4.4902,-4.4654,-4.4786,-4.589,-4.6756,0.0,0.0,0.0,0.0,0.0,0.0,0.0,0.0,0.0,0.0,0.0,-2.6921,0.0,0.0,-2.7447,-2.8174,-2.8291,-2.8291,-2.8291,-2.8476,-2.8525,-2.831,-2.8476,-2.8603,-2.8603,-2.918,-2.9648,-2.9863,-3.0293,-3.0644,-3.0879,-3.0889,-3.0889,-3.0889,-3.0889,-3.0889,-3.0889,-3.0889,-3.0889,-3.0889,-3.0889,-3.0889,-3.0889,-3.0889,-3.0889,-3.0889,-3.0889,-3.0889,-3.0889,-3.0889,-3.1325,-3.215,-3.3631,-3.5112,-3.6595,-3.8084,-3.9077,-3.9697,-3.9697,-3.9697,-3.9697,-3.9697,-3.9697,-3.9697,-3.9697,-3.9697,-3.9697,-3.9697,-4.0399,-4.1333,-4.2283,-4.3705,-4.4831,-4.444,-4.4842,-4.493,-4.3574,-4.329,-4.329,-4.329,-4.329,-4.329,-4.329,-4.329,-4.329,-4.329,-4.329,-4.329,-4.329,-4.329,-4.3472,-4.4004,-4.4598,-4.5306,-4.6138,-4.7161,-4.8128,-4.8954,-4.9001,-4.868,-4.7922,-4.7889,-4.775,-4.7361,-4.6261,-4.5703,-4.5703,-4.4942,-4.4615,-4.4626,-4.5537,-4.6136,0.0,0.0,0.0,0.0,0.0,0.0,0.0,0.0,-2.4405,-2.6146,-2.6545,-2.6888,-2.8067,-2.733,-2.6943,-2.8121,-2.8291,-2.832,-2.8398,-2.8711,-2.8818,-2.8574,-2.8838,-2.9043,-2.9043,-2.9746,-3.0195,-3.0195,-3.0625,-3.0889,-3.0889,-3.0889,-3.0889,-3.0889,-3.0889,-3.0889,-3.0889,-3.0889,-3.0889,-3.0889,-3.0889,-3.0889,-3.0889,-3.0889,-3.0889,-3.0889,-3.1218,-3.1334,-3.1325,-3.1662,-3.194,-3.2426,-3.4692,-3.6514,-3.806,-3.9121,-3.9597,-3.9685,-3.9572,-3.9597,-3.9697,-3.9697,-3.9622,-3.9534,-3.9534,-3.9534,-3.9534,-3.9534,-4.0715,-4.2093,-4.2616,-4.3991,-4.5126,-4.468,-4.4655,-4.4504,-4.3504,-4.329,-4.329,-4.329,-4.329,-4.329,-4.329,-4.329,-4.329,-4.329,-4.329,-4.329,-4.329,-4.329,-4.329,-4.329,-4.4182,-4.4871,-4.5058,-4.6609,-4.7901,-4.8688,-4.8757,-4.8528,-4.7906,-4.7753,-4.7411,-4.6802,-4.6075,-4.5703,-4.5703,-4.4942,-4.4615,-4.4598,-4.5089,-4.5399,-1.7582,-1.7782,-1.7949,-1.7982,-1.9386,-2.1161,0.0,0.0,-2.6218,-2.7716,-2.8067,-2.8121,-2.8291,-2.8184,-2.8121,-2.8291,-2.8291,-2.8418,-2.8789,-2.8887,-2.9043,-2.9385,-2.9473,-2.9502,-2.9502,-2.9922,-3.0195,-3.0195,-3.0625,-3.0889,-3.0889,-3.0889,-3.0889,-3.0889,-3.0889,-3.0889,-3.0889,-3.0889,-3.0889,-3.0889,-3.0889,-3.0889,-3.0889,-3.0889,-3.0889,-3.0947,-3.2311,-3.2861,-3.2975,-3.4247,-3.5563,-3.6764,-3.6573,-3.7726,-3.9415,-3.9081,-3.927,-3.9622,-3.9132,-3.9283,-3.9697,-3.9697,-3.9371,-3.9007,-3.9007,-3.9007,-3.9007,-3.9007,-3.9461,-4.0045,-4.0109,-4.0752,-4.1518,-4.185,-4.242,-4.2986,-4.3224,-4.329,-4.329,-4.329,-4.329,-4.329,-4.329,-4.329,-4.329,-4.329,-4.329,-4.329,-4.329,-4.329,-4.329,-4.329,-4.4182,-4.5153,-4.5977,-4.6986,-4.7655,-4.777,-4.791,-4.7973,-4.7889,-4.7276,-4.687,-4.6786,-4.6075,-4.5703,-4.5703,-4.4942,-4.4615,-4.4615,-4.4682,-4.4998,-1.7789,-1.8559,-1.9431,0.0,-2.111,-2.2631,-2.3447,-2.4213,-2.5215,-2.6717,-2.6997,-2.7276,-2.8121,-2.8291,-2.8291,0.0,-2.8496,-2.8721,-2.8896,-2.9346,-2.9726,-2.9912,-3.0176,-3.0234,-2.9961,-3.0342,-3.0605,-3.0605,-3.0781,-3.0889,-3.0889,-3.0889,-3.0889,-3.0889,-3.0889,-3.0889,-3.0889,-3.0625,-3.0488,-3.0488,-3.0244,-3.0117,-3.0117,-3.0117,-3.0117,-3.0184,-3.0824,-3.1085,-3.1197,-3.26,-3.3508,-3.4231,-3.5625,-3.6692,-3.7551,-3.8565,-3.9019,-3.9182,-3.9007,-3.8806,-3.8718,-3.8718,-3.8555,-3.8366,-3.8366,-3.8605,-3.8856,-3.8467,-3.9052,-3.984,-4.0262,-4.0547,-4.0963,-4.1471,-4.21,-4.2534,-4.2339,-4.282,-4.329,-4.329,-4.329,-4.329,-4.329,-4.329,-4.329,-4.329,-4.329,-4.329,-4.329,-4.329,-4.329,-4.329,-4.3669,-4.432,-4.5285,-4.626,-4.702,-4.7556,-4.818,-4.8545,-4.8545,-4.7834,-4.7445,-4.7445,-4.6295,-4.5703,-4.5703,-4.4942,-4.4615,-4.4615,-4.4615,-4.4748,-1.7943,0.0,0.0,-2.0356,-2.1716,-2.2957,-2.3151,-2.3487,-2.4267,-2.5763,-2.61,-2.6545,-2.8014,-2.8291,-2.833,-2.8447,-2.8721,-2.9004,-2.9238,-2.9805,-3.0244,-3.0371,-3.0684,-3.0762,-3.042,-3.0693,-3.0889,-3.0889,-3.0889,-3.0889,-3.0889,-3.0889,-3.0889,-3.0889,-3.0762,-3.0703,-3.0703,-3.0254,-3.0019,-3.0019,-2.9717,-2.9626,-2.9626,-2.9626,-2.9784,-3.0153,-3.0585,-3.0949,-3.1431,-3.2791,-3.3376,-3.3565,-3.5435,-3.6269,-3.6577,-3.7929,-3.8504,-3.8617,-3.8454,-3.8228,-3.8002,-3.8002,-3.7902,-3.7776,-3.7776,-3.8065,-3.8316,-3.7902,-3.85,-3.942,-3.992,-4.0141,-4.0504,-4.1452,-4.2158,-4.2535,-4.2378,-4.2991,-4.3514,-4.3334,-4.329,-4.329,-4.329,-4.329,-4.329,-4.329,-4.329,-4.329,-4.329,-4.329,-4.329,-4.329,-4.329,-4.3591,-4.432,-4.5285,-4.6224,-4.7155,-4.7897,-4.8433,-4.8683,-4.78,-4.728,-4.728,-4.6041,-4.5399,-4.5399,-4.484,-4.4615,-4.4615,-4.4615,-4.4615,0.0,0.0,-1.8599,-1.8901,-2.0345,-2.1684,-2.1635,-2.2758,-2.4267,-2.5763,-2.61,-2.6545,-2.8014,-2.8291,-2.8428,-2.8838,-2.8916,-2.9209,-3.0039,-3.0176,-3.0361,-3.081,-3.0889,-3.0889,0.0,-3.0889,-3.0889,-3.0889,-3.0889,-3.0889,-3.0889,-3.0889,-3.0889,-3.0889,-3.0449,-3.0215,-3.0215,-2.9795,-2.9646,-2.9646,-2.9636,-2.9626,-2.9626,-2.9626,-3.0309,-3.1638,-3.3068,-3.4386,-3.5715,-3.7219,-3.7804,-3.7742,-3.7315,-3.7489,-3.789,-3.7425,-3.7575,-3.7952,-3.7425,-3.7575,-3.8002,-3.8002,-3.7651,-3.7211,-3.7211,-3.7224,-3.7236,-3.7211,-3.7637,-3.8052,-3.8077,-3.8518,-3.9435,-4.127,-4.2158,-4.2876,-4.3972,-4.4246,-4.4092,-4.3424,-4.329,-4.329,-4.329,-4.329,-4.329,-4.329,-4.329,-4.329,-4.329,-4.329,-4.329,-4.329,-4.329,-4.3329,-4.3329,-4.4259,-4.5264,-4.6173,-4.6452,-4.6985,-4.7892,-4.6549,-4.5771,-4.5771,-4.501,-4.4632,-4.4632,-4.4615,-4.4615,-4.4615,-4.4615,-4.4615,0.0,0.0,-2.0303,-2.0628,-2.1899,-2.2814,-2.1805,-2.1975,-2.2758,-2.4267,-2.3813,-2.4278,-2.8036,-2.792,-2.7723,-2.9111,-2.959,-2.9863,-3.0156,-3.0459,-3.0713,-3.0869,-3.0889,0.0,0.0,0.0,0.0,-3.0889,-3.0889,-3.0889,-3.0889,-3.0889,-3.0752,-3.0439,-3.0576,-3.0508,-3.0205,-3.0059,-2.999,-2.998,-2.9707,-2.9414,-2.9141,-2.9141,-2.9248,-2.9447,-2.9962,-3.0885,-3.227,-3.3648,-3.4774,-3.5697,-3.641,-3.6795,-3.6945,-3.6757,-3.6807,-3.6935,-3.7123,-3.7073,-3.6958,-3.6958,-3.6832,-3.6681,-3.6681,-3.6945,-3.7111,-3.6782,-3.7036,-3.7462,-3.7462,-3.7359,-3.7493,-3.8471,-3.978,-4.0927,-4.1284,-4.2585,-4.3559,-4.3334,-4.329,-4.329,-4.329,-4.329,-4.329,-4.329,-4.329,-4.329,-4.329,-4.329,-4.329,-4.329,-4.329,-4.329,-4.329,-4.422,-4.519,-4.6138,-4.6842,-4.765,-4.8599,-4.7699,-4.6938,-4.643,-4.5703,-4.5077,-4.4615,-4.4615,-4.4615,-4.4615,-4.4615,-4.4615,0.0,-1.948,-2.0406,-2.073,-2.1544,-2.1991,-2.1031,-2.0809,-2.1202,-2.2702,-2.2351,-2.3059,-2.7336,-2.74,-2.7519,-2.9492,-2.9893,-3.0078,-3.04,-3.0566,-3.0703,-3.0869,-3.0889,-3.0889,0.0,0.0,0.0,-3.0889,-3.0889,-3.0889,-3.0889,-3.0889,-3.0752,-3.0459,-3.0576,-3.0498,-3.0205,-3.0049,-2.9971,-2.9971,-2.9697,-2.9424,-2.915,-2.915,-2.9268,-2.9511,-2.9819,-3.0716,-3.2079,-3.3262,-3.4301,-3.5223,-3.6061,-3.6405,-3.6405,-3.6405,-3.6405,-3.6455,-3.6807,-3.6707,-3.6405,-3.6405,-3.6405,-3.6405,-3.6405,-3.6656,-3.6857,-3.6505,-3.6669,-3.6885,-3.6885,-3.6988,-3.7164,-3.7714,-3.9101,-4.0334,-4.0769,-4.2031,-4.3086,-4.3255,-4.329,-4.329,-4.329,-4.329,-4.329,-4.329,-4.329,-4.329,-4.329,-4.329,-4.329,-4.329,-4.329,-4.329,-4.329,-4.422,-4.519,-4.6138,-4.7088,-4.8015,-4.897,-4.8308,-4.7564,-4.6802,-4.6075,-4.5331,-4.4615,-4.4615,-4.4615,-4.4615,-4.4615,-4.4615,-1.8844,-1.8931,-1.9011,-1.9299,-1.9424,-1.9424,-1.9424,-1.9424,-1.9815,-2.1309,-2.1725,-2.2875,0.0,0.0,-2.7685,-2.9775,-2.9826,-2.9932,-3.0771,-3.0508,-3.0391,0.0,0.0,0.0,0.0,0.0,0.0,-3.0918,0.0,-3.0898,-3.0918,-3.0898,-3.0889,-3.0889,-3.0459,-3.0215,-3.0195,-2.9824,-2.9695,-2.9695,-2.9695,-2.9629,-2.96,-2.96,-3.0339,-3.1563,-3.2534,-3.368,-3.4984,-3.5974,-3.6395,-3.6455,-3.6417,-3.6405,-3.6405,-3.6405,-3.6405,-3.6405,-3.6405,-3.6405,-3.6405,-3.6405,-3.6405,-3.6405,-3.6405,-3.6405,-3.6405,-3.6405,-3.6405,-3.6405,-3.6405,-3.7196,-3.8207,-3.8886,-3.9861,-4.101,-4.2267,-4.2565,-4.27,-4.3195,-4.329,-4.329,-4.329,-4.329,-4.329,-4.329,-4.329,-4.329,-4.329,-4.329,-4.329,-4.329,-4.329,-4.329,-4.329,-4.4182,-4.5153,-4.6138,-4.7036,-4.7982,-4.897,-4.8308,-4.7564,-4.6802,-4.6075,-4.5331,-4.4615,-4.4615,-4.4615,-4.4615,-4.4615,-4.4615,-1.8905,-1.9085,-1.9272,-1.941,-1.9424,-1.9424,-1.9424,-1.9424,-1.9815,-2.1309,-2.0945,-2.1343,0.0,0.0,0.0,-2.8287,-2.968,0.0,-3.0859,-3.0791,0.0,-3.0879,0.0,-3.0889,-3.0889,-3.0889,0.0,0.0,-3.1064,-3.1025,-3.1338,-3.1064,-3.0889,-3.0889,-3.0771,-3.0547,-3.0205,-3.0439,-3.0557,-3.0557,-3.0557,-3.0371,-3.0039,-3.0039,-3.0079,-3.0198,-3.1523,-3.2893,-3.4159,-3.5134,-3.61,-3.6935,-3.6568,-3.6405,-3.6405,-3.6405,-3.6405,-3.6405,-3.6405,-3.6405,-3.6405,-3.6405,-3.6405,-3.6405,-3.6405,-3.6405,-3.6405,-3.6405,-3.6405,-3.6405,-3.6405,-3.6628,-3.7095,-3.8123,-3.8591,-3.9342,-4.1397,-4.1874,-4.2136,-4.3105,-4.329,-4.329,-4.329,-4.329,-4.329,-4.329,-4.329,-4.329,-4.329,-4.329,-4.329,-4.329,-4.329,-4.329,-4.329,-4.3566,-4.4403,-4.6103,-4.6419,-4.7306,-4.894,-4.8308,-4.7564,-4.6802,-4.6075,-4.5331,-4.4615,-4.4615,-4.4615,-4.4615,-4.4615,-4.4615,-1.9118,-1.9239,-1.9424,-1.9424,-1.9424,-1.9424,-1.9424,-1.9424,-1.9649,-2.0479,-2.0261,0.0,-2.3079,0.0,0.0,0.0,0.0,0.0,-3.0859,-3.0713,-3.0664,0.0,-3.0889,0.0,-3.0889,-3.1055,-3.126,0.0,-3.1299,-3.1269,-3.1504,-3.1299,-3.1074,-3.0898,-3.0889,-3.0762,-3.0508,-3.0762,-3.0889,-3.0889,-3.0889,-3.0752,-3.0508,-3.0508,-3.0752,-3.1207,-3.2409,-3.375,-3.5155,-3.6047,-3.6863,-3.7487,-3.6935,-3.6769,-3.6732,-3.6505,-3.6405,-3.6405,-3.6405,-3.6405,-3.6405,-3.6405,-3.6405,-3.6405,-3.6405,-3.6405,-3.6405,-3.6405,-3.6405,-3.6405,-3.6405,-3.6756,-3.7322,-3.7939,-3.8514,-3.939,-4.1197,-4.1587,-4.1932,-4.3076,-4.329,-4.329,-4.329,-4.329,-4.329,-4.329,-4.329,-4.329,-4.329,-4.329,-4.329,-4.329,-4.329,-4.329,-4.329,-4.3693,-4.4419,-4.5525,-4.6365,-4.7273,-4.8338,-4.8363,-4.8054,-4.731,-4.6887,-4.6143,-4.5077,-4.5077,-4.4936,-4.4615,-4.4615,-4.4615,-1.9424,-1.9424,-1.9424,-1.9424,-1.9424,-1.9424,-1.9424,-1.9424,-1.9424,-1.9424,0.0,-2.0487,-2.1606,-2.3893,-2.6037,-2.7395,0.0,-3.0122,-3.083,-3.0547,-3.0439,-3.084,-3.0889,-3.0918,-3.0967,-3.1299,-3.1562,-3.168,-3.1631,-3.1601,-3.1601,-3.1543,-3.1328,-3.0898,-3.0889,-3.0889,-3.0889,-3.0889,-3.0889,-3.0889,-3.0889,-3.0889,-3.0889,-3.0889,-3.171,-3.3159,-3.4109,-3.5379,-3.6856,-3.7765,-3.8115,-3.8065,-3.7513,-3.7249,-3.7123,-3.6694,-3.6468,-3.6405,-3.6405,-3.6405,-3.6405,-3.6405,-3.6405,-3.6405,-3.6405,-3.6405,-3.6405,-3.6405,-3.6405,-3.6405,-3.6405,-3.715,-3.7893,-3.8062,-3.8917,-4.0015,-4.1337,-4.1726,-4.2111,-4.3115,-4.329,-4.329,-4.329,-4.329,-4.329,-4.329,-4.329,-4.329,-4.329,-4.329,-4.329,-4.329,-4.329,-4.329,-4.329,-4.4105,-4.4662,-4.4774,-4.6435,-4.7489,-4.7589,-4.8413,-4.8562,-4.7906,-4.7787,-4.7111,-4.5855,-4.5754,-4.5365,-4.475,-4.4649,-4.4615,-1.9424,-1.9424,-1.9424,-1.9424,-1.9424,-1.9424,-1.9424,-1.9424,0.0,0.0,-1.9639,-1.9839,-1.9887,-2.1759,-2.3794,-2.5361,0.0,0.0,0.0,0.0,-3.0801,0.0,0.0,0.0,0.0,0.0,0.0,0.0,-3.2256,-3.206,-3.206,-3.1709,-3.1328,-3.0898,-3.0889,-3.0889,-3.0889,-3.0889,-3.0889,-3.0889,-3.0889,-3.0889,-3.0889,-3.0889,-3.171,-3.318,-3.4538,-3.5971,-3.7457,-3.8347,-3.8718,-3.8668,-3.809,-3.7588,-3.7174,-3.7073,-3.6807,-3.6405,-3.6405,-3.6405,-3.6405,-3.6405,-3.6405,-3.6405,-3.6405,-3.6405,-3.6405,-3.6405,-3.6405,-3.6405,-3.6405,-3.6534,-3.693,-3.7893,-3.8243,-3.8992,-4.1155,-4.233,-4.3076,-4.325,-4.329,-4.329,-4.329,-4.329,-4.329,-4.329,-4.329,-4.329,-4.329,-4.329,-4.329,-4.329,-4.329,-4.329,-4.329,-4.3448,-4.3927,-4.4737,-4.5834,-4.6781,-4.7556,-4.7912,-4.8024,-4.7889,-4.731,-4.6853,-4.6599,-4.6007,-4.5635,-4.55,-4.4874,-4.4615,-1.9424,-1.9424,-1.9424,-1.9424,-1.9424,-1.9424,-1.9424,0.0,0.0,0.0,-1.9599,-1.9713,-1.9419,0.0,0.0,0.0,0.0,0.0,0.0,0.0,0.0,0.0,0.0,0.0,0.0,0.0,-3.1777,-3.2422,-3.2285,-3.2229,-3.2229,-3.1553,-3.1103,-3.0898,-3.0889,-3.0889,-3.0889,-3.0889,-3.0889,-3.0889,-3.0889,-3.0889,-3.0889,-3.0889,-3.2102,-3.4292,-3.5013,-3.6553,-3.8675,-3.9127,-3.9295,-3.9245,-3.868,-3.8291,-3.799,-3.74,-3.7023,-3.6795,-3.6505,-3.6405,-3.6405,-3.6405,-3.6405,-3.6405,-3.6405,-3.6405,-3.6405,-3.6405,-3.6405,-3.6405,-3.6405,-3.6849,-3.7415,-3.7984,-3.9023,-4.0247,-4.1378,-4.2508,-4.329,-4.329,-4.329,-4.329,-4.329,-4.329,-4.329,-4.329,-4.329,-4.329,-4.329,-4.329,-4.329,-4.329,-4.329,-4.329,-4.329,-4.329,-4.3527,-4.4004,-4.4915,-4.5869,-4.685,-4.744,-4.7962,-4.8446,-4.8139,-4.775,-4.7378,-4.7022,-4.6464,-4.5703,-4.572,-4.5343,-1.9424,-1.9424,-1.9424,-1.9424,-1.9424,-1.9424,-1.9424,-1.9424,0.0,0.0,-1.9546,-1.9639,-1.947,0.0,-2.2451,0.0,0.0,0.0,0.0,0.0,0.0,0.0,0.0,0.0,0.0,0.0,0.0,-3.2266,-3.2129,-3.2031,-3.2031,-3.1309,-3.0889,-3.0889,-3.0889,-3.0889,-3.0889,-3.0889,-3.0889,-3.0889,-3.0889,-3.0889,-3.0889,-3.1218,-3.2825,-3.53,-3.5617,-3.7263,-3.9697,-3.9697,-3.9697,-3.9647,-3.922,-3.8981,-3.8806,-3.7877,-3.74,-3.7123,-3.6732,-3.6505,-3.6405,-3.6405,-3.6405,-3.6405,-3.6405,-3.6405,-3.6405,-3.6405,-3.6405,-3.6452,-3.6709,-3.7415,-3.8243,-3.8725,-4.0247,-4.167,-4.1891,-4.2684,-4.329,-4.329,-4.329,-4.329,-4.329,-4.329,-4.329,-4.329,-4.329,-4.329,-4.329,-4.329,-4.329,-4.329,-4.329,-4.329,-4.329,-4.329,-4.329,-4.329,-4.4259,-4.5227,-4.6138,-4.7088,-4.8047,-4.897,-4.9001,-4.8714,-4.8125,-4.7973,-4.7212,-4.5957,-4.6363,-4.5923,-1.9424,-1.9424,-1.9424,-1.9424,-1.9424,-1.9424,-1.9424,0.0,0.0,-1.9424,-1.945,-1.9457,-1.943,-1.9764,-2.0655,0.0,0.0,-2.6372,0.0,0.0,0.0,0.0,0.0,0.0,0.0,0.0,0.0,-3.2676,-3.2021,-3.1572,-3.1572,-3.1143,-3.0889,-3.0889,-3.0889,-3.0889,-3.0889,-3.0889,-3.0889,-3.0889,-3.0889,-3.0889,-3.0947,-3.2311,-3.38,-3.5343,-3.6703,-3.819,-3.9697,-3.9697,-3.9697,-3.9685,-3.9634,-3.932,-3.8906,-3.8806,-3.8065,-3.7174,-3.7123,-3.6832,-3.6405,-3.6405,-3.6405,-3.6405,-3.6405,-3.6405,-3.6405,-3.6405,-3.6405,-3.6628,-3.7678,-3.8017,-3.8635,-4.076,-4.1462,-4.1891,-4.29,-4.325,-4.329,-4.329,-4.329,-4.329,-4.329,-4.329,-4.329,-4.329,-4.329,-4.329,-4.329,-4.329,-4.329,-4.329,-4.329,-4.329,-4.329,-4.329,-4.329,-4.329,-4.4259,-4.5227,-4.6138,-4.7088,-4.8047,-4.897,-4.9001,-4.8968,-4.89,-4.824,-4.7496,-4.6667,-4.6075,-4.5737,-1.9424,-1.9424,-1.9424,-1.9424,-1.9424,-1.9424,-1.9424,0.0,-1.9424,-1.9424,-1.9424,-1.9424,-1.9424,-1.9606,-2.0132,0.0,0.0,0.0,0.0,0.0,0.0,0.0,0.0,0.0,0.0,0.0,-3.1279,-3.1621,-3.1328,-3.1143,-3.1143,-3.0986,-3.0889,-3.0889,-3.0889,-3.0889,-3.0889,-3.0889,-3.0889,-3.0889,-3.0889,-3.0889,-3.0889,-3.1498,-3.3031,-3.5354,-3.5945,-3.7542,0.0,-3.9697,-3.9697,-3.9697,-3.9697,-3.9559,-3.932,-3.9045,-3.8366,-3.7626,-3.7299,-3.687,-3.6405,-3.6405,-3.6405,-3.6405,-3.6405,-3.6405,-3.6405,-3.6405,-3.6405,-3.6499,-3.6977,-3.7586,-3.8334,-3.9288,-4.059,-4.1726,-4.2193,-4.2805,-4.329,-4.329,-4.329,-4.329,-4.329,-4.329,-4.329,-4.329,-4.329,-4.329,-4.329,-4.329,-4.329,-4.329,-4.329,-4.329,-4.329,-4.329,-4.329,-4.329,-4.3669,-4.4593,-4.6138,-4.6574,-4.7473,-4.897,-4.9001,-4.9001,-4.9001,-4.8714,-4.7953,-4.6786,-4.6955,-4.6566,-1.9424,-1.9424,-1.9424,-1.9424,-1.9424,-1.9424,0.0,0.0,-1.9424,-1.9424,-1.9424,-1.9424,-1.9424,-1.9606,-1.9893,0.0,0.0,-2.5683,0.0,0.0,0.0,0.0,0.0,0.0,0.0,-3.125,-3.1025,-3.0898,-3.0889,-3.0889,-3.0889,-3.0889,-3.0889,-3.0889,-3.0889,-3.0889,-3.0889,-3.0889,-3.0889,-3.0889,-3.0889,-3.0889,-3.0889,-3.1325,-3.2701,-3.4681,-3.5563,-3.7156,0.0,-3.953,-3.9697,-3.9697,-3.9697,-3.9697,-3.9647,-3.9258,-3.8642,-3.7952,-3.7563,-3.696,-3.6405,-3.6405,-3.6405,-3.6405,-3.6405,-3.6628,-3.6883,-3.6883,-3.715,-3.7428,-3.7428,-3.8289,-3.9244,-3.9552,-4.0887,-4.2111,-4.2111,-4.2725,-4.329,-4.329,-4.329,-4.329,-4.329,-4.329,-4.329,-4.329,-4.329,-4.329,-4.329,-4.329,-4.329,-4.329,-4.329,-4.329,-4.329,-4.329,-4.329,-4.329,-4.329,-4.4051,-4.5742,-4.5798,-4.6678,-4.8545,-4.8576,-4.8719,-4.9001,-4.9001,-4.8359,-4.7141,-4.7682,-4.7331,-1.9424,-1.9424,-1.9424,-1.9424,-1.9424,-1.9424,0.0,0.0,-1.9424,-1.9424,-1.9424,-1.9424,-1.9424,-1.9606,-1.9893,-2.0187,-2.3194,0.0,0.0,0.0,0.0,0.0,0.0,0.0,-3.1435,-3.1514,-3.1338,-3.0918,-3.0889,0.0,-3.0889,-3.0889,-3.0889,-3.0889,-3.0889,-3.0889,-3.0889,-3.0889,-3.0889,-3.0889,-3.0889,-3.0889,-3.0947,-3.2426,-3.3067,-3.3293,-3.6205,-3.7518,0.0,-3.9077,-3.9697,-3.9697,-3.9697,-3.9697,-3.9697,-3.9685,-3.8969,-3.8002,-3.8002,-3.7274,-3.6405,-3.6405,-3.6405,-3.6405,-3.6405,-3.7196,-3.8062,-3.8062,-3.8961,-3.9855,-3.9855,-4.0703,-4.185,-4.2981,-4.325,-4.329,-4.329,-4.329,-4.329,-4.329,-4.329,-4.329,-4.329,-4.329,-4.329,-4.329,-4.329,-4.329,-4.329,-4.329,-4.329,-4.329,-4.329,-4.329,-4.329,-4.329,-4.329,-4.329,-4.329,-4.3771,-4.4774,-4.4812,-4.5685,-4.7589,-4.7622,-4.808,-4.9001,-4.9001,-4.8629,-4.7872,-4.7889,-4.7889,-1.9424,-1.9424,-1.9424,-1.9424,-1.9424,-1.9424,-1.9424,0.0,-1.9424,-1.9424,-1.9424,-1.9424,-1.9424,-1.9446,-1.9659,-2.0154,-2.3004,0.0,0.0,0.0,0.0,0.0,0.0,0.0,0.0,0.0,-3.0693,-3.0879,-3.0889,-3.0889,-3.0889,-3.0889,-3.0889,-3.0889,-3.0889,-3.0889,-3.0889,-3.0889,-3.0889,-3.0889,-3.0889,-3.0889,-3.0889,-3.1383,-3.215,-3.3191,-3.5167,-3.6541,-3.7624,-3.9077,-3.9697,-3.9697,-3.9697,-3.9697,-3.9647,-3.927,-3.8655,-3.7952,-3.7575,-3.6973,-3.6405,-3.6405,-3.6405,-3.6405,-3.6405,-3.7196,-3.8289,-3.9094,-3.9593,-3.9899,-3.9899,-4.0746,-4.1504,-4.1099,-4.2181,-4.3076,-4.233,-4.2765,-4.329,-4.329,-4.329,-4.329,-4.329,-4.329,-4.329,-4.329,-4.329,-4.329,-4.329,-4.329,-4.329,-4.329,-4.329,-4.329,-4.329,-4.329,-4.329,-4.329,-4.329,-4.3732,-4.4774,-4.4812,-4.5395,-4.6627,-4.7273,-4.777,-4.8047,-4.8688,-4.8629,-4.7889,-4.7889,-4.7889,0.0,-1.9424,-1.9424,-1.9424,-1.9424,0.0,0.0,0.0,-1.9424,-1.9424,-1.9424,-1.9424,-1.9424,-1.9424,-1.9746,-2.0743,-2.3134,0.0,0.0,0.0,0.0,0.0,0.0,0.0,0.0,-3.0107,-3.0391,-3.0859,-3.0889,-3.0889,-3.0889,-3.0889,-3.0889,-3.0889,-3.0889,-3.0889,-3.0889,-3.0889,-3.0889,-3.0889,-3.0889,-3.0889,-3.0889,-3.0889,-3.171,-3.318,-3.4681,-3.6162,0.0,-3.9077,-3.9697,-3.9697,-3.9697,-3.9697,-3.9634,-3.9082,-3.8504,-3.7927,-3.7374,-3.687,-3.6405,-3.6405,-3.6405,-3.6499,-3.6883,-3.7861,-3.8961,-3.9681,-4.0189,-4.0532,-4.0532,-4.1085,-4.142,-4.0703,-4.1643,-4.2467,-4.1767,-4.2152,-4.2805,-4.321,-4.329,-4.329,-4.329,-4.329,-4.329,-4.329,-4.329,-4.329,-4.329,-4.329,-4.329,-4.329,-4.329,-4.329,-4.329,-4.329,-4.329,-4.329,-4.329,-4.3591,-4.422,-4.422,-4.4684,-4.567,-4.626,-4.69,-4.7589,-4.8545,-4.8765,-4.8342,-4.8342,-4.8159,0.0,0.0,0.0,0.0,0.0,0.0,0.0,0.0,0.0,-1.9424,-1.9424,-1.9424,-1.9424,-1.9424,-1.9962,-2.1729,-2.3393,0.0,0.0,0.0,0.0,0.0,0.0,0.0,-2.9521,-2.9902,-3.0342,-3.081,-3.0869,-3.0889,-3.0889,-3.0859,-3.084,-3.084,-3.081,-3.083,-3.0889,-3.0889,-3.0889,-3.0889,-3.0889,-3.0889,-3.0889,-3.0889,-3.171,0.0,-3.4681,-3.6162,-3.7624,-3.9077,-3.9697,-3.9697,-3.9697,-3.9672,-3.9572,-3.9019,-3.8442,-3.7864,-3.7312,-3.6832,-3.6405,-3.6405,-3.6405,-3.6581,-3.7678,-3.8827,-3.9812,-3.9986,-4.0788,-4.1629,-4.1726,-4.1726,-4.1726,-4.1629,-4.167,-4.1726,-4.1629,-4.167,-4.2029,-4.3076,-4.329,-4.329,-4.329,-4.329,-4.329,-4.329,-4.329,-4.329,-4.329,-4.329,-4.329,-4.329,-4.329,-4.329,-4.329,-4.329,-4.329,-4.329,-4.329,-4.329,-4.329,-4.329,-4.3732,-4.4662,-4.4849,-4.5778,-4.7589,-4.8545,-4.9001,-4.9001,-4.9001,-4.8646,-1.9424,0.0,-1.9424,-1.9424,-1.9424,0.0,0.0,0.0,0.0,0.0,0.0,0.0,0.0,-1.9424,-1.9962,-2.1729,-2.3393,-2.4969,-2.6439,0.0,0.0,0.0,-2.8525,-2.8721,-2.9033,-2.9463,-2.9893,-3.0332,-3.0693,-3.0889,-3.0889,-3.0557,-3.0361,-3.0361,-3.0049,-3.0205,-3.0889,-3.0889,-3.0889,-3.0889,-3.0889,-3.0889,-3.0889,-3.0889,-3.171,-3.318,-3.4681,-3.6162,-3.7624,-3.9077,-3.9697,-3.9697,-3.9697,-3.9433,-3.9045,-3.8417,-3.7852,-3.7299,-3.6795,-3.6518,-3.6405,-3.6405,-3.6405,-3.6452,-3.6709,-3.7586,-3.8903,-4.0689,-4.1378,-4.1809,-4.2684,-4.29,-4.2684,-4.1809,-4.229,-4.2684,-4.1809,-4.229,-4.2981,-4.325,-4.329,-4.329,-4.329,-4.329,-4.329,-4.329,-4.329,-4.329,-4.329,-4.329,-4.329,-4.329,-4.329,-4.329,-4.329,-4.329,-4.329,-4.329,-4.329,-4.329,-4.329,-4.329,-4.3409,-4.3669,-4.5122,-4.6435,-4.7589,-4.8545,-4.9001,-4.9001,-4.9001,-4.8917,-2.0206,-1.9924,-1.9424,-1.9424,-1.9424,-1.9424,0.0,0.0,0.0,0.0,0.0,0.0,0.0,0.0,0.0,-2.2554,-2.4167,0.0,0.0,0.0,0.0,0.0,-2.8291,-2.8457,0.0,-2.9131,-2.9453,-2.9873,-3.0146,-3.0283,-3.0283,-3.0049,-2.9912,-2.9912,-2.9687,-2.9861,-3.0283,-3.0283,-3.0283,-3.0283,-3.0283,-3.0381,-3.0624,-3.1294,-3.2504,-3.4181,-3.5672,-3.7015,-3.8203,-3.8988,-3.9157,-3.8919,-3.8919,-3.873,-3.8404,-3.7839,-3.7437,-3.7098,-3.6606,-3.6405,-3.6405,-3.6405,-3.6405,-3.6405,-3.6405,-3.6849,-3.7678,-3.9508,-4.0376,-4.1085,-4.2208,-4.2508,-4.2371,-4.1767,-4.207,-4.233,-4.1726,-4.207,-4.2684,-4.321,-4.329,-4.329,-4.329,-4.329,-4.329,-4.329,-4.329,-4.329,-4.329,-4.329,-4.329,-4.329,-4.329,-4.329,-4.329,-4.329,-4.329,-4.329,-4.329,-4.329,-4.329,-4.329,-4.329,-4.329,-4.4765,-4.6012,-4.6952,-4.7901,-4.8576,-4.9001,-4.9001,-4.8832,-2.0923,-2.0364,-1.9424,-1.9424,-1.9424,-1.9424,0.0,0.0,0.0,0.0,0.0,0.0,0.0,0.0,0.0,0.0,0.0,0.0,0.0,0.0,0.0,-2.8291,-2.8291,0.0,-2.8789,-2.8877,-2.9072,-2.9443,-2.9531,-2.9626,-2.9626,-2.9502,-2.9473,-2.9473,-2.9404,-2.9375,-2.9375,-2.9502,-2.9626,-2.9626,-2.9626,-2.9756,-3.0154,-3.1401,-3.3089,-3.5119,-3.6417,0.0,-3.8743,-3.8743,-3.8442,-3.8002,-3.8002,-3.7952,-3.7826,-3.7362,-3.7136,-3.6998,-3.6568,-3.6405,-3.6405,-3.6405,-3.6405,-3.6405,-3.6405,-3.6405,-3.6581,-3.7586,-3.8693,-3.9885,-4.1042,-4.1462,-4.1587,-4.1587,-4.1726,-4.185,-4.185,-4.185,-4.2152,-4.3115,-4.329,-4.329,-4.329,-4.329,-4.329,-4.329,-4.329,-4.329,-4.329,-4.329,-4.329,-4.329,-4.329,-4.329,-4.329,-4.329,-4.329,-4.329,-4.329,-4.329,-4.329,-4.329,-4.329,-4.329,-4.4297,-4.519,-4.5977,-4.7054,-4.8015,-4.8798,-4.894,-4.868,-1.9707,-1.9591,-1.9424,-1.9424,-1.9424,-1.9424,0.0,0.0,0.0,0.0,0.0,0.0,0.0,0.0,0.0,0.0,0.0,-2.8067,0.0,0.0,-2.8291,-2.8291,0.0,-2.831,-2.8389,-2.8711,-2.8945,-2.9014,-2.9365,-2.9626,-2.9626,-2.9219,-2.9023,-2.9023,-2.8672,-2.8486,-2.8486,-2.9209,-2.9626,-2.9626,-2.9626,-2.96,-2.9724,-2.9938,-3.1467,-3.4034,0.0,-3.5789,-3.814,-3.814,-3.809,-3.8002,-3.8002,-3.7713,-3.7299,-3.7211,-3.6885,-3.6518,-3.6443,-3.6405,-3.6405,-3.6405,-3.6405,-3.6405,-3.6405,-3.6405,-3.6452,-3.6628,-3.7507,-3.8649,-3.9842,-4.0873,-4.1587,-4.1587,-4.233,-4.3036,-4.3036,-4.3036,-4.3076,-4.325,-4.329,-4.329,-4.329,-4.329,-4.329,-4.329,-4.329,-4.329,-4.329,-4.329,-4.329,-4.329,-4.329,-4.329,-4.329,-4.329,-4.329,-4.329,-4.329,-4.329,-4.329,-4.329,-4.329,-4.329,-4.4297,-4.4871,-4.502,-4.6747,-4.7655,-4.7836,-4.8625,-4.8951,-2.0364,-2.004,-1.9424,-1.9424,-1.9424,-1.9424,-1.9424,0.0,0.0,0.0,0.0,0.0,0.0,0.0,0.0,0.0,0.0,-2.8291,-2.8291,-2.8291,-2.8291,0.0,0.0,-2.8291,-2.8291,-2.8467,-2.8584,-2.8584,-2.8769,-2.8877,-2.8877,-2.8691,-2.8584,-2.8584,-2.8398,-2.8291,-2.8291,-2.8682,-2.8877,-2.8877,-2.8877,-2.8994,-2.9274,-3.0067,-3.1666,-3.3862,0.0,-3.5956,-3.7563,-3.7563,-3.7387,-3.7123,-3.7123,-3.696,-3.6782,-3.6782,-3.6619,-3.6405,-3.6405,-3.6405,-3.6405,-3.6405,-3.6405,-3.6405,-3.6405,-3.6405,-3.6405,-3.6405,-3.6803,-3.7461,-3.8604,-3.9302,-4.0017,-4.128,-4.1988,-4.2548,-4.3155,-4.329,-4.329,-4.329,-4.329,-4.329,-4.329,-4.329,-4.329,-4.329,-4.329,-4.329,-4.329,-4.329,-4.329,-4.329,-4.329,-4.329,-4.329,-4.329,-4.329,-4.329,-4.329,-4.329,-4.329,-4.329,-4.329,-4.329,-4.3732,-4.4259,-4.4812,-4.5685,-4.6609,-4.7622,-4.8047,-4.8513,-2.0752,-2.0256,-1.9424,-1.9424,0.0,-1.9424,-1.9424,0.0,0.0,0.0,0.0,0.0,0.0,0.0,0.0,0.0,-2.8291,-2.8291,-2.8291,-2.8291,-2.8291,-2.8291,-2.8291,-2.8291,-2.8291,-2.8291,-2.8291,-2.8291,-2.8291,-2.8291,-2.8291,-2.8291,-2.8291,-2.8291,-2.8291,-2.8291,-2.8291,-2.8291,-2.8291,-2.8291,-2.8291,-2.8467,-2.8824,-2.9916,-3.1349,-3.3044,-3.4497,-3.5675,-3.6587,-3.6889,-3.6782,-3.6405,-3.6405,-3.6405,-3.6405,-3.6405,-3.6405,-3.6405,-3.6405,-3.6405,-3.6405,-3.6405,-3.6405,-3.6405,-3.6405,-3.6405,-3.6405,-3.6405,-3.6405,-3.6581,-3.7507,-3.7893,-3.8545,-4.0376,-4.0986,-4.142,-4.2304,-4.2725,-4.29,-4.29,-4.3115,-4.329,-4.329,-4.329,-4.329,-4.329,-4.329,-4.329,-4.329,-4.329,-4.329,-4.329,-4.329,-4.329,-4.329,-4.329,-4.329,-4.329,-4.329,-4.329,-4.329,-4.329,-4.329,-4.329,-4.329,-4.3669,-4.445,-4.4699,-4.5541,-4.6952,-4.7389,-4.7982,-1.954,-1.9482,-1.9424,-1.9424,0.0,0.0,-1.9424,-1.9424,0.0,0.0,0.0,0.0,0.0,0.0,0.0,-2.8237,-2.8291,-2.8291,-2.8291,0.0,-2.8291,-2.8291,-2.8291,-2.8291,-2.8291,-2.8291,-2.8291,-2.8291,-2.8291,-2.8291,-2.8291,-2.8291,-2.8291,-2.8291,-2.8291,-2.8291,-2.8291,-2.8291,-2.8291,-2.8291,-2.8291,-2.831,-2.834,-2.8437,-2.9268,-3.062,-3.1986,-3.3346,-3.4689,-3.592,-3.6443,-3.6405,-3.6405,-3.6405,-3.6405,-3.6405,-3.6405,-3.6405,-3.6405,-3.6405,-3.6405,-3.6405,-3.6405,-3.6405,-3.6405,-3.6405,-3.6405,-3.6405,-3.6405,-3.6405,-3.6499,-3.7322,-3.8153,-3.8334,-3.9227,-4.0029,-4.0116,-4.0958,-4.1726,-4.1726,-4.2589,-4.329,-4.329,-4.329,-4.329,-4.329,-4.329,-4.329,-4.329,-4.329,-4.329,-4.329,-4.329,-4.329,-4.329,-4.329,-4.329,-4.329,-4.329,-4.329,-4.329,-4.329,-4.329,-4.329,-4.329,-4.3329,-4.3409,-4.4335,-4.4887,-4.5058,-4.6797,-4.7622,-1.9649,-1.9424,-1.9424,-1.9424,0.0,0.0,0.0,0.0,0.0,0.0,0.0,0.0,0.0,0.0,0.0,-2.8291,-2.8291,-2.8291,-2.8291,-2.8291,-2.8291,-2.8291,-2.8291,-2.8291,-2.8291,-2.8291,-2.8291,-2.8291,-2.8291,-2.8291,-2.8291,-2.8291,-2.8291,-2.8291,-2.8291,-2.8291,-2.8291,-2.8291,-2.8291,-2.8291,-2.8291,-2.8291,-2.8291,-2.8291,-2.9059,-3.0369,-3.1735,-3.3105,-3.4483,-3.5858,-3.6405,-3.6405,-3.6405,-3.6405,-3.6405,-3.6405,-3.6405,-3.6405,-3.6405,-3.6405,-3.6405,-3.6405,-3.6405,-3.6405,-3.6405,-3.6405,-3.6405,-3.6405,-3.6405,-3.6405,-3.6405,-3.6709,-3.7243,-3.7939,-3.8469,-3.9006,-3.9724,-4.0788,-4.1587,-4.1587,-4.2508,-4.329,-4.329,-4.329,-4.329,-4.329,-4.329,-4.329,-4.329,-4.329,-4.329,-4.329,-4.329,-4.329,-4.329,-4.329,-4.329,-4.329,-4.329,-4.329,-4.329,-4.329,-4.329,-4.329,-4.329,-4.329,-4.329,-4.3669,-4.4182,-4.4849,-4.6119,-4.702,-1.9815,-1.9424,-1.9424,0.0,0.0,0.0,0.0,0.0,0.0,0.0,0.0,0.0,0.0,0.0,0.0,0.0,-2.8291,-2.8291,-2.8291,-2.8291,-2.8291,-2.8291,-2.8291,-2.8291,-2.8291,-2.8291,-2.8291,-2.8291,-2.8291,-2.8291,-2.8291,-2.8291,-2.8291,-2.8291,-2.8291,-2.8291,-2.8291,-2.8291,-2.8291,-2.8291,-2.8291,-2.8291,-2.8291,-2.8291,-2.8804,-2.9765,-3.1531,-3.2844,-3.3871,-3.5655,-3.6405,-3.6405,-3.6405,-3.6405,-3.6405,-3.6405,-3.6405,-3.6405,-3.6405,-3.6405,-3.6405,-3.6405,-3.6405,-3.6405,-3.6405,-3.6405,-3.6405,-3.6405,-3.6405,-3.6405,-3.6405,-3.6405,-3.6581,-3.7368,-3.754,-3.7815,-3.8617,-3.9697,-4.059,-4.1,-4.1988,-4.29,-4.325,-4.329,-4.329,-4.329,-4.329,-4.329,-4.329,-4.329,-4.329,-4.329,-4.329,-4.329,-4.329,-4.329,-4.329,-4.329,-4.329,-4.329,-4.329,-4.329,-4.329,-4.329,-4.329,-4.329,-4.329,-4.329,-4.3669,-4.4373,-4.5306,-4.6083,-1.9815,-1.9424,0.0,0.0,0.0,0.0,0.0,0.0,0.0,0.0,0.0,0.0,0.0,0.0,0.0,-2.8291,-2.8291,-2.8291,-2.8291,-2.8291,-2.8291,-2.8291,-2.8291,-2.8291,-2.8291,-2.8291,-2.8291,-2.8291,-2.8291,-2.8291,-2.8291,-2.8291,-2.8291,-2.8291,-2.8291,-2.8291,-2.8291,-2.8291,-2.8291,-2.8291,-2.8291,-2.8291,-2.8291,-2.8291,-2.8291,-2.8451,-3.1133,-3.228,-3.2532,-3.5246,-3.6405,-3.6405,-3.6405,-3.6405,-3.6405,-3.6405,-3.6405,-3.6405,-3.6405,-3.6405,-3.6405,-3.6405,-3.6405,-3.6405,-3.6405,-3.6405,-3.6405,-3.6405,-3.6405,-3.6405,-3.6405,-3.6405,-3.6405,-3.6405,-3.6405,-3.6405,-3.6405,-3.7276,-3.8469,-3.9681,-4.0831,-4.1947,-4.3076,-4.325,-4.325,-4.329,-4.329,-4.329,-4.329,-4.329,-4.329,-4.329,-4.329,-4.329,-4.329,-4.329,-4.329,-4.329,-4.329,-4.329,-4.329,-4.329,-4.329,-4.329,-4.329,-4.329,-4.329,-4.329,-4.329,-4.3329,-4.432,-4.4812,-1.9815,0.0,0.0,0.0,0.0,0.0,0.0,0.0,0.0,0.0,0.0,0.0,-2.8014,0.0,0.0,-2.8291,-2.8291,-2.8291,-2.8291,-2.8291,-2.8291,-2.8291,-2.8291,-2.8291,-2.8291,-2.8291,-2.8291,-2.8291,-2.8291,-2.8291,-2.8291,-2.8291,-2.8291,-2.8291,-2.8291,-2.8291,-2.8291,-2.8291,-2.8291,-2.8291,-2.8291,-2.8291,-2.8291,-2.8291,-2.8291,-2.8451,-3.1133,-3.228,-3.2532,-3.5246,-3.6405,-3.6405,-3.6405,-3.6405,-3.6405,-3.6405,-3.6405,-3.6405,-3.6405,-3.6405,-3.6405,-3.6405,-3.6405,-3.6405,-3.6405,-3.6405,-3.6405,-3.6405,-3.6405,-3.6405,-3.6405,-3.6405,-3.6405,-3.6405,-3.6405,-3.6405,-3.6405,-3.7276,-3.8469,-3.9681,-4.0145,-4.0746,-4.1906,-4.1435,-4.1183,-4.1988,-4.2111,-4.2371,-4.321,-4.329,-4.329,-4.329,-4.329,-4.329,-4.329,-4.329,-4.329,-4.329,-4.329,-4.329,-4.329,-4.329,-4.329,-4.329,-4.329,-4.329,-4.329,-4.329,-4.329,-4.3329,-4.432,-4.4812,-2.1544,0.0,0.0,0.0,0.0,0.0,0.0,0.0,0.0,0.0,0.0,0.0,-2.8121,-2.8291,0.0,-2.8291,-2.8291,-2.8291,-2.8291,-2.8291,-2.8291,-2.8291,-2.8291,-2.8291,-2.8291,-2.8291,-2.8291,-2.8291,-2.8291,-2.8291,-2.8291,-2.8291,-2.8291,-2.8291,-2.8291,-2.8291,-2.8291,-2.8291,-2.8291,-2.8291,-2.8291,-2.8291,-2.8291,-2.8291,-2.8601,-2.926,-3.1938,-3.3453,-3.4044,-3.5702,-3.6405,-3.6405,-3.6405,-3.6405,-3.6405,-3.6405,-3.6405,-3.6405,-3.6405,-3.6405,-3.6405,-3.6405,-3.6405,-3.6405,-3.6405,-3.6405,-3.6405,-3.6405,-3.6405,-3.6405,-3.6405,-3.6405,-3.6405,-3.6405,-3.6405,-3.6405,-3.6405,-3.693,-3.7906,-3.9593,-3.9492,-3.9697,-4.1337,-4.0661,-4.0275,-4.142,-4.1988,-4.2508,-4.321,-4.329,-4.329,-4.329,-4.329,-4.329,-4.329,-4.329,-4.329,-4.329,-4.329,-4.329,-4.329,-4.329,-4.329,-4.329,-4.329,-4.329,-4.329,-4.329,-4.329,-4.3329,-4.3927,-4.422,0.0,0.0,0.0,0.0,0.0,0.0,0.0,0.0,0.0,0.0,0.0,-2.8291,-2.8291,-2.8291,-2.8291,-2.8291,-2.8291,-2.8291,-2.8291,-2.8291,-2.8291,-2.8291,-2.8291,-2.8291,-2.8291,-2.8291,-2.8291,-2.8291,-2.8291,-2.8291,-2.8291,-2.8291,-2.8291,-2.8291,-2.8291,-2.8291,-2.8291,-2.8291,-2.8291,-2.8291,-2.8291,-2.8291,-2.8291,-2.8291,-2.9102,-3.0618,-3.3105,-3.5017,-3.6405,-3.6405,-3.6405,-3.6405,-3.6405,-3.6405,-3.6405,-3.6405,-3.6405,-3.6405,-3.6405,-3.6405,-3.6405,-3.6405,-3.6405,-3.6405,-3.6405,-3.6405,-3.6405,-3.6405,-3.6405,-3.6405,-3.6405,-3.6405,-3.6405,-3.6405,-3.6405,-3.6405,-3.6405,-3.6405,-3.707,-3.9285,-3.8783,-3.868,-4.0887,-4.0347,-4.0015,-4.1253,-4.2508,-4.329,-4.329,-4.329,-4.329,-4.329,-4.329,-4.329,-4.329,-4.329,-4.329,-4.329,-4.329,-4.329,-4.329,-4.329,-4.329,-4.329,-4.329,-4.329,-4.329,-4.329,-4.329,-4.329,-4.329,-4.329,0.0,0.0,0.0,0.0,0.0,0.0,0.0,0.0,0.0,0.0,0.0,-2.8291,-2.8291,-2.8291,-2.8291,-2.8291,-2.8291,-2.8291,-2.8291,-2.8291,-2.8291,-2.8291,-2.8291,-2.8291,-2.8291,-2.8291,-2.8291,-2.8291,-2.8291,-2.8291,-2.8291,-2.8291,-2.8291,-2.8291,-2.8291,-2.8291,-2.8291,-2.8291,-2.8291,-2.8291,-2.8291,-2.8291,-2.8291,-2.8291,-2.9618,-3.1876,-3.2482,-3.4142,-3.6405,-3.6405,-3.6405,-3.6405,-3.6405,-3.6405,-3.6405,-3.6405,-3.6405,-3.6405,-3.6405,-3.6405,-3.6405,-3.6405,-3.6405,-3.6405,-3.6405,-3.6405,-3.6405,-3.6405,-3.6405,-3.6405,-3.6405,-3.6405,-3.6405,-3.6405,-3.6405,-3.6405,-3.6405,-3.6405,-3.6803,-3.8211,-3.7553,-3.7196,-3.859,-3.7893,-3.7861,-3.9929,-4.2003,-4.329,-4.329,-4.329,-4.329,-4.329,-4.329,-4.329,-4.329,-4.329,-4.329,-4.329,-4.329,-4.329,-4.329,-4.329,-4.329,-4.329,-4.329,-4.329,-4.329,-4.329,-4.329,-4.329,-4.329,-4.329,0.0,0.0,0.0,0.0,0.0,0.0,0.0,0.0,0.0,0.0,0.0,-2.8291,-2.8291,-2.8291,-2.8291,-2.8291,-2.8291,-2.8291,-2.8291,-2.8291,-2.8291,-2.8291,-2.8291,-2.8291,-2.8291,-2.8291,-2.8291,-2.8291,-2.8291,-2.8291,-2.8291,-2.8291,-2.8291,-2.8291,-2.8291,-2.8291,-2.8291,-2.8291,-2.8291,-2.8291,-2.8291,-2.8291,-2.8344,-2.8953,-3.0016,-3.1429,-3.2744,-3.4105,-3.5463,-3.6168,-3.6405,-3.6405,-3.6405,-3.6405,-3.6405,-3.6405,-3.6405,-3.6405,-3.6405,-3.6405,-3.6405,-3.6405,-3.6405,-3.6405,-3.6405,-3.6405,-3.6405,-3.6405,-3.6405,-3.6405,-3.6405,-3.6405,-3.6405,-3.6405,-3.6405,-3.6405,-3.6405,-3.6405,-3.6756,-3.7893,-3.7196,-3.6756,-3.7893,-3.8075,-3.8482,-3.9724,-4.1823,-4.329,-4.329,-4.329,-4.329,-4.329,-4.329,-4.329,-4.329,-4.329,-4.329,-4.329,-4.329,-4.329,-4.329,-4.329,-4.329,-4.329,-4.329,-4.329,-4.329,-4.329,-4.329,-4.329,-4.329,-4.329,0.0,0.0,0.0,0.0,0.0,0.0,0.0,0.0,0.0,0.0,-2.8291,-2.8291,-2.8291,-2.8291,-2.8291,-2.8291,-2.8291,-2.8291,-2.8291,-2.8291,-2.8291,-2.8291,-2.8291,-2.8291,-2.8291,-2.8291,-2.8291,-2.8291,-2.8291,-2.8291,-2.8291,-2.8291,-2.8291,-2.8291,-2.8291,-2.8291,-2.8291,-2.8291,-2.8291,-2.8291,-2.8291,-2.8291,-2.8344,-2.946,-3.0214,-3.0773,-3.3315,-3.4532,-3.4836,-3.5966,-3.6405,-3.6405,-3.6405,-3.6405,-3.6405,-3.6405,-3.6405,-3.6405,-3.6405,-3.6405,-3.6405,-3.6405,-3.6405,-3.6405,-3.6405,-3.6405,-3.6405,-3.6405,-3.6405,-3.6405,-3.6405,-3.6405,-3.6405,-3.6405,-3.6405,-3.6405,-3.6405,-3.6405,-3.6675,-3.7632,-3.707,-3.6709,-3.7632,-3.8961,-3.9812,-3.9623,-4.1518,-4.3036,-4.3036,-4.282,-4.286,-4.325,-4.3115,-4.3076,-4.329,-4.329,-4.329,-4.329,-4.329,-4.329,-4.329,-4.329,-4.329,-4.329,-4.329,-4.329,-4.329,-4.329,-4.329,-4.329,-4.329,-4.329,0.0,0.0,0.0,0.0,0.0,0.0,0.0,0.0,0.0,0.0,-2.8291,-2.8291,-2.8291,-2.8291,-2.8291,-2.8291,-2.8291,-2.8291,-2.8291,-2.8291,-2.8291,-2.8291,-2.8291,-2.8291,-2.8291,-2.8291,-2.8291,-2.8291,-2.8291,-2.8291,-2.8291,-2.8291,-2.8291,-2.8291,-2.8291,-2.8291,-2.8291,-2.8291,-2.8291,-2.8291,-2.8291,-2.8291,-2.8291,-2.8495,-2.9807,-3.2129,-3.3712,-3.5078,-3.6156,-3.631,-3.6405,-3.6405,-3.6405,-3.6405,-3.6405,-3.6405,-3.6405,-3.6405,-3.6405,-3.6405,-3.6405,-3.6405,-3.6405,-3.6405,-3.6405,-3.6405,-3.6405,-3.6405,-3.6405,-3.6405,-3.6405,-3.6405,-3.6405,-3.6405,-3.6405,-3.6405,-3.6405,-3.6405,-3.6452,-3.6581,-3.6499,-3.6452,-3.6581,-3.8437,-3.9549,-3.8514,-4.0333,-4.185,-4.185,-4.0958,-4.1099,-4.3076,-4.2412,-4.2249,-4.321,-4.329,-4.329,-4.329,-4.329,-4.329,-4.329,-4.329,-4.329,-4.329,-4.329,-4.329,-4.329,-4.329,-4.329,-4.329,-4.329,-4.329,0.0,0.0,0.0,0.0,0.0,0.0,0.0,0.0,0.0,-2.6943,-2.7726,-2.8291,-2.8291,-2.8291,-2.8291,-2.8291,-2.8291,-2.8291,-2.8291,-2.8291,-2.8291,-2.8291,-2.8291,-2.8291,-2.8291,-2.8291,-2.8291,-2.8291,-2.8291,-2.8291,-2.8291,-2.8291,-2.8291,-2.8291,-2.8291,-2.8291,-2.8291,-2.8291,-2.8291,-2.8291,-2.8291,-2.8291,-2.8344,-2.9059,-3.0068,-3.1276,-3.2644,-3.4019,-3.5319,-3.6108,-3.6405,-3.6405,-3.6405,-3.6405,-3.6405,-3.6405,-3.6405,-3.6405,-3.6405,-3.6405,-3.6405,-3.6405,-3.6405,-3.6405,-3.6405,-3.6405,-3.6405,-3.6405,-3.6405,-3.6405,-3.6405,-3.6405,-3.6405,-3.6405,-3.6405,-3.6405,-3.6405,-3.6405,-3.6405,-3.6405,-3.6405,-3.6405,-3.6405,-3.836,-3.9492,-3.8289,-4.0118,-4.1378,-4.0746,-4.0189,-4.0546,-4.2152,-4.1891,-4.207,-4.321,-4.329,-4.329,-4.329,-4.329,-4.329,-4.329,-4.329,-4.329,-4.329,-4.329,-4.329,-4.329,-4.329,-4.329,-4.329,-4.329,-4.329,0.0,0.0,0.0,0.0,0.0,0.0,0.0,0.0,0.0,0.0,-2.6381,-2.7286,-2.7672,-2.8067,-2.8291,-2.8291,-2.8291,-2.8291,-2.8291,-2.8291,-2.8291,-2.8291,-2.8291,-2.8291,-2.8291,-2.8291,-2.8291,-2.8291,-2.8291,-2.8291,-2.8291,-2.8291,-2.8291,-2.8291,-2.8291,-2.8291,-2.8291,-2.8291,-2.8291,-2.8291,-2.8291,-2.8291,-2.8344,-2.9365,-2.9964,-3.0411,-3.209,-3.3415,-3.4483,-3.5858,-3.6405,-3.6405,-3.6405,-3.6405,-3.6405,-3.6405,-3.6405,-3.6405,-3.6405,-3.6405,-3.6405,-3.6405,-3.6405,-3.6405,-3.6405,-3.6405,-3.6405,-3.6405,-3.6405,-3.6405,-3.6405,-3.6405,-3.6405,-3.6405,-3.6405,-3.6405,-3.6405,-3.6405,-3.6405,-3.6405,-3.6405,-3.6405,-3.6405,-3.8088,-3.905,-3.7848,-3.942,-4.0419,-3.9536,-3.9183,-3.9667,-4.142,-4.1337,-4.1726,-4.317,-4.329,-4.329,-4.329,-4.329,-4.329,-4.329,-4.329,-4.329,-4.329,-4.329,-4.329,-4.329,-4.329,-4.329,-4.329,-4.329,-4.329,0.0,0.0,0.0,0.0,0.0,0.0,0.0,0.0,0.0,0.0,-2.3989,-2.4488,-2.5936,-2.734,-2.8291,-2.8291,-2.8291,-2.8291,-2.8291,-2.8291,-2.8291,-2.8291,-2.8291,-2.8291,-2.8291,-2.8291,-2.8291,-2.8291,-2.8291,-2.8291,-2.8291,-2.8291,-2.8291,-2.8291,-2.8291,-2.8291,-2.8291,-2.8291,-2.8291,-2.8291,-2.8291,-2.8291,-2.8291,-2.8398,-2.9102,-3.0473,-3.3116,-3.4337,-3.4483,-3.5858,-3.6405,-3.6405,-3.6405,-3.6405,-3.6405,-3.6405,-3.6405,-3.6405,-3.6405,-3.6405,-3.6405,-3.6405,-3.6405,-3.6405,-3.6405,-3.6405,-3.6405,-3.6405,-3.6405,-3.6405,-3.6405,-3.6405,-3.6405,-3.6405,-3.6405,-3.6405,-3.6405,-3.6405,-3.6405,-3.6405,-3.6405,-3.6405,-3.6405,-3.7415,-3.7815,-3.6675,-3.7494,-3.8243,-3.8198,-3.7243,-3.7848,-4.1239,-4.0618,-4.0887,-4.3115,-4.329,-4.329,-4.329,-4.329,-4.329,-4.329,-4.329,-4.329,-4.329,-4.329,-4.329,-4.329,-4.329,-4.329,-4.329,-4.329,-4.329,0.0,0.0,0.0,0.0,0.0,0.0,0.0,0.0,0.0,-2.3461,-2.3883,-2.4481,-2.4098,-2.5595,-2.7222,-2.8121,-2.8291,-2.8291,-2.8291,-2.8291,-2.8291,-2.8291,-2.8291,-2.8291,-2.8291,-2.8291,-2.8291,-2.8291,-2.8291,-2.8291,-2.8291,-2.8291,-2.8291,-2.8291,-2.8291,-2.8291,-2.8291,-2.8291,-2.8291,-2.8291,-2.8291,-2.8291,-2.8291,-2.8291,-2.8548,-2.9102,-3.0979,-3.2755,-3.4434,-3.4933,-3.5619,-3.6405,-3.6405,-3.6405,-3.6405,-3.6405,-3.6405,-3.6405,-3.6405,-3.6405,-3.6405,-3.6405,-3.6405,-3.6405,-3.6405,-3.6405,-3.6405,-3.6405,-3.6405,-3.6405,-3.6405,-3.6405,-3.6405,-3.6405,-3.6405,-3.6405,-3.6405,-3.6405,-3.6405,-3.6405,-3.6405,-3.6405,-3.6405,-3.7368,-3.7723,-3.6581,-3.7368,-3.7848,-3.7103,-3.6675,-3.715,-3.9156,-3.9667,-4.0546,-4.207,-4.29,-4.329,-4.329,-4.329,-4.329,-4.329,-4.329,-4.329,-4.329,-4.329,-4.329,-4.329,-4.329,-4.329,-4.329,-4.329,-4.329,0.0,0.0,0.0,0.0,0.0,0.0,0.0,0.0,0.0,-2.3014,-2.3112,-2.3377,-2.29,-2.3614,-2.493,-2.6861,-2.7189,-2.7357,-2.7809,-2.7988,-2.8086,-2.8086,-2.8203,-2.8291,-2.8291,-2.8291,-2.8291,-2.8291,-2.8291,-2.8291,-2.8291,-2.8291,-2.8291,-2.8291,-2.8291,-2.8291,-2.8291,-2.8291,-2.8291,-2.8291,-2.8291,-2.8291,-2.8291,-2.8291,-2.8291,-2.8344,-2.926,-3.0927,-3.3066,-3.3514,-3.452,-3.5715,-3.5715,-3.6013,-3.6405,-3.6405,-3.6405,-3.6405,-3.6405,-3.6405,-3.6405,-3.6405,-3.6405,-3.6405,-3.6405,-3.6405,-3.6405,-3.6405,-3.6405,-3.6405,-3.6405,-3.6405,-3.6405,-3.6405,-3.6405,-3.6405,-3.6405,-3.6405,-3.6405,-3.6405,-3.6405,-3.6405,-3.6405,-3.7023,-3.7276,-3.6499,-3.7023,-3.7289,-3.6499,-3.6405,-3.6849,-3.7984,-3.8827,-3.9915,-4.1462,-4.229,-4.29,-4.329,-4.329,-4.329,-4.329,-4.329,-4.329,-4.329,-4.329,-4.329,-4.329,-4.329,-4.329,-4.329,-4.329,-4.329,0.0,0.0,0.0,0.0,0.0,0.0,0.0,0.0,-2.2609,-2.2503,-2.1433,-2.0901,-2.2343,-2.1486,-2.1532,-2.4402,-2.4907,-2.5454,-2.6746,-2.7383,-2.7699,-2.7699,-2.8008,-2.8252,-2.8252,-2.8252,-2.8252,-2.8252,-2.8252,-2.8252,-2.8252,-2.8252,-2.8252,-2.8252,-2.8252,-2.8262,-2.8271,-2.8271,-2.8281,-2.8291,-2.8291,-2.8291,-2.8291,-2.8291,-2.8291,-2.8291,-2.8291,-2.9049,-3.0317,-3.1684,-3.3055,-3.4337,-3.4385,-3.5223,-3.6358,-3.6405,-3.6405,-3.6405,-3.6405,-3.6405,-3.6405,-3.6405,-3.6405,-3.6405,-3.6405,-3.6405,-3.6405,-3.6405,-3.6405,-3.6405,-3.6405,-3.6405,-3.6405,-3.6405,-3.6405,-3.6405,-3.6405,-3.6405,-3.6405,-3.6405,-3.6405,-3.6405,-3.6405,-3.6405,-3.6405,-3.6405,-3.6405,-3.6405,-3.6405,-3.6405,-3.6803,-3.7939,-3.8107,-3.9067,-4.1378,-4.1587,-4.2111,-4.325,-4.329,-4.329,-4.329,-4.329,-4.329,-4.329,-4.329,-4.329,-4.329,-4.329,-4.329,-4.329,-4.329,-4.329,-1.8611,0.0,0.0,0.0,0.0,0.0,0.0,0.0,0.0,-2.1956,-2.0828,-1.9949,-2.0359,-1.9379,-1.9017,-2.082,-2.3289,-2.5133,-2.5506,-2.6525,-2.7197,-2.7197,-2.7295,-2.7373,-2.7373,-2.7373,-2.7373,0.0,-2.7373,-2.7373,-2.7373,-2.7373,-2.7373,-2.7373,-2.7373,-2.7519,-2.7832,-2.7894,-2.7988,-2.8291,-2.8291,-2.8291,-2.8291,-2.8291,-2.8291,-2.8291,-2.8291,-2.8495,-2.8953,-3.0317,-3.1633,-3.3005,-3.3981,-3.4629,-3.5078,-3.6061,-3.6405,-3.6405,-3.6405,-3.6405,-3.6405,-3.6405,-3.6405,-3.6405,-3.6405,-3.6405,-3.6405,-3.6405,-3.6405,-3.6405,-3.6405,-3.6405,-3.6405,-3.6405,-3.6405,-3.6405,-3.6405,-3.6405,-3.6405,-3.6405,-3.6405,-3.6405,-3.6405,-3.6405,-3.6405,-3.6405,-3.6405,-3.6405,-3.6405,-3.6405,-3.6546,-3.6849,-3.8392,-3.9667,-4.0332,-4.1864,-4.2941,-4.329,-4.329,-4.329,-4.329,-4.329,-4.329,-4.329,-4.329,-4.329,-4.329,-4.329,-4.329,-4.329,-4.329,-4.329,0.0,0.0,0.0,0.0,0.0,0.0,-1.9487,-2.013,-2.0865,0.0,-2.059,-1.9576,-1.9576,-1.8968,-1.8708,-1.9472,-2.1851,-2.3642,-2.3642,-2.4418,-2.5051,-2.5051,-2.5732,-2.6153,-2.6153,-2.6695,-2.7012,-2.7012,-2.7012,-2.7012,-2.7012,-2.7012,-2.7012,-2.7012,-2.7012,-2.7139,-2.7393,-2.7393,-2.7519,-2.7764,-2.7939,-2.8027,-2.8037,-2.8213,-2.8291,-2.8291,-2.8291,-2.8291,-2.8344,-2.9154,-3.0266,-3.1531,-3.2342,-3.3005,-3.3712,-3.5066,-3.5571,-3.5667,-3.6216,-3.6405,-3.6405,-3.6405,-3.6405,-3.6405,-3.6405,-3.6405,-3.6405,-3.6405,-3.6405,-3.6405,-3.6405,-3.6405,-3.6405,-3.6405,-3.6405,-3.6405,-3.6405,-3.6405,-3.6405,-3.6405,-3.6405,-3.6405,-3.6405,-3.6405,-3.6405,-3.6405,-3.6405,-3.6405,-3.6405,-3.6405,-3.6405,-3.6405,-3.7599,-3.8617,-3.9094,-4.039,-4.1337,-4.1823,-4.2345,-4.2589,-4.2589,-4.3036,-4.329,-4.329,-4.329,-4.329,-4.329,-4.329,-4.329,-4.329,-4.329,-4.329,0.0,0.0,0.0,0.0,0.0,0.0,-1.9051,-1.9176,-1.9434,-2.1121,-2.0279,-1.9324,-1.9516,-1.942,-1.9324,-1.9324,-2.0412,-2.1347,-2.1651,-2.1991,-2.2206,-2.2206,-2.3635,-2.4625,-2.4625,-2.5694,-2.6448,-2.6601,-2.6764,-2.6875,-2.6875,-2.6875,-2.6875,-2.6875,-2.6875,-2.6894,-2.6943,-2.6943,-2.6973,-2.7021,-2.7402,-2.7598,-2.766,-2.8027,-2.8223,-2.8223,-2.8271,-2.8291,-2.8291,-2.8291,-2.9006,-3.0068,-3.0214,-3.1019,-3.223,-3.3662,-3.4288,-3.4581,-3.5763,-3.6263,-3.6405,-3.6405,-3.6405,-3.6405,-3.6405,-3.6405,-3.6405,-3.6405,-3.6405,-3.6405,-3.6405,-3.6405,-3.6405,-3.6405,-3.6405,-3.6405,-3.6405,-3.6405,-3.6405,-3.6405,-3.6405,-3.6405,-3.6405,-3.6405,-3.6405,-3.6405,-3.6405,-3.6405,-3.6405,-3.6405,-3.6405,-3.6405,-3.6499,-3.7023,-3.803,-3.8243,-3.8738,-3.9855,-4.0873,-4.1462,-4.1587,-4.2548,-4.3155,-4.329,-4.329,-4.329,-4.329,-4.329,-4.329,-4.329,-4.329,-4.329,0.0,0.0,0.0,0.0,-1.7542,0.0,-1.793,-1.7763,-1.8037,0.0,-1.8557,-1.7693,-1.9042,-1.8388,-1.7692,-1.7692,-1.8092,-1.9161,-2.1389,-2.1768,-2.1809,-2.1809,-2.213,-2.2316,-2.2316,-2.2579,-2.3195,-2.4276,-2.5366,-2.5937,-2.5937,-2.5937,-2.5937,-2.5937,-2.5937,-2.6152,-2.6504,-2.6514,-2.668,-2.7012,-2.71,-2.7139,-2.7158,-2.7588,-2.7836,-2.7865,-2.8144,-2.8291,-2.8291,-2.8291,-2.8441,-2.8804,-2.9869,-3.0473,-3.0865,-3.2191,-3.3415,-3.4434,-3.4678,-3.5523,-3.6405,-3.6405,-3.6405,-3.6405,-3.6405,-3.6405,-3.6405,-3.6405,-3.6405,-3.6405,-3.6405,-3.6405,-3.6405,-3.6405,-3.6405,-3.6405,-3.6405,-3.6405,-3.6405,-3.6405,-3.6405,-3.6405,-3.6405,-3.6405,-3.6405,-3.6405,-3.6405,-3.6405,-3.6405,-3.6405,-3.6405,-3.6405,-3.7243,-3.7848,-3.8062,-3.9006,-3.9637,-3.9899,-4.0116,-4.0661,-4.1545,-4.1809,-4.2371,-4.329,-4.329,-4.329,-4.329,-4.329,-4.329,-4.329,-4.329,-4.329,0.0,0.0,0.0,-1.7582,-1.7361,0.0,0.0,-1.7241,-1.7252,-1.8355,-1.7853,-1.7387,-1.8245,-1.8377,-1.8377,-1.8377,-1.8504,-1.9065,-2.0436,-2.0076,-1.9672,-1.9672,-2.0231,-2.0641,-2.0641,-2.1904,-2.3226,-2.4609,-2.5323,-2.5693,-2.5693,-2.5693,-2.5693,-2.5693,-2.5693,-2.5791,-2.6064,-2.6064,-2.6172,-2.6327,-2.6602,-2.6699,-2.6719,-2.7148,-2.7461,-2.7728,-2.7891,-2.8096,-2.8291,-2.8291,-2.8291,-2.8398,-2.9049,-2.9713,-3.0473,-3.1836,-3.3204,-3.4483,-3.5174,-3.581,-3.6405,-3.6405,-3.6405,-3.6405,-3.6405,-3.6405,-3.6405,-3.6405,-3.6405,-3.6405,-3.6405,-3.6405,-3.6405,-3.6405,-3.6405,-3.6405,-3.6405,-3.6405,-3.6405,-3.6405,-3.6405,-3.6405,-3.6405,-3.6405,-3.6405,-3.6405,-3.6405,-3.6405,-3.6405,-3.6405,-3.6405,-3.6405,-3.6883,-3.7243,-3.7243,-3.7815,-3.8134,-3.8134,-3.8707,-3.9522,-4.0703,-4.1295,-4.2152,-4.329,-4.329,-4.329,-4.329,-4.329,-4.329,-4.329,-4.329,-4.329,0.0,0.0,0.0,0.0,0.0,-1.6901,0.0,0.0,0.0,0.0,0.0,0.0,0.0,0.0,0.0,0.0,0.0,0.0,0.0,-1.8262,0.0,-1.7582,-1.8558,-1.922,-1.922,-2.1456,-2.3484,-2.4815,-2.5177,-2.543,-2.5693,-2.5693,-2.5693,-2.5693,-2.5693,-2.5693,-2.5693,-2.5693,-2.5693,-2.5693,-2.6094,-2.6269,-2.6279,-2.6699,-2.709,-2.7483,-2.765,-2.7861,-2.8174,-2.8262,-2.8291,-2.8291,-2.8291,-2.8953,-3.0068,-3.1122,-3.2593,-3.4166,-3.5259,-3.5953,-3.6405,-3.6405,-3.6405,-3.6405,-3.6405,-3.6405,-3.6405,-3.6405,-3.6405,-3.6405,-3.6405,-3.6405,-3.6405,-3.6405,-3.6405,-3.6405,-3.6405,-3.6405,-3.6405,-3.6405,-3.6405,-3.6405,-3.6405,-3.6405,-3.6405,-3.6405,-3.6405,-3.6405,-3.6405,-3.6405,-3.6405,-3.6405,-3.6405,-3.6405,-3.6405,-3.6405,-3.6405,-3.6405,-3.7289,-3.8424,-3.9855,-4.1225,-4.2371,-4.329,-4.329,-4.329,-4.329,-4.329,-4.329,-4.329,-4.329,-4.329,0.0,0.0,0.0,0.0,-1.7199,-1.7099,-1.6847,0.0,-1.6413,-1.674,0.0,0.0,0.0,0.0,0.0,0.0,0.0,0.0,-1.7486,-1.7578,-1.7582,-1.7582,-1.7733,-1.7838,-1.7838,-1.9169,-2.0641,-2.2055,-2.3276,-2.4452,-2.5635,-2.5693,-2.5693,-2.5693,-2.5693,-2.5693,-2.5693,-2.5693,-2.5693,-2.5693,-2.5732,-2.5762,-2.5781,-2.626,-2.6484,-2.6572,-2.7334,-2.7748,-2.7826,-2.8135,-2.8291,-2.8291,-2.8291,-2.8388,-2.8548,-2.8698,-3.0369,-3.2532,-3.2733,-3.4338,-3.6405,-3.6405,-3.6405,-3.6405,-3.6405,-3.6405,-3.6405,-3.6405,-3.6405,-3.6405,-3.6405,-3.6405,-3.6405,-3.6405,-3.6405,-3.6405,-3.6405,-3.6405,-3.6405,-3.6405,-3.6405,-3.6405,-3.6405,-3.6405,-3.6405,-3.6405,-3.6405,-3.6405,-3.6405,-3.6405,-3.6405,-3.6405,-3.6405,-3.6405,-3.6405,-3.6405,-3.6405,-3.6405,-3.6546,-3.7599,-3.9812,-4.1961,-4.3155,-4.329,-4.329,-4.329,-4.329,-4.329,-4.329,-4.329,-4.329,-4.329,0.0,0.0,0.0,0.0,0.0,0.0,-1.6734,0.0,-1.6359,0.0,0.0,0.0,0.0,0.0,0.0,0.0,-1.6981,0.0,0.0,0.0,-1.7582,0.0,0.0,0.0,-1.8655,-1.9272,-2.0179,-2.16,-2.2918,-2.3949,-2.451,-2.5274,-2.5693,-2.5693,-2.5693,-2.5693,-2.5693,-2.5693,-2.5693,-2.5693,-2.5693,-2.5693,-2.5693,-2.5879,-2.6152,-2.6426,-2.7031,-2.7432,-2.7748,-2.8125,-2.8291,-2.8291,-2.8291,-2.8804,-2.946,-2.946,-3.1184,-3.3514,-3.3514,-3.4763,-3.6405,-3.6405,-3.6405,-3.6405,-3.6405,-3.6405,-3.6405,-3.6405,-3.6405,-3.6405,-3.6405,-3.6405,-3.6405,-3.6405,-3.6405,-3.6405,-3.6405,-3.6405,-3.6405,-3.6405,-3.6405,-3.6405,-3.6405,-3.6405,-3.6405,-3.6405,-3.6405,-3.6405,-3.6405,-3.6405,-3.6405,-3.6405,-3.6405,-3.6405,-3.6405,-3.6405,-3.6405,-3.6405,-3.7691,-3.8885,-3.9855,-4.2085,-4.329,-4.329,-4.329,-4.329,-4.329,-4.329,-4.329,-4.329,-4.329,-4.329,-1.7582,0.0,0.0,0.0,0.0,0.0,0.0,0.0,-1.6306,0.0,0.0,0.0,0.0,0.0,0.0,0.0,0.0,-1.7172,0.0,-1.7348,0.0,0.0,0.0,0.0,0.0,-1.9065,-1.9627,-2.1041,-2.2013,-2.2726,-2.3126,-2.4402,-2.5177,-2.5177,-2.5489,-2.5693,-2.5693,-2.5693,-2.5693,-2.5693,-2.5693,-2.5693,-2.5693,-2.5693,-2.5908,-2.623,-2.666,-2.709,-2.7519,-2.7939,-2.8193,-2.8291,-2.8291,-2.89,-2.9755,-2.9755,-3.1235,-3.3266,-3.3266,-3.441,-3.5858,-3.5858,-3.6108,-3.6405,-3.6405,-3.6405,-3.6405,-3.6405,-3.6405,-3.6405,-3.6405,-3.6405,-3.6405,-3.6405,-3.6405,-3.6405,-3.6405,-3.6405,-3.6405,-3.6405,-3.6405,-3.6405,-3.6405,-3.6405,-3.6405,-3.6405,-3.6405,-3.6405,-3.6405,-3.6405,-3.6405,-3.6405,-3.6405,-3.6405,-3.6405,-3.6405,-3.6405,-3.6405,-3.8302,-3.9417,-3.9417,-4.1309,-4.2522,-4.282,-4.282,-4.2981,-4.329,-4.329,-4.329,-4.329,-4.329,-4.329,0.0,0.0,0.0,-1.686,0.0,0.0,0.0,0.0,-1.6192,-1.5912,-1.6086,0.0,0.0,0.0,0.0,0.0,0.0,0.0,0.0,0.0,0.0,0.0,0.0,0.0,0.0,-1.7687,-1.8199,-1.9576,-1.9731,-2.0341,-2.1702,-2.3026,-2.3741,-2.3741,-2.502,-2.5693,-2.5693,-2.5693,-2.5693,-2.5693,-2.5693,-2.5693,-2.5693,-2.5693,-2.5693,-2.5732,-2.6221,-2.665,-2.707,-2.751,-2.793,-2.8291,-2.8291,-2.8344,-2.8344,-2.8344,-2.926,-3.0421,-3.0421,-3.2191,-3.4483,-3.4483,-3.5319,-3.6405,-3.6405,-3.6405,-3.6405,-3.6405,-3.6405,-3.6405,-3.6405,-3.6405,-3.6405,-3.6405,-3.6405,-3.6405,-3.6405,-3.6405,-3.6405,-3.6405,-3.6405,-3.6405,-3.6405,-3.6405,-3.6405,-3.6405,-3.6405,-3.6405,-3.6405,-3.6405,-3.6405,-3.6405,-3.6405,-3.6405,-3.6405,-3.6405,-3.6405,-3.6405,-3.7507,-3.8153,-3.8153,-3.936,-4.0532,-4.1629,-4.1629,-4.2193,-4.329,-4.329,-4.329,-4.329,-4.329,-4.329,-1.7582,-1.7582,-1.7488,-1.7146,-1.6847,-1.6607,-1.6213,-1.6199,-1.6186,-1.5892,-1.6066,0.0,0.0,0.0,0.0,0.0,0.0,0.0,0.0,0.0,0.0,0.0,0.0,0.0,0.0,0.0,-1.7793,-1.8251,-1.9117,-1.9834,-2.0282,-2.16,-2.2767,-2.3683,-2.4146,-2.4815,-2.5684,-2.5693,-2.5693,-2.5693,-2.5693,-2.5693,-2.5693,-2.5693,-2.5693,-2.5713,-2.6201,-2.6465,-2.666,-2.7425,-2.7806,-2.791,-2.8184,-2.8291,-2.8291,-2.8291,-2.9154,-3.0421,-3.1327,-3.2241,-3.3005,-3.3005,-3.3958,-3.5078,-3.5078,-3.5715,-3.6405,-3.6405,-3.6405,-3.6405,-3.6405,-3.6405,-3.6405,-3.6405,-3.6405,-3.6405,-3.6405,-3.6405,-3.6405,-3.6405,-3.6405,-3.6405,-3.6405,-3.6405,-3.6405,-3.6405,-3.6405,-3.6405,-3.6405,-3.6405,-3.6405,-3.6405,-3.6405,-3.6405,-3.6405,-3.6405,-3.6405,-3.6405,-3.7461,-3.8107,-3.8107,-3.9271,-4.0073,-4.0447,-4.049,-4.1042,-4.2152,-4.2152,-4.2548,-4.329,-4.329,-4.329,-1.7582,-1.7582,-1.7515,-1.7273,-1.7058,-1.676,-1.6415,-1.6353,-1.6346,-1.6046,-1.6139,-1.6246,0.0,0.0,0.0,0.0,0.0,0.0,0.0,-1.7121,0.0,0.0,0.0,0.0,0.0,-1.7582,-1.7582,-1.7582,-1.8401,-1.8916,0.0,-2.0179,-2.1347,-2.2215,-2.2717,-2.3633,-2.4971,-2.4971,-2.5226,-2.5693,-2.5693,-2.5693,-2.5693,-2.5693,-2.5693,-2.5703,-2.6035,-2.625,-2.6435,-2.7148,-2.7529,-2.7757,-2.8125,-2.8291,-2.8291,-2.8291,-2.8857,-2.9713,-3.0577,-3.1173,-3.1582,-3.1582,-3.2543,-3.3662,-3.3662,-3.4264,-3.5054,-3.5559,-3.5667,-3.581,-3.6263,-3.6405,-3.6405,-3.6405,-3.6405,-3.6405,-3.6405,-3.6405,-3.6405,-3.6405,-3.6405,-3.6405,-3.6405,-3.6405,-3.6405,-3.6405,-3.6405,-3.6405,-3.6405,-3.6405,-3.6405,-3.6405,-3.6405,-3.6405,-3.6405,-3.6405,-3.6405,-3.6405,-3.7103,-3.7494,-3.7494,-3.8257,-3.8841,-3.9271,-3.9271,-3.9828,-4.1,-4.142,-4.1988,-4.2725,-4.3115,-4.329]}]]